Time,TemperatureF,DewpointF,PressureIn,WindDirection,WindDirectionDegrees,WindSpeedMPH,WindSpeedGustMPH,Humidity,HourlyPrecipIn,Conditions,Clouds,dailyrainin,SoftwareType,DateUTC
2013-04-18 00:00:00,33.8,32.8,29.76,North,6,7.0,16.0,96,0.07,,CLR,0.49,VWS V14.01,2013-04-18 05:00:00,
2013-04-18 00:01:00,33.8,32.8,29.76,North,360,3.0,9.0,96,0.03,,CLR,0.00,VWS V14.01,2013-04-18 05:01:00,
2013-04-18 00:02:00,33.8,32.8,29.76,NE,47,11.0,13.0,96,0.03,,CLR,0.00,VWS V14.01,2013-04-18 05:02:00,
2013-04-18 00:03:00,33.8,32.8,29.76,NNE,30,10.0,13.0,96,0.03,,CLR,0.00,VWS V14.01,2013-04-18 05:03:00,
2013-04-18 00:04:00,33.7,32.7,29.76,North,350,6.0,13.0,96,0.03,,CLR,0.00,VWS V14.01,2013-04-18 05:04:00,
2013-04-18 00:05:00,33.7,32.7,29.76,NE,36,13.0,17.0,96,0.04,,CLR,0.01,VWS V14.01,2013-04-18 05:05:00,
2013-04-18 00:06:00,33.8,32.8,29.76,NNE,31,11.0,17.0,96,0.04,,CLR,0.01,VWS V14.01,2013-04-18 05:06:00,
2013-04-18 00:07:00,33.8,32.8,29.76,North,10,7.0,17.0,96,0.04,,CLR,0.01,VWS V14.01,2013-04-18 05:07:00,
2013-04-18 00:08:00,33.7,32.7,29.76,NNE,14,9.0,17.0,96,0.04,,CLR,0.01,VWS V14.01,2013-04-18 05:08:00,
2013-04-18 00:09:00,33.7,32.7,29.76,NE,34,9.0,17.0,96,0.04,,CLR,0.01,VWS V14.01,2013-04-18 05:09:00,
2013-04-18 00:10:00,33.8,32.8,29.76,NE,36,9.0,17.0,96,0.04,,CLR,0.01,VWS V14.01,2013-04-18 05:10:00,
2013-04-18 00:11:00,33.8,32.8,29.76,NNE,30,1.0,17.0,96,0.04,,CLR,0.01,VWS V14.01,2013-04-18 05:11:00,
2013-04-18 00:12:00,33.8,32.8,29.76,NE,44,11.0,17.0,96,0.04,,CLR,0.01,VWS V14.01,2013-04-18 05:12:00,
2013-04-18 00:13:00,33.7,32.7,29.76,NNE,16,10.0,17.0,96,0.04,,CLR,0.01,VWS V14.01,2013-04-18 05:13:00,
2013-04-18 00:14:00,33.7,32.7,29.76,NNE,16,6.0,17.0,96,0.04,,CLR,0.01,VWS V14.01,2013-04-18 05:14:00,
2013-04-18 00:15:00,33.7,32.7,29.75,North,3,7.0,17.0,96,0.04,,CLR,0.01,VWS V14.01,2013-04-18 05:15:00,
2013-04-18 00:16:00,33.7,32.7,29.75,NNE,24,14.0,17.0,96,0.04,,CLR,0.01,VWS V14.01,2013-04-18 05:16:00,
2013-04-18 00:17:00,33.8,32.8,29.75,NNE,26,13.0,17.0,96,0.04,,CLR,0.01,VWS V14.01,2013-04-18 05:17:00,
2013-04-18 00:18:00,33.7,32.7,29.75,NNE,30,6.0,17.0,96,0.04,,CLR,0.01,VWS V14.01,2013-04-18 05:18:00,
2013-04-18 00:19:00,33.7,32.7,29.75,NNE,30,5.0,17.0,96,0.04,,CLR,0.01,VWS V14.01,2013-04-18 05:19:00,
2013-04-18 00:20:00,33.8,32.8,29.75,NNE,29,1.0,17.0,96,0.04,,CLR,0.01,VWS V14.01,2013-04-18 05:20:00,
2013-04-18 00:21:00,33.8,32.8,29.75,North,360,5.0,17.0,96,0.04,,CLR,0.01,VWS V14.01,2013-04-18 05:21:00,
2013-04-18 00:22:00,33.7,32.7,29.75,NE,43,12.0,17.0,96,0.04,,CLR,0.01,VWS V14.01,2013-04-18 05:22:00,
2013-04-18 00:23:00,33.8,32.8,29.75,NNE,24,10.0,17.0,96,0.04,,CLR,0.01,VWS V14.01,2013-04-18 05:23:00,
2013-04-18 00:24:00,33.8,32.8,29.75,NNE,30,5.0,17.0,96,0.04,,CLR,0.01,VWS V14.01,2013-04-18 05:24:00,
2013-04-18 00:25:00,33.7,32.7,29.75,NNE,19,2.0,17.0,96,0.04,,CLR,0.01,VWS V14.01,2013-04-18 05:25:00,
2013-04-18 00:26:00,33.8,32.8,29.75,NE,46,5.0,17.0,96,0.04,,CLR,0.01,VWS V14.01,2013-04-18 05:26:00,
2013-04-18 00:27:00,33.7,32.7,29.75,NNE,31,6.0,17.0,96,0.04,,CLR,0.01,VWS V14.01,2013-04-18 05:27:00,
2013-04-18 00:28:00,33.7,32.7,29.75,NE,43,8.0,17.0,96,0.04,,CLR,0.01,VWS V14.01,2013-04-18 05:28:00,
2013-04-18 00:29:00,33.7,32.7,29.75,NNE,33,7.0,17.0,96,0.04,,CLR,0.01,VWS V14.01,2013-04-18 05:29:00,
2013-04-18 00:30:00,33.7,32.7,29.73,NNE,27,11.0,17.0,96,0.04,,CLR,0.01,VWS V14.01,2013-04-18 05:30:00,
2013-04-18 00:31:00,33.7,32.7,29.73,NE,36,7.0,14.0,96,0.02,,CLR,0.01,VWS V14.01,2013-04-18 05:31:00,
2013-04-18 00:32:00,33.7,32.7,29.73,NNE,26,7.0,18.0,96,0.02,,CLR,0.01,VWS V14.01,2013-04-18 05:32:00,
2013-04-18 00:33:00,33.7,32.7,29.73,NE,51,12.0,18.0,96,0.02,,CLR,0.01,VWS V14.01,2013-04-18 05:33:00,
2013-04-18 00:34:00,33.7,32.7,29.73,NE,37,14.0,18.0,96,0.02,,CLR,0.01,VWS V14.01,2013-04-18 05:34:00,
2013-04-18 00:35:00,33.7,32.7,29.73,NNE,13,8.0,18.0,96,0.02,,CLR,0.01,VWS V14.01,2013-04-18 05:35:00,
2013-04-18 00:36:00,33.7,32.7,29.73,NE,54,8.0,18.0,96,0.02,,CLR,0.01,VWS V14.01,2013-04-18 05:36:00,
2013-04-18 00:37:00,33.7,32.7,29.73,NNE,26,10.0,18.0,96,0.02,,CLR,0.01,VWS V14.01,2013-04-18 05:37:00,
2013-04-18 00:38:00,33.7,32.7,29.73,NE,41,12.0,18.0,96,0.02,,CLR,0.01,VWS V14.01,2013-04-18 05:38:00,
2013-04-18 00:39:00,33.7,32.7,29.73,NE,34,8.0,18.0,96,0.02,,CLR,0.01,VWS V14.01,2013-04-18 05:39:00,
2013-04-18 00:40:00,33.7,32.7,29.73,NE,37,7.0,18.0,96,0.02,,CLR,0.01,VWS V14.01,2013-04-18 05:40:00,
2013-04-18 00:41:00,33.7,32.7,29.73,NNE,30,13.0,18.0,96,0.02,,CLR,0.01,VWS V14.01,2013-04-18 05:41:00,
2013-04-18 00:42:00,33.7,32.7,29.73,NE,44,12.0,18.0,96,0.02,,CLR,0.01,VWS V14.01,2013-04-18 05:42:00,
2013-04-18 00:43:00,33.7,32.7,29.73,North,2,4.0,18.0,96,0.02,,CLR,0.01,VWS V14.01,2013-04-18 05:43:00,
2013-04-18 00:44:00,33.7,32.7,29.73,North,6,8.0,18.0,96,0.03,,CLR,0.02,VWS V14.01,2013-04-18 05:44:00,
2013-04-18 00:45:00,33.7,32.7,29.71,NE,51,8.0,18.0,96,0.03,,CLR,0.02,VWS V14.01,2013-04-18 05:45:00,
2013-04-18 00:46:00,33.7,32.7,29.71,NE,34,7.0,18.0,96,0.03,,CLR,0.02,VWS V14.01,2013-04-18 05:46:00,
2013-04-18 00:47:00,33.7,32.7,29.71,NE,41,5.0,18.0,96,0.03,,CLR,0.02,VWS V14.01,2013-04-18 05:47:00,
2013-04-18 00:48:00,33.7,32.7,29.71,NE,44,11.0,18.0,96,0.03,,CLR,0.02,VWS V14.01,2013-04-18 05:48:00,
2013-04-18 00:49:00,33.7,32.7,29.71,NE,41,8.0,18.0,96,0.03,,CLR,0.02,VWS V14.01,2013-04-18 05:49:00,
2013-04-18 00:50:00,33.7,32.7,29.71,ENE,57,7.0,18.0,96,0.03,,CLR,0.02,VWS V14.01,2013-04-18 05:50:00,
2013-04-18 00:51:00,33.7,32.7,29.71,NE,46,7.0,18.0,96,0.03,,CLR,0.02,VWS V14.01,2013-04-18 05:51:00,
2013-04-18 00:52:00,33.7,32.7,29.71,North,10,7.0,18.0,96,0.03,,CLR,0.02,VWS V14.01,2013-04-18 05:52:00,
2013-04-18 00:53:00,33.7,32.7,29.71,North,2,8.0,18.0,96,0.03,,CLR,0.02,VWS V14.01,2013-04-18 05:53:00,
2013-04-18 00:54:00,33.7,32.7,29.71,NNE,20,8.0,18.0,96,0.03,,CLR,0.02,VWS V14.01,2013-04-18 05:54:00,
2013-04-18 00:55:00,33.7,32.7,29.71,NNE,14,7.0,21.0,96,0.03,,CLR,0.02,VWS V14.01,2013-04-18 05:55:00,
2013-04-18 00:56:00,33.7,32.7,29.71,NE,51,9.0,21.0,96,0.03,,CLR,0.02,VWS V14.01,2013-04-18 05:56:00,
2013-04-18 00:57:00,33.7,32.7,29.71,NE,48,7.0,21.0,96,0.03,,CLR,0.02,VWS V14.01,2013-04-18 05:57:00,
2013-04-18 00:58:00,33.7,32.7,29.71,NE,46,18.0,21.0,96,0.03,,CLR,0.02,VWS V14.01,2013-04-18 05:58:00,
2013-04-18 00:59:00,33.7,32.7,29.71,NE,40,7.0,21.0,96,0.03,,CLR,0.02,VWS V14.01,2013-04-18 05:59:00,
2013-04-18 01:00:00,33.7,32.7,29.70,ENE,58,13.0,21.0,96,0.03,,CLR,0.02,VWS V14.01,2013-04-18 06:00:00,
2013-04-18 01:01:00,33.7,32.7,29.70,NE,47,10.0,13.0,96,0.02,,CLR,0.02,VWS V14.01,2013-04-18 06:01:00,
2013-04-18 01:02:00,33.7,32.7,29.70,NE,44,8.0,16.0,96,0.02,,CLR,0.02,VWS V14.01,2013-04-18 06:02:00,
2013-04-18 01:03:00,33.8,32.8,29.70,NE,55,12.0,19.0,96,0.02,,CLR,0.02,VWS V14.01,2013-04-18 06:03:00,
2013-04-18 01:04:00,33.8,32.8,29.70,NE,50,13.0,19.0,96,0.02,,CLR,0.02,VWS V14.01,2013-04-18 06:04:00,
2013-04-18 01:05:00,33.8,32.8,29.70,NE,41,13.0,19.0,96,0.02,,CLR,0.02,VWS V14.01,2013-04-18 06:05:00,
2013-04-18 01:06:00,33.8,32.8,29.70,NNE,26,8.0,19.0,96,0.02,,CLR,0.02,VWS V14.01,2013-04-18 06:06:00,
2013-04-18 01:07:00,33.7,32.7,29.70,NNE,26,6.0,19.0,96,0.02,,CLR,0.02,VWS V14.01,2013-04-18 06:07:00,
2013-04-18 01:08:00,33.8,32.8,29.70,NE,50,6.0,19.0,96,0.02,,CLR,0.02,VWS V14.01,2013-04-18 06:08:00,
2013-04-18 01:09:00,33.8,32.8,29.70,NE,38,11.0,19.0,96,0.02,,CLR,0.02,VWS V14.01,2013-04-18 06:09:00,
2013-04-18 01:10:00,33.8,32.8,29.70,NNE,14,4.0,19.0,96,0.02,,CLR,0.02,VWS V14.01,2013-04-18 06:10:00,
2013-04-18 01:11:00,33.8,32.8,29.70,NNE,20,4.0,19.0,96,0.02,,CLR,0.02,VWS V14.01,2013-04-18 06:11:00,
2013-04-18 01:12:00,33.8,32.8,29.70,NE,43,2.0,19.0,96,0.02,,CLR,0.02,VWS V14.01,2013-04-18 06:12:00,
2013-04-18 01:13:00,33.7,32.7,29.70,NE,41,5.0,19.0,96,0.02,,CLR,0.02,VWS V14.01,2013-04-18 06:13:00,
2013-04-18 01:14:00,33.7,32.7,29.70,NE,40,17.0,19.0,96,0.02,,CLR,0.02,VWS V14.01,2013-04-18 06:14:00,
2013-04-18 01:15:00,33.7,32.7,29.69,NNE,33,12.0,19.0,96,0.02,,CLR,0.02,VWS V14.01,2013-04-18 06:15:00,
2013-04-18 01:16:00,33.7,32.7,29.69,NE,50,11.0,19.0,96,0.02,,CLR,0.02,VWS V14.01,2013-04-18 06:16:00,
2013-04-18 01:17:00,33.7,32.7,29.69,NNE,33,6.0,19.0,96,0.02,,CLR,0.02,VWS V14.01,2013-04-18 06:17:00,
2013-04-18 01:18:00,33.8,32.8,29.69,NNE,19,6.0,19.0,96,0.02,,CLR,0.02,VWS V14.01,2013-04-18 06:18:00,
2013-04-18 01:19:00,33.7,32.7,29.69,NE,44,10.0,19.0,96,0.02,,CLR,0.02,VWS V14.01,2013-04-18 06:19:00,
2013-04-18 01:20:00,33.8,32.8,29.69,NE,38,6.0,19.0,96,0.02,,CLR,0.02,VWS V14.01,2013-04-18 06:20:00,
2013-04-18 01:21:00,33.7,32.7,29.69,ENE,58,8.0,19.0,96,0.02,,CLR,0.02,VWS V14.01,2013-04-18 06:21:00,
2013-04-18 01:22:00,33.8,32.8,29.69,NE,46,12.0,19.0,96,0.02,,CLR,0.02,VWS V14.01,2013-04-18 06:22:00,
2013-04-18 01:23:00,33.7,32.7,29.69,NNE,26,9.0,19.0,96,0.02,,CLR,0.02,VWS V14.01,2013-04-18 06:23:00,
2013-04-18 01:24:00,33.8,32.8,29.69,NNE,12,5.0,19.0,96,0.02,,CLR,0.02,VWS V14.01,2013-04-18 06:24:00,
2013-04-18 01:25:00,33.8,32.8,29.69,NE,53,8.0,19.0,96,0.03,,CLR,0.03,VWS V14.01,2013-04-18 06:25:00,
2013-04-18 01:26:00,33.8,32.8,29.69,NE,43,11.0,19.0,96,0.03,,CLR,0.03,VWS V14.01,2013-04-18 06:26:00,
2013-04-18 01:27:00,33.8,32.8,29.69,NE,44,14.0,19.0,96,0.03,,CLR,0.03,VWS V14.01,2013-04-18 06:27:00,
2013-04-18 01:28:00,33.7,32.7,29.69,ENE,58,11.0,19.0,96,0.03,,CLR,0.03,VWS V14.01,2013-04-18 06:28:00,
2013-04-18 01:29:00,33.8,32.8,29.69,NE,43,12.0,19.0,96,0.03,,CLR,0.03,VWS V14.01,2013-04-18 06:29:00,
2013-04-18 01:30:00,33.8,32.8,29.67,NE,43,16.0,19.0,96,0.03,,CLR,0.03,VWS V14.01,2013-04-18 06:30:00,
2013-04-18 01:31:00,33.8,32.8,29.67,NE,41,8.0,16.0,96,0.02,,CLR,0.03,VWS V14.01,2013-04-18 06:31:00,
2013-04-18 01:32:00,33.8,32.8,29.67,North,6,10.0,16.0,96,0.02,,CLR,0.03,VWS V14.01,2013-04-18 06:32:00,
2013-04-18 01:33:00,33.8,32.8,29.67,NNE,33,14.0,16.0,96,0.02,,CLR,0.03,VWS V14.01,2013-04-18 06:33:00,
2013-04-18 01:34:00,33.8,32.8,29.67,NE,36,11.0,16.0,96,0.02,,CLR,0.03,VWS V14.01,2013-04-18 06:34:00,
2013-04-18 01:35:00,33.8,32.8,29.67,NE,41,6.0,16.0,96,0.02,,CLR,0.03,VWS V14.01,2013-04-18 06:35:00,
2013-04-18 01:36:00,33.8,32.8,29.67,NE,44,8.0,16.0,96,0.02,,CLR,0.03,VWS V14.01,2013-04-18 06:36:00,
2013-04-18 01:37:00,33.8,32.8,29.67,NE,51,12.0,16.0,96,0.02,,CLR,0.03,VWS V14.01,2013-04-18 06:37:00,
2013-04-18 01:38:00,33.8,32.8,29.67,NE,47,13.0,22.0,96,0.02,,CLR,0.03,VWS V14.01,2013-04-18 06:38:00,
2013-04-18 01:39:00,33.8,32.8,29.67,NE,37,11.0,22.0,96,0.02,,CLR,0.03,VWS V14.01,2013-04-18 06:39:00,
2013-04-18 01:40:00,33.8,32.8,29.67,NNE,23,8.0,22.0,96,0.02,,CLR,0.03,VWS V14.01,2013-04-18 06:40:00,
2013-04-18 01:41:00,33.8,32.8,29.67,NE,48,6.0,22.0,96,0.02,,CLR,0.03,VWS V14.01,2013-04-18 06:41:00,
2013-04-18 01:42:00,33.8,32.8,29.67,ENE,57,8.0,22.0,96,0.02,,CLR,0.03,VWS V14.01,2013-04-18 06:42:00,
2013-04-18 01:43:00,33.8,32.8,29.67,NE,47,12.0,22.0,96,0.02,,CLR,0.03,VWS V14.01,2013-04-18 06:43:00,
2013-04-18 01:44:00,33.8,32.8,29.67,NE,40,11.0,22.0,96,0.02,,CLR,0.03,VWS V14.01,2013-04-18 06:44:00,
2013-04-18 01:45:00,33.8,32.8,29.66,NE,37,7.0,22.0,96,0.02,,CLR,0.03,VWS V14.01,2013-04-18 06:45:00,
2013-04-18 01:46:00,33.8,32.8,29.66,NNE,30,12.0,22.0,96,0.02,,CLR,0.03,VWS V14.01,2013-04-18 06:46:00,
2013-04-18 01:47:00,33.8,32.8,29.66,ENE,61,8.0,22.0,96,0.02,,CLR,0.03,VWS V14.01,2013-04-18 06:47:00,
2013-04-18 01:48:00,33.8,32.8,29.66,NE,44,8.0,22.0,96,0.02,,CLR,0.03,VWS V14.01,2013-04-18 06:48:00,
2013-04-18 01:49:00,33.8,32.8,29.66,NE,37,13.0,22.0,96,0.02,,CLR,0.03,VWS V14.01,2013-04-18 06:49:00,
2013-04-18 01:50:00,33.7,32.7,29.66,North,5,1.0,22.0,96,0.02,,CLR,0.03,VWS V14.01,2013-04-18 06:50:00,
2013-04-18 01:51:00,33.8,32.8,29.66,NE,37,3.0,22.0,96,0.02,,CLR,0.03,VWS V14.01,2013-04-18 06:51:00,
2013-04-18 01:52:00,33.8,32.8,29.66,ENE,58,10.0,22.0,96,0.02,,CLR,0.03,VWS V14.01,2013-04-18 06:52:00,
2013-04-18 01:53:00,33.7,32.7,29.66,NE,43,15.0,22.0,96,0.02,,CLR,0.03,VWS V14.01,2013-04-18 06:53:00,
2013-04-18 01:54:00,33.7,32.7,29.66,NE,43,15.0,22.0,96,0.02,,CLR,0.03,VWS V14.01,2013-04-18 06:54:00,
2013-04-18 01:55:00,33.7,32.7,29.66,NE,44,19.0,22.0,96,0.02,,CLR,0.03,VWS V14.01,2013-04-18 06:55:00,
2013-04-18 01:56:00,33.7,32.7,29.66,NE,37,10.0,22.0,96,0.02,,CLR,0.03,VWS V14.01,2013-04-18 06:56:00,
2013-04-18 01:57:00,33.7,32.7,29.66,NNE,16,5.0,22.0,96,0.02,,CLR,0.03,VWS V14.01,2013-04-18 06:57:00,
2013-04-18 01:58:00,33.7,32.7,29.66,NE,43,8.0,22.0,96,0.02,,CLR,0.03,VWS V14.01,2013-04-18 06:58:00,
2013-04-18 01:59:00,33.5,32.5,29.66,North,10,8.0,22.0,96,0.02,,CLR,0.03,VWS V14.01,2013-04-18 06:59:00,
2013-04-18 02:00:00,33.7,32.7,29.65,ENE,58,12.0,22.0,96,0.02,,CLR,0.03,VWS V14.01,2013-04-18 07:00:00,
2013-04-18 02:01:00,33.7,32.7,29.65,NE,46,8.0,14.0,96,0.01,,CLR,0.03,VWS V14.01,2013-04-18 07:01:00,
2013-04-18 02:02:00,33.5,32.5,29.65,NNE,27,10.0,16.0,96,0.01,,CLR,0.03,VWS V14.01,2013-04-18 07:02:00,
2013-04-18 02:03:00,33.5,32.5,29.65,ENE,61,3.0,16.0,96,0.01,,CLR,0.03,VWS V14.01,2013-04-18 07:03:00,
2013-04-18 02:04:00,33.5,32.5,29.65,North,2,3.0,16.0,96,0.01,,CLR,0.03,VWS V14.01,2013-04-18 07:04:00,
2013-04-18 02:05:00,33.5,32.5,29.65,NE,37,13.0,16.0,96,0.01,,CLR,0.03,VWS V14.01,2013-04-18 07:05:00,
2013-04-18 02:06:00,33.5,32.5,29.65,NE,40,9.0,16.0,96,0.01,,CLR,0.03,VWS V14.01,2013-04-18 07:06:00,
2013-04-18 02:07:00,33.5,32.5,29.65,NE,53,10.0,16.0,96,0.01,,CLR,0.03,VWS V14.01,2013-04-18 07:07:00,
2013-04-18 02:08:00,33.5,32.5,29.65,NNE,20,11.0,16.0,96,0.01,,CLR,0.03,VWS V14.01,2013-04-18 07:08:00,
2013-04-18 02:09:00,33.5,32.5,29.65,NE,50,17.0,17.0,96,0.01,,CLR,0.03,VWS V14.01,2013-04-18 07:09:00,
2013-04-18 02:10:00,33.5,32.5,29.65,NNE,33,10.0,17.0,96,0.01,,CLR,0.03,VWS V14.01,2013-04-18 07:10:00,
2013-04-18 02:11:00,33.4,32.4,29.65,NE,36,6.0,17.0,96,0.01,,CLR,0.03,VWS V14.01,2013-04-18 07:11:00,
2013-04-18 02:12:00,33.5,32.5,29.65,NE,41,16.0,19.0,96,0.01,,CLR,0.03,VWS V14.01,2013-04-18 07:12:00,
2013-04-18 02:13:00,33.5,32.5,29.65,NE,36,10.0,19.0,96,0.01,,CLR,0.03,VWS V14.01,2013-04-18 07:13:00,
2013-04-18 02:14:00,33.4,32.4,29.65,NE,41,12.0,19.0,96,0.01,,CLR,0.03,VWS V14.01,2013-04-18 07:14:00,
2013-04-18 02:15:00,33.5,32.5,29.65,NE,44,5.0,19.0,96,0.01,,CLR,0.03,VWS V14.01,2013-04-18 07:15:00,
2013-04-18 02:16:00,33.5,32.5,29.65,NE,50,8.0,19.0,96,0.01,,CLR,0.03,VWS V14.01,2013-04-18 07:16:00,
2013-04-18 02:17:00,33.4,32.4,29.65,North,3,11.0,19.0,96,0.01,,CLR,0.03,VWS V14.01,2013-04-18 07:17:00,
2013-04-18 02:18:00,33.4,32.4,29.65,NE,53,6.0,19.0,96,0.01,,CLR,0.03,VWS V14.01,2013-04-18 07:18:00,
2013-04-18 02:19:00,33.4,32.4,29.65,NE,53,5.0,19.0,96,0.01,,CLR,0.03,VWS V14.01,2013-04-18 07:19:00,
2013-04-18 02:20:00,33.4,32.4,29.65,North,360,8.0,19.0,96,0.01,,CLR,0.03,VWS V14.01,2013-04-18 07:20:00,
2013-04-18 02:21:00,33.4,32.4,29.65,NNE,33,6.0,19.0,96,0.01,,CLR,0.03,VWS V14.01,2013-04-18 07:21:00,
2013-04-18 02:22:00,33.4,32.4,29.65,NE,46,6.0,19.0,96,0.01,,CLR,0.03,VWS V14.01,2013-04-18 07:22:00,
2013-04-18 02:23:00,33.4,32.4,29.65,NNE,17,6.0,19.0,96,0.01,,CLR,0.03,VWS V14.01,2013-04-18 07:23:00,
2013-04-18 02:24:00,33.4,32.4,29.65,NE,47,8.0,19.0,96,0.01,,CLR,0.03,VWS V14.01,2013-04-18 07:24:00,
2013-04-18 02:25:00,33.4,32.4,29.65,NNE,23,11.0,19.0,96,0.01,,CLR,0.03,VWS V14.01,2013-04-18 07:25:00,
2013-04-18 02:26:00,33.4,32.4,29.65,NNE,29,0.0,19.0,96,0.01,,CLR,0.03,VWS V14.01,2013-04-18 07:26:00,
2013-04-18 02:27:00,33.4,32.4,29.65,NE,34,8.0,19.0,96,0.01,,CLR,0.03,VWS V14.01,2013-04-18 07:27:00,
2013-04-18 02:28:00,33.4,32.4,29.65,NE,43,11.0,19.0,96,0.01,,CLR,0.03,VWS V14.01,2013-04-18 07:28:00,
2013-04-18 02:29:00,33.4,32.4,29.65,NE,47,6.0,19.0,96,0.01,,CLR,0.03,VWS V14.01,2013-04-18 07:29:00,
2013-04-18 02:30:00,33.4,32.4,29.65,ENE,62,8.0,19.0,96,0.01,,CLR,0.03,VWS V14.01,2013-04-18 07:30:00,
2013-04-18 02:31:00,33.2,32.2,29.65,NE,38,6.0,14.0,96,0.00,,CLR,0.03,VWS V14.01,2013-04-18 07:31:00,
2013-04-18 02:32:00,33.2,32.2,29.65,NE,40,8.0,14.0,96,0.00,,CLR,0.03,VWS V14.01,2013-04-18 07:32:00,
2013-04-18 02:33:00,33.2,32.2,29.65,NNE,13,5.0,14.0,96,0.00,,CLR,0.03,VWS V14.01,2013-04-18 07:33:00,
2013-04-18 02:34:00,33.2,32.2,29.65,NE,34,11.0,19.0,96,0.00,,CLR,0.03,VWS V14.01,2013-04-18 07:34:00,
2013-04-18 02:35:00,33.2,32.2,29.65,NE,34,11.0,19.0,96,0.00,,CLR,0.03,VWS V14.01,2013-04-18 07:35:00,
2013-04-18 02:36:00,33.2,32.2,29.65,NE,54,5.0,19.0,96,0.00,,CLR,0.03,VWS V14.01,2013-04-18 07:36:00,
2013-04-18 02:37:00,33.2,32.2,29.65,NNE,12,7.0,19.0,96,0.00,,CLR,0.03,VWS V14.01,2013-04-18 07:37:00,
2013-04-18 02:38:00,33.2,32.2,29.65,NE,55,6.0,19.0,96,0.00,,CLR,0.03,VWS V14.01,2013-04-18 07:38:00,
2013-04-18 02:39:00,33.2,32.2,29.65,NE,41,8.0,19.0,96,0.00,,CLR,0.03,VWS V14.01,2013-04-18 07:39:00,
2013-04-18 02:40:00,33.2,32.2,29.65,NNE,24,8.0,19.0,96,0.00,,CLR,0.03,VWS V14.01,2013-04-18 07:40:00,
2013-04-18 02:41:00,33.2,32.2,29.65,NNE,19,7.0,19.0,96,0.00,,CLR,0.03,VWS V14.01,2013-04-18 07:41:00,
2013-04-18 02:42:00,33.2,32.2,29.65,NE,46,5.0,19.0,96,0.00,,CLR,0.03,VWS V14.01,2013-04-18 07:42:00,
2013-04-18 02:43:00,33.2,32.2,29.65,NE,55,10.0,19.0,96,0.00,,CLR,0.03,VWS V14.01,2013-04-18 07:43:00,
2013-04-18 02:44:00,33.2,32.2,29.65,North,359,6.0,19.0,96,0.00,,CLR,0.03,VWS V14.01,2013-04-18 07:44:00,
2013-04-18 02:45:00,33.2,32.2,29.67,NE,47,8.0,19.0,96,0.00,,CLR,0.03,VWS V14.01,2013-04-18 07:45:00,
2013-04-18 02:46:00,33.2,32.2,29.67,NE,37,2.0,19.0,96,0.00,,CLR,0.03,VWS V14.01,2013-04-18 07:46:00,
2013-04-18 02:47:00,33.2,32.2,29.67,NE,41,8.0,19.0,96,0.00,,CLR,0.03,VWS V14.01,2013-04-18 07:47:00,
2013-04-18 02:48:00,33.2,32.2,29.67,North,355,7.0,19.0,96,0.00,,CLR,0.03,VWS V14.01,2013-04-18 07:48:00,
2013-04-18 02:49:00,33.2,32.2,29.67,NE,41,7.0,19.0,96,0.00,,CLR,0.03,VWS V14.01,2013-04-18 07:49:00,
2013-04-18 02:50:00,33.2,32.2,29.67,North,360,10.0,19.0,96,0.00,,CLR,0.03,VWS V14.01,2013-04-18 07:50:00,
2013-04-18 02:51:00,33.1,32.1,29.67,North,359,7.0,19.0,96,0.00,,CLR,0.03,VWS V14.01,2013-04-18 07:51:00,
2013-04-18 02:52:00,33.2,32.2,29.67,NNE,27,8.0,19.0,96,0.00,,CLR,0.03,VWS V14.01,2013-04-18 07:52:00,
2013-04-18 02:53:00,33.2,32.2,29.67,NE,54,6.0,19.0,96,0.00,,CLR,0.03,VWS V14.01,2013-04-18 07:53:00,
2013-04-18 02:54:00,33.2,32.2,29.67,NNE,23,2.0,19.0,96,0.00,,CLR,0.03,VWS V14.01,2013-04-18 07:54:00,
2013-04-18 02:55:00,33.2,32.2,29.67,NNE,13,8.0,19.0,96,0.00,,CLR,0.03,VWS V14.01,2013-04-18 07:55:00,
2013-04-18 02:56:00,33.1,32.1,29.67,North,7,8.0,19.0,96,0.00,,CLR,0.03,VWS V14.01,2013-04-18 07:56:00,
2013-04-18 02:57:00,33.2,32.2,29.67,NE,51,12.0,19.0,96,0.00,,CLR,0.03,VWS V14.01,2013-04-18 07:57:00,
2013-04-18 02:58:00,33.1,32.1,29.67,NNE,30,5.0,19.0,96,0.00,,CLR,0.03,VWS V14.01,2013-04-18 07:58:00,
2013-04-18 02:59:00,33.1,32.1,29.67,NE,47,5.0,19.0,96,0.00,,CLR,0.03,VWS V14.01,2013-04-18 07:59:00,
2013-04-18 03:00:00,33.1,32.1,29.66,NE,40,9.0,19.0,96,0.00,,CLR,0.03,VWS V14.01,2013-04-18 08:00:00,
2013-04-18 03:01:00,33.1,32.1,29.66,NE,43,4.0,11.0,96,0.00,,CLR,0.03,VWS V14.01,2013-04-18 08:01:00,
2013-04-18 03:02:00,33.1,32.1,29.66,NNE,33,6.0,11.0,96,0.01,,CLR,0.04,VWS V14.01,2013-04-18 08:02:00,
2013-04-18 03:03:00,33.1,32.1,29.66,NNE,19,0.0,11.0,96,0.01,,CLR,0.04,VWS V14.01,2013-04-18 08:03:00,
2013-04-18 03:04:00,33.1,32.1,29.66,ENE,58,5.0,11.0,96,0.01,,CLR,0.04,VWS V14.01,2013-04-18 08:04:00,
2013-04-18 03:05:00,33.1,32.1,29.66,NNE,12,7.0,11.0,96,0.01,,CLR,0.04,VWS V14.01,2013-04-18 08:05:00,
2013-04-18 03:06:00,33.1,32.1,29.66,NE,48,7.0,11.0,96,0.01,,CLR,0.04,VWS V14.01,2013-04-18 08:06:00,
2013-04-18 03:07:00,33.1,32.1,29.66,NNE,31,6.0,11.0,96,0.01,,CLR,0.04,VWS V14.01,2013-04-18 08:07:00,
2013-04-18 03:08:00,33.1,32.1,29.66,NE,55,11.0,12.0,96,0.01,,CLR,0.04,VWS V14.01,2013-04-18 08:08:00,
2013-04-18 03:09:00,33.1,32.1,29.66,NNE,13,7.0,12.0,96,0.01,,CLR,0.04,VWS V14.01,2013-04-18 08:09:00,
2013-04-18 03:10:00,33.1,32.1,29.66,North,3,8.0,14.0,96,0.01,,CLR,0.04,VWS V14.01,2013-04-18 08:10:00,
2013-04-18 03:11:00,33.1,32.1,29.66,NNW,346,4.0,14.0,96,0.01,,CLR,0.04,VWS V14.01,2013-04-18 08:11:00,
2013-04-18 03:12:00,33.1,32.1,29.66,NE,38,7.0,14.0,96,0.01,,CLR,0.04,VWS V14.01,2013-04-18 08:12:00,
2013-04-18 03:13:00,33.1,32.1,29.66,NNE,33,6.0,14.0,96,0.01,,CLR,0.04,VWS V14.01,2013-04-18 08:13:00,
2013-04-18 03:14:00,33.1,32.1,29.66,NNE,19,9.0,14.0,96,0.01,,CLR,0.04,VWS V14.01,2013-04-18 08:14:00,
2013-04-18 03:15:00,33.1,32.1,29.66,NE,43,7.0,14.0,96,0.01,,CLR,0.04,VWS V14.01,2013-04-18 08:15:00,
2013-04-18 03:16:00,33.1,32.1,29.66,NE,43,6.0,14.0,96,0.01,,CLR,0.04,VWS V14.01,2013-04-18 08:16:00,
2013-04-18 03:17:00,33.1,32.1,29.66,NNW,346,2.0,14.0,96,0.01,,CLR,0.04,VWS V14.01,2013-04-18 08:17:00,
2013-04-18 03:18:00,33.1,32.1,29.66,North,352,6.0,14.0,96,0.01,,CLR,0.04,VWS V14.01,2013-04-18 08:18:00,
2013-04-18 03:19:00,33.1,32.1,29.66,NE,46,9.0,14.0,96,0.01,,CLR,0.04,VWS V14.01,2013-04-18 08:19:00,
2013-04-18 03:20:00,33.1,32.1,29.66,NNW,348,7.0,14.0,96,0.01,,CLR,0.04,VWS V14.01,2013-04-18 08:20:00,
2013-04-18 03:21:00,33.1,32.1,29.66,North,7,6.0,14.0,96,0.01,,CLR,0.04,VWS V14.01,2013-04-18 08:21:00,
2013-04-18 03:22:00,33.1,32.1,29.66,NNE,23,6.0,14.0,96,0.01,,CLR,0.04,VWS V14.01,2013-04-18 08:22:00,
2013-04-18 03:23:00,33.1,32.1,29.66,NNE,30,5.0,14.0,96,0.01,,CLR,0.04,VWS V14.01,2013-04-18 08:23:00,
2013-04-18 03:24:00,33.1,32.1,29.66,NE,36,7.0,14.0,96,0.01,,CLR,0.04,VWS V14.01,2013-04-18 08:24:00,
2013-04-18 03:25:00,33.1,32.1,29.66,NE,43,7.0,14.0,96,0.01,,CLR,0.04,VWS V14.01,2013-04-18 08:25:00,
2013-04-18 03:26:00,33.1,32.1,29.66,NE,37,7.0,14.0,96,0.01,,CLR,0.04,VWS V14.01,2013-04-18 08:26:00,
2013-04-18 03:27:00,33.1,32.1,29.66,NE,38,6.0,14.0,96,0.01,,CLR,0.04,VWS V14.01,2013-04-18 08:27:00,
2013-04-18 03:28:00,32.9,31.9,29.66,NNE,31,5.0,14.0,96,0.01,,CLR,0.04,VWS V14.01,2013-04-18 08:28:00,
2013-04-18 03:29:00,32.9,31.9,29.66,NE,43,5.0,14.0,96,0.01,,CLR,0.04,VWS V14.01,2013-04-18 08:29:00,
2013-04-18 03:30:00,32.9,31.9,29.65,NE,44,7.0,14.0,96,0.01,,CLR,0.04,VWS V14.01,2013-04-18 08:30:00,
2013-04-18 03:31:00,32.9,31.9,29.65,NE,36,2.0,8.0,96,0.01,,CLR,0.04,VWS V14.01,2013-04-18 08:31:00,
2013-04-18 03:32:00,32.9,31.9,29.65,NE,36,2.0,8.0,96,0.01,,CLR,0.04,VWS V14.01,2013-04-18 08:32:00,
2013-04-18 03:33:00,33.1,32.1,29.65,NNE,31,0.0,8.0,96,0.01,,CLR,0.04,VWS V14.01,2013-04-18 08:33:00,
2013-04-18 03:34:00,32.9,31.9,29.65,NNE,33,3.0,8.0,96,0.01,,CLR,0.04,VWS V14.01,2013-04-18 08:34:00,
2013-04-18 03:35:00,32.9,31.9,29.65,NE,48,7.0,8.0,96,0.01,,CLR,0.04,VWS V14.01,2013-04-18 08:35:00,
2013-04-18 03:36:00,32.9,31.9,29.65,NE,36,5.0,10.0,96,0.01,,CLR,0.04,VWS V14.01,2013-04-18 08:36:00,
2013-04-18 03:37:00,32.9,31.9,29.65,NE,38,4.0,10.0,96,0.01,,CLR,0.04,VWS V14.01,2013-04-18 08:37:00,
2013-04-18 03:38:00,32.9,31.9,29.65,NNE,26,6.0,10.0,96,0.01,,CLR,0.04,VWS V14.01,2013-04-18 08:38:00,
2013-04-18 03:39:00,32.9,31.9,29.65,NNE,27,1.0,10.0,96,0.01,,CLR,0.04,VWS V14.01,2013-04-18 08:39:00,
2013-04-18 03:40:00,32.9,31.9,29.65,NNE,30,9.0,10.0,96,0.01,,CLR,0.04,VWS V14.01,2013-04-18 08:40:00,
2013-04-18 03:41:00,32.9,31.9,29.65,North,358,5.0,11.0,96,0.01,,CLR,0.04,VWS V14.01,2013-04-18 08:41:00,
2013-04-18 03:42:00,32.9,31.9,29.65,North,359,3.0,11.0,96,0.01,,CLR,0.04,VWS V14.01,2013-04-18 08:42:00,
2013-04-18 03:43:00,32.9,31.9,29.65,NNE,12,5.0,11.0,96,0.01,,CLR,0.04,VWS V14.01,2013-04-18 08:43:00,
2013-04-18 03:44:00,32.9,31.9,29.65,NNE,16,3.0,11.0,96,0.01,,CLR,0.04,VWS V14.01,2013-04-18 08:44:00,
2013-04-18 03:45:00,32.9,31.9,29.65,NE,37,9.0,11.0,96,0.01,,CLR,0.04,VWS V14.01,2013-04-18 08:45:00,
2013-04-18 03:46:00,32.9,31.9,29.65,NNE,33,8.0,11.0,96,0.01,,CLR,0.04,VWS V14.01,2013-04-18 08:46:00,
2013-04-18 03:47:00,32.9,31.9,29.65,NNE,23,2.0,11.0,96,0.01,,CLR,0.04,VWS V14.01,2013-04-18 08:47:00,
2013-04-18 03:48:00,32.9,31.9,29.65,NNE,30,5.0,11.0,96,0.01,,CLR,0.04,VWS V14.01,2013-04-18 08:48:00,
2013-04-18 03:49:00,32.8,31.8,29.65,NNE,14,11.0,11.0,96,0.01,,CLR,0.04,VWS V14.01,2013-04-18 08:49:00,
2013-04-18 03:50:00,32.9,31.9,29.65,NNW,334,8.0,13.0,96,0.01,,CLR,0.04,VWS V14.01,2013-04-18 08:50:00,
2013-04-18 03:51:00,32.9,31.9,29.65,North,349,5.0,13.0,96,0.01,,CLR,0.04,VWS V14.01,2013-04-18 08:51:00,
2013-04-18 03:52:00,32.9,31.9,29.65,NE,47,9.0,13.0,96,0.01,,CLR,0.04,VWS V14.01,2013-04-18 08:52:00,
2013-04-18 03:53:00,32.9,31.9,29.65,North,2,7.0,13.0,96,0.01,,CLR,0.04,VWS V14.01,2013-04-18 08:53:00,
2013-04-18 03:54:00,32.9,31.9,29.65,North,3,6.0,13.0,96,0.01,,CLR,0.04,VWS V14.01,2013-04-18 08:54:00,
2013-04-18 03:55:00,32.9,31.9,29.65,NNE,13,10.0,13.0,96,0.01,,CLR,0.04,VWS V14.01,2013-04-18 08:55:00,
2013-04-18 03:56:00,32.8,31.8,29.65,NNW,328,10.0,13.0,96,0.01,,CLR,0.04,VWS V14.01,2013-04-18 08:56:00,
2013-04-18 03:57:00,32.8,31.8,29.65,NNE,31,8.0,13.0,96,0.01,,CLR,0.04,VWS V14.01,2013-04-18 08:57:00,
2013-04-18 03:58:00,32.8,32.0,29.65,NNE,22,5.0,13.0,97,0.01,,CLR,0.04,VWS V14.01,2013-04-18 08:58:00,
2013-04-18 03:59:00,32.8,32.0,29.65,NE,37,9.0,13.0,97,0.01,,CLR,0.04,VWS V14.01,2013-04-18 08:59:00,
2013-04-18 04:00:00,32.8,32.0,29.64,North,358,2.0,13.0,97,0.01,,CLR,0.04,VWS V14.01,2013-04-18 09:00:00,
2013-04-18 04:01:00,32.8,32.0,29.64,NNE,22,0.0,8.0,97,0.01,,CLR,0.04,VWS V14.01,2013-04-18 09:01:00,
2013-04-18 04:02:00,32.8,32.0,29.64,NNW,334,6.0,11.0,97,0.01,,CLR,0.04,VWS V14.01,2013-04-18 09:02:00,
2013-04-18 04:03:00,32.8,32.0,29.64,NW,321,2.0,12.0,97,0.01,,CLR,0.04,VWS V14.01,2013-04-18 09:03:00,
2013-04-18 04:04:00,32.8,32.0,29.64,NNE,19,9.0,12.0,97,0.01,,CLR,0.04,VWS V14.01,2013-04-18 09:04:00,
2013-04-18 04:05:00,32.8,32.0,29.64,North,6,1.0,14.0,97,0.01,,CLR,0.04,VWS V14.01,2013-04-18 09:05:00,
2013-04-18 04:06:00,32.8,32.0,29.64,North,353,5.0,14.0,97,0.01,,CLR,0.04,VWS V14.01,2013-04-18 09:06:00,
2013-04-18 04:07:00,32.8,32.0,29.64,NNE,22,10.0,14.0,97,0.01,,CLR,0.04,VWS V14.01,2013-04-18 09:07:00,
2013-04-18 04:08:00,32.8,32.0,29.64,NNE,14,10.0,14.0,97,0.01,,CLR,0.04,VWS V14.01,2013-04-18 09:08:00,
2013-04-18 04:09:00,32.7,31.9,29.64,North,352,10.0,14.0,97,0.01,,CLR,0.04,VWS V14.01,2013-04-18 09:09:00,
2013-04-18 04:10:00,32.8,32.0,29.64,NNE,20,6.0,14.0,97,0.02,,CLR,0.05,VWS V14.01,2013-04-18 09:10:00,
2013-04-18 04:11:00,32.8,32.0,29.64,North,358,6.0,14.0,97,0.02,,CLR,0.05,VWS V14.01,2013-04-18 09:11:00,
2013-04-18 04:12:00,32.7,31.9,29.64,NNW,334,7.0,14.0,97,0.02,,CLR,0.05,VWS V14.01,2013-04-18 09:12:00,
2013-04-18 04:13:00,32.8,32.0,29.64,NNW,345,0.0,14.0,97,0.02,,CLR,0.05,VWS V14.01,2013-04-18 09:13:00,
2013-04-18 04:14:00,32.8,32.0,29.64,NNE,30,14.0,14.0,97,0.02,,CLR,0.05,VWS V14.01,2013-04-18 09:14:00,
2013-04-18 04:15:00,32.7,31.9,29.66,NNE,12,0.0,14.0,97,0.02,,CLR,0.05,VWS V14.01,2013-04-18 09:15:00,
2013-04-18 04:16:00,32.7,31.9,29.66,NNW,348,10.0,14.0,97,0.02,,CLR,0.05,VWS V14.01,2013-04-18 09:16:00,
2013-04-18 04:17:00,32.7,31.9,29.66,NNW,346,2.0,14.0,97,0.02,,CLR,0.05,VWS V14.01,2013-04-18 09:17:00,
2013-04-18 04:18:00,32.7,31.9,29.66,North,349,3.0,14.0,97,0.02,,CLR,0.05,VWS V14.01,2013-04-18 09:18:00,
2013-04-18 04:19:00,32.7,31.9,29.66,NNW,341,2.0,14.0,97,0.02,,CLR,0.05,VWS V14.01,2013-04-18 09:19:00,
2013-04-18 04:20:00,32.8,32.0,29.66,NNE,22,6.0,14.0,97,0.02,,CLR,0.05,VWS V14.01,2013-04-18 09:20:00,
2013-04-18 04:21:00,32.8,32.0,29.66,NNW,342,11.0,14.0,97,0.02,,CLR,0.05,VWS V14.01,2013-04-18 09:21:00,
2013-04-18 04:22:00,32.8,32.0,29.66,North,353,5.0,14.0,97,0.02,,CLR,0.05,VWS V14.01,2013-04-18 09:22:00,
2013-04-18 04:23:00,32.8,32.0,29.66,North,355,0.0,14.0,97,0.02,,CLR,0.05,VWS V14.01,2013-04-18 09:23:00,
2013-04-18 04:24:00,32.7,31.9,29.66,NNE,33,10.0,14.0,97,0.02,,CLR,0.05,VWS V14.01,2013-04-18 09:24:00,
2013-04-18 04:25:00,32.8,32.0,29.66,NNW,338,6.0,14.0,97,0.02,,CLR,0.05,VWS V14.01,2013-04-18 09:25:00,
2013-04-18 04:26:00,32.8,32.0,29.66,North,353,11.0,14.0,97,0.02,,CLR,0.05,VWS V14.01,2013-04-18 09:26:00,
2013-04-18 04:27:00,32.7,31.9,29.66,North,5,7.0,14.0,97,0.02,,CLR,0.05,VWS V14.01,2013-04-18 09:27:00,
2013-04-18 04:28:00,32.8,32.0,29.66,North,2,4.0,14.0,97,0.02,,CLR,0.05,VWS V14.01,2013-04-18 09:28:00,
2013-04-18 04:29:00,32.7,31.9,29.66,NW,310,2.0,14.0,97,0.02,,CLR,0.05,VWS V14.01,2013-04-18 09:29:00,
2013-04-18 04:30:00,32.8,32.0,29.65,NNE,12,8.0,14.0,97,0.02,,CLR,0.05,VWS V14.01,2013-04-18 09:30:00,
2013-04-18 04:31:00,32.7,31.9,29.65,North,10,8.0,13.0,97,0.01,,CLR,0.05,VWS V14.01,2013-04-18 09:31:00,
2013-04-18 04:32:00,32.8,32.0,29.65,NW,326,4.0,13.0,97,0.01,,CLR,0.05,VWS V14.01,2013-04-18 09:32:00,
2013-04-18 04:33:00,32.7,31.9,29.65,North,356,1.0,13.0,97,0.01,,CLR,0.05,VWS V14.01,2013-04-18 09:33:00,
2013-04-18 04:34:00,32.8,32.0,29.65,NNE,19,7.0,13.0,97,0.01,,CLR,0.05,VWS V14.01,2013-04-18 09:34:00,
2013-04-18 04:35:00,32.7,31.9,29.65,NW,322,0.0,13.0,97,0.01,,CLR,0.05,VWS V14.01,2013-04-18 09:35:00,
2013-04-18 04:36:00,32.7,31.9,29.65,NNW,335,0.0,13.0,97,0.01,,CLR,0.05,VWS V14.01,2013-04-18 09:36:00,
2013-04-18 04:37:00,32.7,31.9,29.65,NNW,334,2.0,13.0,97,0.01,,CLR,0.05,VWS V14.01,2013-04-18 09:37:00,
2013-04-18 04:38:00,32.7,31.9,29.65,North,355,6.0,13.0,97,0.01,,CLR,0.05,VWS V14.01,2013-04-18 09:38:00,
2013-04-18 04:39:00,32.7,31.9,29.65,North,353,0.0,13.0,97,0.01,,CLR,0.05,VWS V14.01,2013-04-18 09:39:00,
2013-04-18 04:40:00,32.7,31.9,29.65,NNW,341,7.0,13.0,97,0.01,,CLR,0.05,VWS V14.01,2013-04-18 09:40:00,
2013-04-18 04:41:00,32.7,31.9,29.65,NNW,329,8.0,13.0,97,0.01,,CLR,0.05,VWS V14.01,2013-04-18 09:41:00,
2013-04-18 04:42:00,32.7,31.9,29.65,North,349,12.0,13.0,97,0.01,,CLR,0.05,VWS V14.01,2013-04-18 09:42:00,
2013-04-18 04:43:00,32.7,31.9,29.65,NNE,30,8.0,13.0,97,0.01,,CLR,0.05,VWS V14.01,2013-04-18 09:43:00,
2013-04-18 04:44:00,32.7,31.9,29.65,North,355,1.0,13.0,97,0.01,,CLR,0.05,VWS V14.01,2013-04-18 09:44:00,
2013-04-18 04:45:00,32.7,31.9,29.66,NNW,345,6.0,13.0,97,0.01,,CLR,0.05,VWS V14.01,2013-04-18 09:45:00,
2013-04-18 04:46:00,32.5,31.7,29.66,NNW,334,2.0,13.0,97,0.01,,CLR,0.05,VWS V14.01,2013-04-18 09:46:00,
2013-04-18 04:47:00,32.7,31.9,29.66,NE,40,10.0,13.0,97,0.01,,CLR,0.05,VWS V14.01,2013-04-18 09:47:00,
2013-04-18 04:48:00,32.5,31.7,29.66,NNE,33,7.0,13.0,97,0.01,,CLR,0.05,VWS V14.01,2013-04-18 09:48:00,
2013-04-18 04:49:00,32.5,31.7,29.66,NNW,338,2.0,15.0,97,0.01,,CLR,0.05,VWS V14.01,2013-04-18 09:49:00,
2013-04-18 04:50:00,32.5,31.7,29.66,NNW,336,1.0,15.0,97,0.01,,CLR,0.05,VWS V14.01,2013-04-18 09:50:00,
2013-04-18 04:51:00,32.5,31.7,29.66,North,3,7.0,15.0,97,0.01,,CLR,0.05,VWS V14.01,2013-04-18 09:51:00,
2013-04-18 04:52:00,32.5,31.7,29.66,NNE,12,10.0,15.0,97,0.01,,CLR,0.05,VWS V14.01,2013-04-18 09:52:00,
2013-04-18 04:53:00,32.4,31.6,29.66,North,356,1.0,15.0,97,0.01,,CLR,0.05,VWS V14.01,2013-04-18 09:53:00,
2013-04-18 04:54:00,32.5,31.7,29.66,North,356,5.0,15.0,97,0.01,,CLR,0.05,VWS V14.01,2013-04-18 09:54:00,
2013-04-18 04:55:00,32.5,31.7,29.66,NE,46,17.0,17.0,97,0.01,,CLR,0.05,VWS V14.01,2013-04-18 09:55:00,
2013-04-18 04:56:00,32.4,31.6,29.66,NNW,348,8.0,17.0,97,0.01,,CLR,0.05,VWS V14.01,2013-04-18 09:56:00,
2013-04-18 04:57:00,32.4,31.6,29.66,NNE,27,11.0,17.0,97,0.01,,CLR,0.05,VWS V14.01,2013-04-18 09:57:00,
2013-04-18 04:58:00,32.4,31.6,29.66,NNE,13,6.0,17.0,97,0.01,,CLR,0.05,VWS V14.01,2013-04-18 09:58:00,
2013-04-18 04:59:00,32.4,31.6,29.66,NNE,27,11.0,17.0,97,0.01,,CLR,0.05,VWS V14.01,2013-04-18 09:59:00,
2013-04-18 05:00:00,32.4,31.6,29.65,NNE,19,9.0,17.0,97,0.01,,CLR,0.05,VWS V14.01,2013-04-18 10:00:00,
2013-04-18 05:01:00,32.4,31.6,29.65,NNE,27,10.0,11.0,97,0.01,,CLR,0.05,VWS V14.01,2013-04-18 10:01:00,
2013-04-18 05:02:00,32.2,31.5,29.65,NE,36,13.0,17.0,97,0.01,,CLR,0.05,VWS V14.01,2013-04-18 10:02:00,
2013-04-18 05:03:00,32.4,31.6,29.65,NNE,23,7.0,17.0,97,0.01,,CLR,0.05,VWS V14.01,2013-04-18 10:03:00,
2013-04-18 05:04:00,32.2,31.5,29.65,NNE,24,13.0,17.0,97,0.01,,CLR,0.05,VWS V14.01,2013-04-18 10:04:00,
2013-04-18 05:05:00,32.2,31.5,29.65,NNE,29,8.0,17.0,97,0.01,,CLR,0.05,VWS V14.01,2013-04-18 10:05:00,
2013-04-18 05:06:00,32.2,31.5,29.65,NE,36,11.0,17.0,97,0.01,,CLR,0.05,VWS V14.01,2013-04-18 10:06:00,
2013-04-18 05:07:00,32.2,31.5,29.65,North,350,1.0,17.0,97,0.01,,CLR,0.05,VWS V14.01,2013-04-18 10:07:00,
2013-04-18 05:08:00,32.2,31.5,29.65,NE,53,8.0,17.0,97,0.01,,CLR,0.05,VWS V14.01,2013-04-18 10:08:00,
2013-04-18 05:09:00,32.2,31.5,29.65,NNE,31,11.0,17.0,97,0.01,,CLR,0.05,VWS V14.01,2013-04-18 10:09:00,
2013-04-18 05:10:00,32.2,31.5,29.65,NNE,22,8.0,17.0,97,0.01,,CLR,0.05,VWS V14.01,2013-04-18 10:10:00,
2013-04-18 05:11:00,32.2,31.5,29.65,NE,40,8.0,19.0,97,0.01,,CLR,0.05,VWS V14.01,2013-04-18 10:11:00,
2013-04-18 05:12:00,32.1,31.4,29.65,NE,38,6.0,19.0,97,0.01,,CLR,0.05,VWS V14.01,2013-04-18 10:12:00,
2013-04-18 05:13:00,32.2,31.5,29.65,NE,36,6.0,19.0,97,0.01,,CLR,0.05,VWS V14.01,2013-04-18 10:13:00,
2013-04-18 05:14:00,32.2,31.5,29.65,NNE,19,10.0,19.0,97,0.01,,CLR,0.05,VWS V14.01,2013-04-18 10:14:00,
2013-04-18 05:15:00,32.2,31.5,29.62,NNE,31,8.0,19.0,97,0.01,,CLR,0.05,VWS V14.01,2013-04-18 10:15:00,
2013-04-18 05:16:00,32.1,31.4,29.62,NE,48,8.0,19.0,97,0.01,,CLR,0.05,VWS V14.01,2013-04-18 10:16:00,
2013-04-18 05:17:00,32.1,31.4,29.62,NE,48,11.0,19.0,97,0.01,,CLR,0.05,VWS V14.01,2013-04-18 10:17:00,
2013-04-18 05:18:00,32.1,31.4,29.62,NE,40,6.0,19.0,97,0.01,,CLR,0.05,VWS V14.01,2013-04-18 10:18:00,
2013-04-18 05:19:00,32.1,31.4,29.62,NNE,26,5.0,19.0,97,0.01,,CLR,0.05,VWS V14.01,2013-04-18 10:19:00,
2013-04-18 05:20:00,32.1,31.4,29.62,NNE,24,8.0,19.0,97,0.01,,CLR,0.05,VWS V14.01,2013-04-18 10:20:00,
2013-04-18 05:21:00,32.1,31.4,29.62,NE,46,10.0,19.0,97,0.01,,CLR,0.05,VWS V14.01,2013-04-18 10:21:00,
2013-04-18 05:22:00,32.1,31.4,29.62,NNE,23,17.0,19.0,97,0.01,,CLR,0.05,VWS V14.01,2013-04-18 10:22:00,
2013-04-18 05:23:00,32.1,31.4,29.62,NNE,17,10.0,19.0,97,0.01,,CLR,0.05,VWS V14.01,2013-04-18 10:23:00,
2013-04-18 05:24:00,32.1,31.4,29.62,NNE,33,10.0,19.0,97,0.01,,CLR,0.05,VWS V14.01,2013-04-18 10:24:00,
2013-04-18 05:25:00,32.1,31.4,29.62,NE,53,11.0,19.0,97,0.01,,CLR,0.05,VWS V14.01,2013-04-18 10:25:00,
2013-04-18 05:26:00,32.1,31.4,29.62,NE,38,11.0,19.0,97,0.01,,CLR,0.05,VWS V14.01,2013-04-18 10:26:00,
2013-04-18 05:27:00,32.1,31.4,29.62,North,5,8.0,19.0,97,0.01,,CLR,0.05,VWS V14.01,2013-04-18 10:27:00,
2013-04-18 05:28:00,32.1,31.4,29.62,NNE,16,11.0,19.0,97,0.01,,CLR,0.05,VWS V14.01,2013-04-18 10:28:00,
2013-04-18 05:29:00,31.9,31.1,29.62,North,6,7.0,19.0,97,0.01,,CLR,0.05,VWS V14.01,2013-04-18 10:29:00,
2013-04-18 05:30:00,32.1,31.4,29.61,NE,36,6.0,19.0,97,0.01,,CLR,0.05,VWS V14.01,2013-04-18 10:30:00,
2013-04-18 05:31:00,32.1,31.4,29.61,NE,40,9.0,11.0,97,0.00,,CLR,0.05,VWS V14.01,2013-04-18 10:31:00,
2013-04-18 05:32:00,31.9,31.1,29.61,NNE,12,11.0,19.0,97,0.00,,CLR,0.05,VWS V14.01,2013-04-18 10:32:00,
2013-04-18 05:33:00,32.1,31.4,29.61,NNW,345,2.0,19.0,97,0.00,,CLR,0.05,VWS V14.01,2013-04-18 10:33:00,
2013-04-18 05:34:00,32.1,31.4,29.61,NNE,26,11.0,19.0,97,0.00,,CLR,0.05,VWS V14.01,2013-04-18 10:34:00,
2013-04-18 05:35:00,31.9,31.1,29.61,NE,51,15.0,19.0,97,0.00,,CLR,0.05,VWS V14.01,2013-04-18 10:35:00,
2013-04-18 05:36:00,32.1,31.4,29.61,NE,44,5.0,19.0,97,0.00,,CLR,0.05,VWS V14.01,2013-04-18 10:36:00,
2013-04-18 05:37:00,32.1,31.4,29.61,NNE,16,14.0,19.0,97,0.00,,CLR,0.05,VWS V14.01,2013-04-18 10:37:00,
2013-04-18 05:38:00,32.1,31.4,29.61,North,10,10.0,19.0,97,0.00,,CLR,0.05,VWS V14.01,2013-04-18 10:38:00,
2013-04-18 05:39:00,32.1,31.4,29.61,NE,44,8.0,19.0,97,0.00,,CLR,0.05,VWS V14.01,2013-04-18 10:39:00,
2013-04-18 05:40:00,32.1,31.4,29.61,NE,38,6.0,19.0,97,0.00,,CLR,0.05,VWS V14.01,2013-04-18 10:40:00,
2013-04-18 05:41:00,32.1,31.4,29.61,NNE,33,10.0,19.0,97,0.00,,CLR,0.05,VWS V14.01,2013-04-18 10:41:00,
2013-04-18 05:42:00,32.1,31.4,29.61,NNE,26,12.0,19.0,97,0.00,,CLR,0.05,VWS V14.01,2013-04-18 10:42:00,
2013-04-18 05:43:00,32.1,31.4,29.61,NNE,26,13.0,19.0,97,0.00,,CLR,0.05,VWS V14.01,2013-04-18 10:43:00,
2013-04-18 05:44:00,32.1,31.4,29.61,NE,36,14.0,19.0,97,0.00,,CLR,0.05,VWS V14.01,2013-04-18 10:44:00,
2013-04-18 05:45:00,32.1,31.4,29.61,NNE,12,6.0,19.0,97,0.00,,CLR,0.05,VWS V14.01,2013-04-18 10:45:00,
2013-04-18 05:46:00,32.1,31.4,29.61,ENE,57,8.0,21.0,97,0.00,,CLR,0.05,VWS V14.01,2013-04-18 10:46:00,
2013-04-18 05:47:00,32.1,31.4,29.61,NE,48,11.0,21.0,97,0.00,,CLR,0.05,VWS V14.01,2013-04-18 10:47:00,
2013-04-18 05:48:00,32.1,31.4,29.61,NE,37,11.0,21.0,97,0.00,,CLR,0.05,VWS V14.01,2013-04-18 10:48:00,
2013-04-18 05:49:00,32.1,31.1,29.61,NNE,33,11.0,21.0,96,0.00,,CLR,0.05,VWS V14.01,2013-04-18 10:49:00,
2013-04-18 05:50:00,32.1,31.4,29.61,NNE,27,13.0,21.0,97,0.00,,CLR,0.05,VWS V14.01,2013-04-18 10:50:00,
2013-04-18 05:51:00,32.1,31.4,29.61,NE,46,11.0,21.0,97,0.00,,CLR,0.05,VWS V14.01,2013-04-18 10:51:00,
2013-04-18 05:52:00,32.1,31.1,29.61,NE,47,10.0,21.0,96,0.00,,CLR,0.05,VWS V14.01,2013-04-18 10:52:00,
2013-04-18 05:53:00,32.1,31.1,29.61,NE,51,10.0,21.0,96,0.00,,CLR,0.05,VWS V14.01,2013-04-18 10:53:00,
2013-04-18 05:54:00,32.1,31.1,29.61,NE,50,10.0,21.0,96,0.00,,CLR,0.05,VWS V14.01,2013-04-18 10:54:00,
2013-04-18 05:55:00,31.9,30.9,29.61,NE,50,10.0,21.0,96,0.00,,CLR,0.05,VWS V14.01,2013-04-18 10:55:00,
2013-04-18 05:56:00,31.9,30.9,29.61,NE,50,11.0,21.0,96,0.00,,CLR,0.05,VWS V14.01,2013-04-18 10:56:00,
2013-04-18 05:57:00,31.9,30.9,29.61,NE,50,11.0,21.0,96,0.00,,CLR,0.05,VWS V14.01,2013-04-18 10:57:00,
2013-04-18 05:58:00,32.1,31.1,29.61,NE,50,7.0,21.0,96,0.00,,CLR,0.05,VWS V14.01,2013-04-18 10:58:00,
2013-04-18 05:59:00,32.1,31.1,29.61,NE,50,14.0,21.0,96,0.00,,CLR,0.05,VWS V14.01,2013-04-18 10:59:00,
2013-04-18 06:00:00,31.9,30.9,29.58,NE,50,16.0,21.0,96,0.00,,CLR,0.05,VWS V14.01,2013-04-18 11:00:00,
2013-04-18 06:01:00,32.1,31.1,29.58,NE,50,8.0,17.0,96,0.00,,CLR,0.05,VWS V14.01,2013-04-18 11:01:00,
2013-04-18 06:02:00,32.1,31.1,29.58,NE,50,7.0,17.0,96,0.00,,CLR,0.05,VWS V14.01,2013-04-18 11:02:00,
2013-04-18 06:03:00,31.9,30.9,29.58,NE,50,7.0,17.0,96,0.00,,CLR,0.05,VWS V14.01,2013-04-18 11:03:00,
2013-04-18 06:04:00,31.9,30.9,29.58,NE,50,11.0,17.0,96,0.00,,CLR,0.05,VWS V14.01,2013-04-18 11:04:00,
2013-04-18 06:05:00,31.9,30.9,29.58,NE,50,19.0,19.0,96,0.00,,CLR,0.05,VWS V14.01,2013-04-18 11:05:00,
2013-04-18 06:06:00,31.9,30.9,29.58,NE,50,6.0,19.0,96,0.00,,CLR,0.05,VWS V14.01,2013-04-18 11:06:00,
2013-04-18 06:07:00,31.9,30.9,29.58,NE,50,6.0,19.0,96,0.00,,CLR,0.05,VWS V14.01,2013-04-18 11:07:00,
2013-04-18 06:08:00,32.1,31.1,29.58,NE,50,8.0,19.0,96,0.00,,CLR,0.05,VWS V14.01,2013-04-18 11:08:00,
2013-04-18 06:09:00,32.1,31.1,29.58,NE,50,7.0,19.0,96,0.00,,CLR,0.05,VWS V14.01,2013-04-18 11:09:00,
2013-04-18 06:10:00,31.9,30.9,29.58,NE,50,9.0,19.0,96,0.00,,CLR,0.05,VWS V14.01,2013-04-18 11:10:00,
2013-04-18 06:11:00,32.1,31.1,29.58,NE,50,3.0,19.0,96,0.00,,CLR,0.05,VWS V14.01,2013-04-18 11:11:00,
2013-04-18 06:12:00,32.1,31.1,29.58,NE,50,12.0,19.0,96,0.00,,CLR,0.05,VWS V14.01,2013-04-18 11:12:00,
2013-04-18 06:13:00,32.1,31.1,29.58,NE,50,11.0,19.0,96,0.00,,CLR,0.05,VWS V14.01,2013-04-18 11:13:00,
2013-04-18 06:14:00,32.1,31.1,29.58,NE,50,7.0,19.0,96,0.00,,CLR,0.05,VWS V14.01,2013-04-18 11:14:00,
2013-04-18 06:15:00,32.1,31.1,29.60,NE,50,2.0,19.0,96,0.00,,CLR,0.05,VWS V14.01,2013-04-18 11:15:00,
2013-04-18 06:16:00,32.1,31.1,29.60,NE,50,12.0,19.0,96,0.00,,CLR,0.05,VWS V14.01,2013-04-18 11:16:00,
2013-04-18 06:17:00,32.1,31.1,29.60,NE,50,8.0,19.0,96,0.00,,CLR,0.05,VWS V14.01,2013-04-18 11:17:00,
2013-04-18 06:18:00,32.1,31.1,29.60,NE,50,5.0,19.0,96,0.00,,CLR,0.05,VWS V14.01,2013-04-18 11:18:00,
2013-04-18 06:19:00,32.1,31.1,29.60,NE,50,12.0,19.0,96,0.00,,CLR,0.05,VWS V14.01,2013-04-18 11:19:00,
2013-04-18 06:20:00,32.1,31.1,29.60,NE,50,11.0,19.0,96,0.00,,CLR,0.05,VWS V14.01,2013-04-18 11:20:00,
2013-04-18 06:21:00,32.1,31.1,29.60,NE,50,10.0,19.0,96,0.00,,CLR,0.05,VWS V14.01,2013-04-18 11:21:00,
2013-04-18 06:22:00,31.9,30.9,29.60,NE,50,11.0,19.0,96,0.00,,CLR,0.05,VWS V14.01,2013-04-18 11:22:00,
2013-04-18 06:23:00,31.9,30.9,29.60,NE,50,11.0,19.0,96,0.00,,CLR,0.05,VWS V14.01,2013-04-18 11:23:00,
2013-04-18 06:24:00,32.1,31.1,29.60,NE,50,10.0,19.0,96,0.00,,CLR,0.05,VWS V14.01,2013-04-18 11:24:00,
2013-04-18 06:25:00,32.1,31.1,29.60,NE,50,7.0,19.0,96,0.00,,CLR,0.05,VWS V14.01,2013-04-18 11:25:00,
2013-04-18 06:26:00,31.9,30.9,29.60,NE,50,4.0,19.0,96,0.00,,CLR,0.05,VWS V14.01,2013-04-18 11:26:00,
2013-04-18 06:27:00,32.1,31.1,29.60,NE,50,3.0,19.0,96,0.00,,CLR,0.05,VWS V14.01,2013-04-18 11:27:00,
2013-04-18 06:28:00,32.1,31.1,29.60,NE,50,9.0,19.0,96,0.00,,CLR,0.05,VWS V14.01,2013-04-18 11:28:00,
2013-04-18 06:29:00,32.1,31.1,29.60,NE,50,10.0,19.0,96,0.00,,CLR,0.05,VWS V14.01,2013-04-18 11:29:00,
2013-04-18 06:30:00,31.9,30.9,29.61,NE,50,6.0,19.0,96,0.00,,CLR,0.05,VWS V14.01,2013-04-18 11:30:00,
2013-04-18 06:31:00,31.9,30.9,29.61,NE,50,9.0,16.0,96,0.00,,CLR,0.05,VWS V14.01,2013-04-18 11:31:00,
2013-04-18 06:32:00,31.9,30.9,29.61,NE,50,11.0,16.0,96,0.00,,CLR,0.05,VWS V14.01,2013-04-18 11:32:00,
2013-04-18 06:33:00,31.9,30.9,29.61,NE,50,7.0,16.0,96,0.00,,CLR,0.05,VWS V14.01,2013-04-18 11:33:00,
2013-04-18 06:34:00,31.9,30.9,29.61,NE,50,8.0,16.0,96,0.00,,CLR,0.05,VWS V14.01,2013-04-18 11:34:00,
2013-04-18 06:35:00,31.9,30.9,29.61,NE,50,7.0,16.0,96,0.00,,CLR,0.05,VWS V14.01,2013-04-18 11:35:00,
2013-04-18 06:36:00,31.9,30.9,29.61,NE,50,7.0,16.0,96,0.00,,CLR,0.05,VWS V14.01,2013-04-18 11:36:00,
2013-04-18 06:37:00,31.9,30.9,29.61,NE,50,13.0,16.0,96,0.00,,CLR,0.05,VWS V14.01,2013-04-18 11:37:00,
2013-04-18 06:38:00,31.9,30.9,29.61,NE,50,14.0,16.0,96,0.00,,CLR,0.05,VWS V14.01,2013-04-18 11:38:00,
2013-04-18 06:39:00,31.9,30.9,29.61,NE,50,13.0,17.0,96,0.00,,CLR,0.05,VWS V14.01,2013-04-18 11:39:00,
2013-04-18 06:40:00,31.9,30.9,29.61,NE,50,9.0,17.0,96,0.00,,CLR,0.05,VWS V14.01,2013-04-18 11:40:00,
2013-04-18 06:41:00,31.9,30.9,29.61,NE,50,7.0,17.0,96,0.00,,CLR,0.05,VWS V14.01,2013-04-18 11:41:00,
2013-04-18 06:42:00,31.9,30.9,29.61,NE,50,11.0,17.0,96,0.00,,CLR,0.05,VWS V14.01,2013-04-18 11:42:00,
2013-04-18 06:43:00,31.9,30.9,29.61,NE,50,8.0,17.0,96,0.00,,CLR,0.05,VWS V14.01,2013-04-18 11:43:00,
2013-04-18 06:44:00,31.9,30.9,29.61,NE,50,10.0,17.0,96,0.00,,CLR,0.05,VWS V14.01,2013-04-18 11:44:00,
2013-04-18 06:45:00,31.9,30.9,29.58,NE,50,10.0,17.0,96,0.00,,CLR,0.05,VWS V14.01,2013-04-18 11:45:00,
2013-04-18 06:46:00,31.9,30.9,29.58,NE,50,12.0,17.0,96,0.00,,CLR,0.05,VWS V14.01,2013-04-18 11:46:00,
2013-04-18 06:47:00,31.9,30.9,29.58,NE,50,3.0,17.0,96,0.00,,CLR,0.05,VWS V14.01,2013-04-18 11:47:00,
2013-04-18 06:48:00,31.9,30.9,29.58,NE,50,11.0,17.0,96,0.00,,CLR,0.05,VWS V14.01,2013-04-18 11:48:00,
2013-04-18 06:49:00,31.9,30.9,29.58,NE,50,15.0,17.0,96,0.00,,CLR,0.05,VWS V14.01,2013-04-18 11:49:00,
2013-04-18 06:50:00,31.9,30.9,29.58,NE,50,7.0,19.0,96,0.00,,CLR,0.05,VWS V14.01,2013-04-18 11:50:00,
2013-04-18 06:51:00,31.9,30.9,29.58,NE,50,3.0,19.0,96,0.00,,CLR,0.05,VWS V14.01,2013-04-18 11:51:00,
2013-04-18 06:52:00,31.9,30.9,29.58,NE,50,10.0,19.0,96,0.00,,CLR,0.05,VWS V14.01,2013-04-18 11:52:00,
2013-04-18 06:53:00,31.8,30.8,29.58,NE,50,11.0,19.0,96,0.00,,CLR,0.05,VWS V14.01,2013-04-18 11:53:00,
2013-04-18 06:54:00,31.8,30.8,29.58,NE,50,11.0,19.0,96,0.00,,CLR,0.05,VWS V14.01,2013-04-18 11:54:00,
2013-04-18 06:55:00,31.8,30.8,29.58,NE,50,12.0,20.0,96,0.00,,CLR,0.05,VWS V14.01,2013-04-18 11:55:00,
2013-04-18 06:56:00,31.8,30.8,29.58,NE,50,13.0,20.0,96,0.00,,CLR,0.05,VWS V14.01,2013-04-18 11:56:00,
2013-04-18 06:57:00,31.8,30.8,29.58,NE,50,16.0,20.0,96,0.00,,CLR,0.05,VWS V14.01,2013-04-18 11:57:00,
2013-04-18 06:58:00,31.8,30.8,29.58,NE,50,17.0,20.0,96,0.00,,CLR,0.05,VWS V14.01,2013-04-18 11:58:00,
2013-04-18 06:59:00,31.8,30.8,29.58,NE,50,9.0,20.0,96,0.00,,CLR,0.05,VWS V14.01,2013-04-18 11:59:00,
2013-04-18 07:00:00,31.8,30.8,29.57,NE,50,14.0,20.0,96,0.00,,CLR,0.05,VWS V14.01,2013-04-18 12:00:00,
2013-04-18 07:01:00,31.8,30.8,29.57,NE,50,2.0,11.0,96,0.00,,CLR,0.05,VWS V14.01,2013-04-18 12:01:00,
2013-04-18 07:02:00,31.8,30.8,29.57,NE,50,15.0,17.0,96,0.00,,CLR,0.05,VWS V14.01,2013-04-18 12:02:00,
2013-04-18 07:03:00,31.8,30.8,29.57,NE,50,7.0,17.0,96,0.00,,CLR,0.05,VWS V14.01,2013-04-18 12:03:00,
2013-04-18 07:04:00,31.8,30.8,29.57,NE,50,8.0,17.0,96,0.00,,CLR,0.05,VWS V14.01,2013-04-18 12:04:00,
2013-04-18 07:05:00,31.8,30.8,29.57,NE,50,8.0,17.0,96,0.00,,CLR,0.05,VWS V14.01,2013-04-18 12:05:00,
2013-04-18 07:06:00,31.8,30.8,29.57,NE,50,13.0,17.0,96,0.00,,CLR,0.05,VWS V14.01,2013-04-18 12:06:00,
2013-04-18 07:07:00,31.8,30.8,29.57,NE,50,10.0,17.0,96,0.00,,CLR,0.05,VWS V14.01,2013-04-18 12:07:00,
2013-04-18 07:08:00,31.8,30.8,29.57,NE,50,11.0,17.0,96,0.00,,CLR,0.05,VWS V14.01,2013-04-18 12:08:00,
2013-04-18 07:09:00,31.8,30.8,29.57,NE,50,14.0,17.0,96,0.00,,CLR,0.05,VWS V14.01,2013-04-18 12:09:00,
2013-04-18 07:10:00,31.8,30.8,29.57,NE,50,7.0,17.0,96,0.00,,CLR,0.05,VWS V14.01,2013-04-18 12:10:00,
2013-04-18 07:11:00,31.8,30.8,29.57,NE,50,4.0,17.0,96,0.00,,CLR,0.05,VWS V14.01,2013-04-18 12:11:00,
2013-04-18 07:12:00,31.8,30.8,29.57,NE,50,11.0,17.0,96,0.00,,CLR,0.05,VWS V14.01,2013-04-18 12:12:00,
2013-04-18 07:13:00,31.8,30.8,29.57,NE,50,11.0,17.0,96,0.00,,CLR,0.05,VWS V14.01,2013-04-18 12:13:00,
2013-04-18 07:14:00,31.8,30.8,29.57,NE,50,14.0,17.0,96,0.00,,CLR,0.05,VWS V14.01,2013-04-18 12:14:00,
2013-04-18 07:15:00,31.8,30.8,29.60,NE,50,14.0,20.0,96,0.00,,CLR,0.05,VWS V14.01,2013-04-18 12:15:00,
2013-04-18 07:16:00,31.8,30.8,29.60,NE,50,1.0,20.0,96,0.00,,CLR,0.05,VWS V14.01,2013-04-18 12:16:00,
2013-04-18 07:17:00,31.8,30.8,29.60,NE,50,11.0,20.0,96,0.00,,CLR,0.05,VWS V14.01,2013-04-18 12:17:00,
2013-04-18 07:18:00,31.8,30.8,29.60,NE,50,10.0,20.0,96,0.00,,CLR,0.05,VWS V14.01,2013-04-18 12:18:00,
2013-04-18 07:19:00,31.8,30.8,29.60,NE,50,11.0,20.0,96,0.00,,CLR,0.05,VWS V14.01,2013-04-18 12:19:00,
2013-04-18 07:20:00,31.8,30.8,29.60,NE,50,11.0,20.0,96,0.00,,CLR,0.05,VWS V14.01,2013-04-18 12:20:00,
2013-04-18 07:21:00,31.8,30.8,29.60,NE,50,10.0,20.0,96,0.00,,CLR,0.05,VWS V14.01,2013-04-18 12:21:00,
2013-04-18 07:22:00,31.8,30.8,29.60,NE,50,10.0,20.0,96,0.00,,CLR,0.05,VWS V14.01,2013-04-18 12:22:00,
2013-04-18 07:23:00,31.8,30.8,29.60,NE,50,11.0,20.0,96,0.00,,CLR,0.05,VWS V14.01,2013-04-18 12:23:00,
2013-04-18 07:24:00,31.8,30.8,29.60,NE,50,12.0,20.0,96,0.00,,CLR,0.05,VWS V14.01,2013-04-18 12:24:00,
2013-04-18 07:25:00,31.8,30.8,29.60,NE,50,12.0,20.0,96,0.00,,CLR,0.05,VWS V14.01,2013-04-18 12:25:00,
2013-04-18 07:26:00,31.8,30.8,29.60,NE,50,11.0,20.0,96,0.00,,CLR,0.05,VWS V14.01,2013-04-18 12:26:00,
2013-04-18 07:27:00,31.8,30.8,29.60,NE,50,7.0,20.0,96,0.00,,CLR,0.05,VWS V14.01,2013-04-18 12:27:00,
2013-04-18 07:28:00,31.8,30.8,29.60,NE,50,0.0,20.0,96,0.00,,CLR,0.05,VWS V14.01,2013-04-18 12:28:00,
2013-04-18 07:29:00,31.8,30.8,29.60,NE,50,13.0,20.0,96,0.00,,CLR,0.05,VWS V14.01,2013-04-18 12:29:00,
2013-04-18 07:30:00,31.8,30.8,29.59,NE,50,6.0,20.0,96,0.00,,CLR,0.05,VWS V14.01,2013-04-18 12:30:00,
2013-04-18 07:31:00,31.8,30.8,29.59,NE,50,11.0,15.0,96,0.00,,CLR,0.05,VWS V14.01,2013-04-18 12:31:00,
2013-04-18 07:32:00,31.8,30.8,29.59,NE,50,13.0,17.0,96,0.00,,CLR,0.05,VWS V14.01,2013-04-18 12:32:00,
2013-04-18 07:33:00,31.6,30.3,29.59,NE,50,8.0,17.0,95,0.00,,CLR,0.05,VWS V14.01,2013-04-18 12:33:00,
2013-04-18 07:34:00,31.6,30.3,29.59,NE,50,12.0,17.0,95,0.00,,CLR,0.05,VWS V14.01,2013-04-18 12:34:00,
2013-04-18 07:35:00,31.6,30.3,29.59,NE,50,13.0,17.0,95,0.00,,CLR,0.05,VWS V14.01,2013-04-18 12:35:00,
2013-04-18 07:36:00,31.6,30.3,29.59,NE,50,8.0,17.0,95,0.00,,CLR,0.05,VWS V14.01,2013-04-18 12:36:00,
2013-04-18 07:37:00,31.6,30.3,29.59,NE,50,12.0,17.0,95,0.00,,CLR,0.05,VWS V14.01,2013-04-18 12:37:00,
2013-04-18 07:38:00,31.6,30.3,29.59,NE,50,9.0,17.0,95,0.00,,CLR,0.05,VWS V14.01,2013-04-18 12:38:00,
2013-04-18 07:39:00,31.6,30.3,29.59,NE,50,6.0,17.0,95,0.00,,CLR,0.05,VWS V14.01,2013-04-18 12:39:00,
2013-04-18 07:40:00,31.6,30.3,29.59,NE,50,20.0,20.0,95,0.00,,CLR,0.05,VWS V14.01,2013-04-18 12:40:00,
2013-04-18 07:41:00,31.6,30.3,29.59,NE,50,7.0,20.0,95,0.00,,CLR,0.05,VWS V14.01,2013-04-18 12:41:00,
2013-04-18 07:42:00,31.6,30.3,29.59,NE,50,11.0,20.0,95,0.00,,CLR,0.05,VWS V14.01,2013-04-18 12:42:00,
2013-04-18 07:43:00,31.6,30.3,29.59,NE,50,6.0,20.0,95,0.00,,CLR,0.05,VWS V14.01,2013-04-18 12:43:00,
2013-04-18 07:44:00,31.6,30.3,29.59,NE,50,8.0,20.0,95,0.00,,CLR,0.05,VWS V14.01,2013-04-18 12:44:00,
2013-04-18 07:45:00,31.6,30.3,29.58,NE,50,16.0,24.0,95,0.00,,CLR,0.05,VWS V14.01,2013-04-18 12:45:00,
2013-04-18 07:46:00,31.5,30.2,29.58,NE,50,12.0,24.0,95,0.00,,CLR,0.05,VWS V14.01,2013-04-18 12:46:00,
2013-04-18 07:47:00,31.5,30.2,29.58,NE,50,12.0,24.0,95,0.00,,CLR,0.05,VWS V14.01,2013-04-18 12:47:00,
2013-04-18 07:48:00,31.5,30.2,29.58,NE,50,11.0,24.0,95,0.00,,CLR,0.05,VWS V14.01,2013-04-18 12:48:00,
2013-04-18 07:49:00,31.6,30.3,29.58,NE,50,11.0,24.0,95,0.00,,CLR,0.05,VWS V14.01,2013-04-18 12:49:00,
2013-04-18 07:50:00,31.5,30.2,29.58,NE,50,18.0,26.0,95,0.00,,CLR,0.05,VWS V14.01,2013-04-18 12:50:00,
2013-04-18 07:51:00,31.5,30.2,29.58,NE,50,19.0,26.0,95,0.00,,CLR,0.05,VWS V14.01,2013-04-18 12:51:00,
2013-04-18 07:52:00,31.5,30.2,29.58,NE,50,11.0,26.0,95,0.00,,CLR,0.05,VWS V14.01,2013-04-18 12:52:00,
2013-04-18 07:53:00,31.5,30.2,29.58,NE,50,9.0,26.0,95,0.00,,CLR,0.05,VWS V14.01,2013-04-18 12:53:00,
2013-04-18 07:54:00,31.5,30.2,29.58,NE,50,13.0,26.0,95,0.00,,CLR,0.05,VWS V14.01,2013-04-18 12:54:00,
2013-04-18 07:55:00,31.5,30.0,29.58,NE,50,8.0,26.0,94,0.00,,CLR,0.05,VWS V14.01,2013-04-18 12:55:00,
2013-04-18 07:56:00,31.5,30.0,29.58,NE,50,11.0,26.0,94,0.00,,CLR,0.05,VWS V14.01,2013-04-18 12:56:00,
2013-04-18 07:57:00,31.5,30.0,29.58,NE,50,14.0,26.0,94,0.00,,CLR,0.05,VWS V14.01,2013-04-18 12:57:00,
2013-04-18 07:58:00,31.5,30.0,29.58,NE,50,13.0,26.0,94,0.00,,CLR,0.05,VWS V14.01,2013-04-18 12:58:00,
2013-04-18 07:59:00,31.5,30.0,29.58,NE,50,10.0,26.0,94,0.00,,CLR,0.05,VWS V14.01,2013-04-18 12:59:00,
2013-04-18 08:00:00,31.5,30.0,29.56,NE,50,11.0,26.0,94,0.00,,CLR,0.05,VWS V14.01,2013-04-18 13:00:00,
2013-04-18 08:01:00,31.5,30.0,29.56,NE,50,15.0,19.0,94,0.00,,CLR,0.05,VWS V14.01,2013-04-18 13:01:00,
2013-04-18 08:02:00,31.5,30.0,29.56,NE,50,19.0,25.0,94,0.00,,CLR,0.05,VWS V14.01,2013-04-18 13:02:00,
2013-04-18 08:03:00,31.5,30.0,29.56,NE,50,17.0,25.0,94,0.00,,CLR,0.05,VWS V14.01,2013-04-18 13:03:00,
2013-04-18 08:04:00,31.5,30.0,29.56,NE,50,12.0,25.0,94,0.00,,CLR,0.05,VWS V14.01,2013-04-18 13:04:00,
2013-04-18 08:05:00,31.5,30.0,29.56,NE,50,11.0,25.0,94,0.00,,CLR,0.05,VWS V14.01,2013-04-18 13:05:00,
2013-04-18 08:06:00,31.5,30.0,29.56,NE,50,10.0,25.0,94,0.00,,CLR,0.05,VWS V14.01,2013-04-18 13:06:00,
2013-04-18 08:07:00,31.5,30.0,29.56,NE,50,5.0,25.0,94,0.00,,CLR,0.05,VWS V14.01,2013-04-18 13:07:00,
2013-04-18 08:08:00,31.5,30.0,29.56,NE,50,12.0,25.0,94,0.00,,CLR,0.05,VWS V14.01,2013-04-18 13:08:00,
2013-04-18 08:09:00,31.5,30.0,29.56,NE,50,10.0,25.0,94,0.00,,CLR,0.05,VWS V14.01,2013-04-18 13:09:00,
2013-04-18 08:10:00,31.5,30.0,29.56,NE,50,12.0,25.0,94,0.00,,CLR,0.05,VWS V14.01,2013-04-18 13:10:00,
2013-04-18 08:11:00,31.5,30.0,29.56,NE,50,13.0,25.0,94,0.00,,CLR,0.05,VWS V14.01,2013-04-18 13:11:00,
2013-04-18 08:12:00,31.5,30.0,29.56,NE,50,11.0,25.0,94,0.00,,CLR,0.05,VWS V14.01,2013-04-18 13:12:00,
2013-04-18 08:13:00,31.5,30.0,29.56,NE,50,12.0,25.0,94,0.00,,CLR,0.05,VWS V14.01,2013-04-18 13:13:00,
2013-04-18 08:14:00,31.5,30.0,29.56,NE,50,12.0,25.0,94,0.00,,CLR,0.05,VWS V14.01,2013-04-18 13:14:00,
2013-04-18 08:15:00,31.5,30.0,29.54,NE,50,16.0,25.0,94,0.00,,CLR,0.05,VWS V14.01,2013-04-18 13:15:00,
2013-04-18 08:16:00,31.5,30.0,29.54,NE,50,8.0,25.0,94,0.00,,CLR,0.05,VWS V14.01,2013-04-18 13:16:00,
2013-04-18 08:17:00,31.5,30.0,29.54,NE,50,19.0,25.0,94,0.00,,CLR,0.05,VWS V14.01,2013-04-18 13:17:00,
2013-04-18 08:18:00,31.5,29.7,29.54,NE,50,8.0,25.0,93,0.00,,CLR,0.05,VWS V14.01,2013-04-18 13:18:00,
2013-04-18 08:19:00,31.5,30.0,29.54,NE,50,16.0,25.0,94,0.00,,CLR,0.05,VWS V14.01,2013-04-18 13:19:00,
2013-04-18 08:20:00,31.5,30.0,29.54,NE,50,10.0,25.0,94,0.00,,CLR,0.05,VWS V14.01,2013-04-18 13:20:00,
2013-04-18 08:21:00,31.5,29.7,29.54,NE,50,13.0,25.0,93,0.00,,CLR,0.05,VWS V14.01,2013-04-18 13:21:00,
2013-04-18 08:22:00,31.5,29.7,29.54,NE,50,17.0,25.0,93,0.00,,CLR,0.05,VWS V14.01,2013-04-18 13:22:00,
2013-04-18 08:23:00,31.5,29.7,29.54,NE,50,10.0,25.0,93,0.00,,CLR,0.05,VWS V14.01,2013-04-18 13:23:00,
2013-04-18 08:24:00,31.5,29.7,29.54,NE,50,10.0,25.0,93,0.00,,CLR,0.05,VWS V14.01,2013-04-18 13:24:00,
2013-04-18 08:25:00,31.5,29.7,29.54,NE,50,18.0,25.0,93,0.00,,CLR,0.05,VWS V14.01,2013-04-18 13:25:00,
2013-04-18 08:26:00,31.3,29.5,29.54,NE,50,5.0,25.0,93,0.00,,CLR,0.05,VWS V14.01,2013-04-18 13:26:00,
2013-04-18 08:27:00,31.5,29.7,29.54,NE,50,13.0,25.0,93,0.00,,CLR,0.05,VWS V14.01,2013-04-18 13:27:00,
2013-04-18 08:28:00,31.5,29.7,29.54,NE,50,10.0,25.0,93,0.00,,CLR,0.05,VWS V14.01,2013-04-18 13:28:00,
2013-04-18 08:29:00,31.5,29.7,29.54,NE,50,13.0,25.0,93,0.00,,CLR,0.05,VWS V14.01,2013-04-18 13:29:00,
2013-04-18 08:30:00,31.5,29.7,29.52,NE,50,10.0,25.0,93,0.00,,CLR,0.05,VWS V14.01,2013-04-18 13:30:00,
2013-04-18 08:31:00,31.5,29.7,29.52,NE,50,10.0,12.0,93,0.00,,CLR,0.05,VWS V14.01,2013-04-18 13:31:00,
2013-04-18 08:32:00,31.5,29.7,29.52,NE,50,13.0,17.0,93,0.00,,CLR,0.05,VWS V14.01,2013-04-18 13:32:00,
2013-04-18 08:33:00,31.5,29.7,29.52,NE,50,16.0,17.0,93,0.00,,CLR,0.05,VWS V14.01,2013-04-18 13:33:00,
2013-04-18 08:34:00,31.5,30.0,29.52,NE,50,13.0,19.0,94,0.00,,CLR,0.05,VWS V14.01,2013-04-18 13:34:00,
2013-04-18 08:35:00,31.5,29.7,29.52,NE,50,11.0,19.0,93,0.00,,CLR,0.05,VWS V14.01,2013-04-18 13:35:00,
2013-04-18 08:36:00,31.6,29.8,29.52,NE,50,13.0,21.0,93,0.00,,CLR,0.05,VWS V14.01,2013-04-18 13:36:00,
2013-04-18 08:37:00,31.5,29.7,29.52,NE,50,16.0,22.0,93,0.00,,CLR,0.05,VWS V14.01,2013-04-18 13:37:00,
2013-04-18 08:38:00,31.5,29.7,29.52,NE,50,12.0,22.0,93,0.00,,CLR,0.05,VWS V14.01,2013-04-18 13:38:00,
2013-04-18 08:39:00,31.6,29.8,29.52,NE,50,14.0,22.0,93,0.00,,CLR,0.05,VWS V14.01,2013-04-18 13:39:00,
2013-04-18 08:40:00,31.6,29.8,29.52,NE,48,21.0,22.0,93,0.00,,CLR,0.05,VWS V14.01,2013-04-18 13:40:00,
2013-04-18 08:41:00,31.6,29.8,29.52,NE,48,10.0,22.0,93,0.00,,CLR,0.05,VWS V14.01,2013-04-18 13:41:00,
2013-04-18 08:42:00,31.6,29.8,29.52,NE,48,18.0,22.0,93,0.00,,CLR,0.05,VWS V14.01,2013-04-18 13:42:00,
2013-04-18 08:43:00,31.6,29.8,29.52,NE,48,21.0,22.0,93,0.00,,CLR,0.05,VWS V14.01,2013-04-18 13:43:00,
2013-04-18 08:44:00,31.5,29.7,29.52,NE,48,16.0,22.0,93,0.00,,CLR,0.05,VWS V14.01,2013-04-18 13:44:00,
2013-04-18 08:45:00,31.5,29.7,29.51,NE,48,19.0,22.0,93,0.00,,CLR,0.05,VWS V14.01,2013-04-18 13:45:00,
2013-04-18 08:46:00,31.5,29.7,29.51,NE,48,13.0,22.0,93,0.00,,CLR,0.05,VWS V14.01,2013-04-18 13:46:00,
2013-04-18 08:47:00,31.5,29.7,29.51,NE,48,10.0,22.0,93,0.00,,CLR,0.05,VWS V14.01,2013-04-18 13:47:00,
2013-04-18 08:48:00,31.5,29.7,29.51,NE,48,18.0,22.0,93,0.00,,CLR,0.05,VWS V14.01,2013-04-18 13:48:00,
2013-04-18 08:49:00,31.5,29.7,29.51,NE,48,14.0,22.0,93,0.00,,CLR,0.05,VWS V14.01,2013-04-18 13:49:00,
2013-04-18 08:50:00,31.6,29.8,29.51,NE,48,17.0,22.0,93,0.00,,CLR,0.05,VWS V14.01,2013-04-18 13:50:00,
2013-04-18 08:51:00,31.6,29.5,29.51,NE,48,14.0,22.0,92,0.00,,CLR,0.05,VWS V14.01,2013-04-18 13:51:00,
2013-04-18 08:52:00,31.6,29.5,29.51,NE,48,19.0,22.0,92,0.00,,CLR,0.05,VWS V14.01,2013-04-18 13:52:00,
2013-04-18 08:53:00,31.6,29.5,29.51,NE,48,17.0,24.0,92,0.00,,CLR,0.05,VWS V14.01,2013-04-18 13:53:00,
2013-04-18 08:54:00,31.6,29.5,29.51,NE,48,13.0,24.0,92,0.00,,CLR,0.05,VWS V14.01,2013-04-18 13:54:00,
2013-04-18 08:55:00,31.6,29.5,29.51,NE,48,10.0,24.0,92,0.00,,CLR,0.05,VWS V14.01,2013-04-18 13:55:00,
2013-04-18 08:56:00,31.6,29.5,29.51,NE,48,18.0,24.0,92,0.00,,CLR,0.05,VWS V14.01,2013-04-18 13:56:00,
2013-04-18 08:57:00,31.6,29.5,29.51,NE,48,9.0,24.0,92,0.00,,CLR,0.05,VWS V14.01,2013-04-18 13:57:00,
2013-04-18 08:58:00,31.8,29.8,29.51,NE,48,10.0,24.0,92,0.00,,CLR,0.05,VWS V14.01,2013-04-18 13:58:00,
2013-04-18 08:59:00,31.8,29.8,29.51,NE,48,17.0,24.0,92,0.00,,CLR,0.05,VWS V14.01,2013-04-18 13:59:00,
2013-04-18 09:00:00,31.8,29.8,29.53,NE,48,7.0,24.0,92,0.00,,CLR,0.05,VWS V14.01,2013-04-18 14:00:00,
2013-04-18 09:01:00,31.8,29.8,29.53,NE,48,6.0,12.0,92,0.00,,CLR,0.05,VWS V14.01,2013-04-18 14:01:00,
2013-04-18 09:02:00,31.8,29.8,29.53,NE,48,8.0,16.0,92,0.00,,CLR,0.05,VWS V14.01,2013-04-18 14:02:00,
2013-04-18 09:03:00,31.8,29.8,29.53,NE,48,10.0,16.0,92,0.00,,CLR,0.05,VWS V14.01,2013-04-18 14:03:00,
2013-04-18 09:04:00,31.8,29.8,29.53,NE,48,11.0,16.0,92,0.00,,CLR,0.05,VWS V14.01,2013-04-18 14:04:00,
2013-04-18 09:05:00,31.8,29.8,29.53,NE,47,11.0,26.0,92,0.00,,CLR,0.05,VWS V14.01,2013-04-18 14:05:00,
2013-04-18 09:06:00,31.8,29.8,29.53,NE,47,10.0,26.0,92,0.00,,CLR,0.05,VWS V14.01,2013-04-18 14:06:00,
2013-04-18 09:07:00,31.8,29.8,29.53,NE,47,6.0,26.0,92,0.00,,CLR,0.05,VWS V14.01,2013-04-18 14:07:00,
2013-04-18 09:08:00,31.8,29.8,29.53,NE,47,8.0,26.0,92,0.00,,CLR,0.05,VWS V14.01,2013-04-18 14:08:00,
2013-04-18 09:09:00,31.8,29.8,29.53,NE,47,13.0,26.0,92,0.00,,CLR,0.05,VWS V14.01,2013-04-18 14:09:00,
2013-04-18 09:10:00,31.6,29.5,29.53,NE,47,13.0,26.0,92,0.00,,CLR,0.05,VWS V14.01,2013-04-18 14:10:00,
2013-04-18 09:11:00,31.6,29.5,29.53,NE,47,8.0,26.0,92,0.00,,CLR,0.05,VWS V14.01,2013-04-18 14:11:00,
2013-04-18 09:12:00,31.6,29.5,29.53,NE,47,11.0,26.0,92,0.00,,CLR,0.05,VWS V14.01,2013-04-18 14:12:00,
2013-04-18 09:13:00,31.6,29.5,29.53,NE,47,8.0,26.0,92,0.00,,CLR,0.05,VWS V14.01,2013-04-18 14:13:00,
2013-04-18 09:14:00,31.6,29.5,29.53,NE,47,11.0,26.0,92,0.00,,CLR,0.05,VWS V14.01,2013-04-18 14:14:00,
2013-04-18 09:15:00,31.8,29.8,29.52,NE,47,7.0,26.0,92,0.00,,CLR,0.05,VWS V14.01,2013-04-18 14:15:00,
2013-04-18 09:16:00,31.8,29.8,29.52,NE,47,10.0,26.0,92,0.00,,CLR,0.05,VWS V14.01,2013-04-18 14:16:00,
2013-04-18 09:17:00,31.8,29.8,29.52,NE,47,18.0,26.0,92,0.00,,CLR,0.05,VWS V14.01,2013-04-18 14:17:00,
2013-04-18 09:18:00,31.8,29.8,29.52,NE,47,18.0,26.0,92,0.00,,CLR,0.05,VWS V14.01,2013-04-18 14:18:00,
2013-04-18 09:19:00,31.8,29.8,29.52,NE,47,14.0,26.0,92,0.00,,CLR,0.05,VWS V14.01,2013-04-18 14:19:00,
2013-04-18 09:20:00,31.8,29.8,29.52,NE,47,10.0,26.0,92,0.00,,CLR,0.05,VWS V14.01,2013-04-18 14:20:00,
2013-04-18 09:21:00,31.8,29.8,29.52,NE,47,7.0,26.0,92,0.00,,CLR,0.05,VWS V14.01,2013-04-18 14:21:00,
2013-04-18 09:22:00,31.8,29.8,29.52,NE,47,7.0,26.0,92,0.00,,CLR,0.05,VWS V14.01,2013-04-18 14:22:00,
2013-04-18 09:23:00,31.8,29.5,29.52,NE,47,9.0,26.0,91,0.00,,CLR,0.05,VWS V14.01,2013-04-18 14:23:00,
2013-04-18 09:24:00,31.8,29.5,29.52,NE,47,9.0,26.0,91,0.00,,CLR,0.05,VWS V14.01,2013-04-18 14:24:00,
2013-04-18 09:25:00,31.8,29.5,29.52,NE,47,2.0,26.0,91,0.00,,CLR,0.05,VWS V14.01,2013-04-18 14:25:00,
2013-04-18 09:26:00,31.8,29.5,29.52,NE,47,1.0,26.0,91,0.00,,CLR,0.05,VWS V14.01,2013-04-18 14:26:00,
2013-04-18 09:27:00,31.8,29.5,29.52,NE,47,6.0,26.0,91,0.00,,CLR,0.05,VWS V14.01,2013-04-18 14:27:00,
2013-04-18 09:28:00,31.8,29.5,29.52,NE,47,0.0,26.0,91,0.00,,CLR,0.05,VWS V14.01,2013-04-18 14:28:00,
2013-04-18 09:29:00,31.8,29.5,29.52,NE,47,5.0,26.0,91,0.00,,CLR,0.05,VWS V14.01,2013-04-18 14:29:00,
2013-04-18 09:30:00,31.8,29.5,29.53,NE,47,11.0,26.0,91,0.00,,CLR,0.05,VWS V14.01,2013-04-18 14:30:00,
2013-04-18 09:31:00,31.8,29.5,29.53,NE,47,11.0,18.0,91,0.00,,CLR,0.05,VWS V14.01,2013-04-18 14:31:00,
2013-04-18 09:32:00,31.8,29.5,29.53,NE,47,13.0,18.0,91,0.00,,CLR,0.05,VWS V14.01,2013-04-18 14:32:00,
2013-04-18 09:33:00,31.8,29.5,29.53,NE,47,8.0,18.0,91,0.00,,CLR,0.05,VWS V14.01,2013-04-18 14:33:00,
2013-04-18 09:34:00,31.8,29.5,29.53,NE,47,6.0,18.0,91,0.00,,CLR,0.05,VWS V14.01,2013-04-18 14:34:00,
2013-04-18 09:35:00,31.8,29.5,29.53,NE,47,16.0,18.0,91,0.00,,CLR,0.05,VWS V14.01,2013-04-18 14:35:00,
2013-04-18 09:36:00,31.8,29.5,29.53,NE,47,12.0,19.0,91,0.00,,CLR,0.05,VWS V14.01,2013-04-18 14:36:00,
2013-04-18 09:37:00,31.8,29.5,29.53,NE,47,10.0,19.0,91,0.00,,CLR,0.05,VWS V14.01,2013-04-18 14:37:00,
2013-04-18 09:38:00,31.8,29.5,29.53,NE,47,10.0,19.0,91,0.00,,CLR,0.05,VWS V14.01,2013-04-18 14:38:00,
2013-04-18 09:39:00,31.8,29.5,29.53,NE,47,3.0,19.0,91,0.00,,CLR,0.05,VWS V14.01,2013-04-18 14:39:00,
2013-04-18 09:40:00,31.8,29.5,29.53,NE,47,18.0,19.0,91,0.00,,CLR,0.05,VWS V14.01,2013-04-18 14:40:00,
2013-04-18 09:41:00,31.8,29.5,29.53,NE,47,13.0,19.0,91,0.00,,CLR,0.05,VWS V14.01,2013-04-18 14:41:00,
2013-04-18 09:42:00,31.8,29.5,29.53,NE,47,12.0,19.0,91,0.00,,CLR,0.05,VWS V14.01,2013-04-18 14:42:00,
2013-04-18 09:43:00,31.8,29.5,29.53,NE,47,12.0,19.0,91,0.00,,CLR,0.05,VWS V14.01,2013-04-18 14:43:00,
2013-04-18 09:44:00,31.8,29.5,29.53,NE,47,3.0,19.0,91,0.00,,CLR,0.05,VWS V14.01,2013-04-18 14:44:00,
2013-04-18 09:45:00,31.8,29.5,29.51,NE,47,8.0,19.0,91,0.00,,CLR,0.05,VWS V14.01,2013-04-18 14:45:00,
2013-04-18 09:46:00,31.8,29.5,29.51,NE,47,0.0,19.0,91,0.00,,CLR,0.05,VWS V14.01,2013-04-18 14:46:00,
2013-04-18 09:47:00,31.8,29.5,29.51,NE,47,8.0,19.0,91,0.00,,CLR,0.05,VWS V14.01,2013-04-18 14:47:00,
2013-04-18 09:48:00,31.8,29.8,29.51,NE,47,17.0,19.0,92,0.00,,CLR,0.05,VWS V14.01,2013-04-18 14:48:00,
2013-04-18 09:49:00,31.8,29.8,29.51,NE,47,11.0,19.0,92,0.00,,CLR,0.05,VWS V14.01,2013-04-18 14:49:00,
2013-04-18 09:50:00,31.8,29.8,29.51,NE,47,10.0,19.0,92,0.00,,CLR,0.05,VWS V14.01,2013-04-18 14:50:00,
2013-04-18 09:51:00,31.8,29.8,29.51,NE,47,2.0,19.0,92,0.00,,CLR,0.05,VWS V14.01,2013-04-18 14:51:00,
2013-04-18 09:52:00,31.8,29.8,29.51,NE,47,5.0,19.0,92,0.00,,CLR,0.05,VWS V14.01,2013-04-18 14:52:00,
2013-04-18 09:53:00,31.8,29.8,29.51,NE,47,1.0,19.0,92,0.00,,CLR,0.05,VWS V14.01,2013-04-18 14:53:00,
2013-04-18 09:54:00,31.8,29.8,29.51,NE,47,3.0,19.0,92,0.00,,CLR,0.05,VWS V14.01,2013-04-18 14:54:00,
2013-04-18 09:55:00,31.8,29.8,29.51,NE,47,5.0,19.0,92,0.00,,CLR,0.05,VWS V14.01,2013-04-18 14:55:00,
2013-04-18 09:56:00,31.8,29.8,29.51,NE,47,11.0,19.0,92,0.00,,CLR,0.05,VWS V14.01,2013-04-18 14:56:00,
2013-04-18 09:57:00,31.8,29.8,29.51,NE,47,6.0,19.0,92,0.00,,CLR,0.05,VWS V14.01,2013-04-18 14:57:00,
2013-04-18 09:58:00,31.8,29.8,29.51,NE,47,7.0,19.0,92,0.00,,CLR,0.05,VWS V14.01,2013-04-18 14:58:00,
2013-04-18 09:59:00,31.8,29.8,29.51,NE,47,7.0,19.0,92,0.00,,CLR,0.05,VWS V14.01,2013-04-18 14:59:00,
2013-04-18 10:00:00,31.8,29.8,29.53,NE,47,2.0,19.0,92,0.00,,CLR,0.05,VWS V14.01,2013-04-18 15:00:00,
2013-04-18 10:01:00,31.8,29.8,29.53,NE,47,11.0,11.0,92,0.00,,CLR,0.05,VWS V14.01,2013-04-18 15:01:00,
2013-04-18 10:02:00,31.8,29.8,29.53,NE,47,8.0,11.0,92,0.00,,CLR,0.05,VWS V14.01,2013-04-18 15:02:00,
2013-04-18 10:03:00,31.8,29.8,29.53,NE,47,13.0,16.0,92,0.00,,CLR,0.05,VWS V14.01,2013-04-18 15:03:00,
2013-04-18 10:04:00,31.8,29.5,29.53,NE,47,6.0,16.0,91,0.00,,CLR,0.05,VWS V14.01,2013-04-18 15:04:00,
2013-04-18 10:05:00,31.8,29.8,29.53,NE,47,8.0,16.0,92,0.00,,CLR,0.05,VWS V14.01,2013-04-18 15:05:00,
2013-04-18 10:06:00,31.8,29.8,29.53,NE,47,5.0,16.0,92,0.00,,CLR,0.05,VWS V14.01,2013-04-18 15:06:00,
2013-04-18 10:07:00,31.8,29.5,29.53,NE,47,8.0,16.0,91,0.00,,CLR,0.05,VWS V14.01,2013-04-18 15:07:00,
2013-04-18 10:08:00,31.8,29.5,29.53,NE,47,6.0,16.0,91,0.00,,CLR,0.05,VWS V14.01,2013-04-18 15:08:00,
2013-04-18 10:09:00,31.8,29.5,29.53,NE,47,8.0,16.0,91,0.00,,CLR,0.05,VWS V14.01,2013-04-18 15:09:00,
2013-04-18 10:10:00,31.8,29.5,29.53,NE,47,9.0,16.0,91,0.00,,CLR,0.05,VWS V14.01,2013-04-18 15:10:00,
2013-04-18 10:11:00,31.8,29.5,29.53,NE,47,8.0,16.0,91,0.00,,CLR,0.05,VWS V14.01,2013-04-18 15:11:00,
2013-04-18 10:12:00,31.8,29.8,29.53,NE,47,10.0,16.0,92,0.00,,CLR,0.05,VWS V14.01,2013-04-18 15:12:00,
2013-04-18 10:13:00,31.8,29.8,29.53,NE,47,9.0,16.0,92,0.00,,CLR,0.05,VWS V14.01,2013-04-18 15:13:00,
2013-04-18 10:14:00,31.8,29.8,29.53,NE,47,6.0,16.0,92,0.00,,CLR,0.05,VWS V14.01,2013-04-18 15:14:00,
2013-04-18 10:15:00,31.8,29.8,29.52,NE,47,5.0,16.0,92,0.00,,CLR,0.05,VWS V14.01,2013-04-18 15:15:00,
2013-04-18 10:16:00,31.8,29.8,29.52,NE,47,9.0,16.0,92,0.00,,CLR,0.05,VWS V14.01,2013-04-18 15:16:00,
2013-04-18 10:17:00,31.8,29.8,29.52,NE,47,11.0,16.0,92,0.00,,CLR,0.05,VWS V14.01,2013-04-18 15:17:00,
2013-04-18 10:18:00,31.8,29.8,29.52,NE,47,8.0,16.0,92,0.00,,CLR,0.05,VWS V14.01,2013-04-18 15:18:00,
2013-04-18 10:19:00,31.8,29.8,29.52,NE,47,5.0,16.0,92,0.00,,CLR,0.05,VWS V14.01,2013-04-18 15:19:00,
2013-04-18 10:20:00,31.8,29.8,29.52,NE,47,3.0,16.0,92,0.00,,CLR,0.05,VWS V14.01,2013-04-18 15:20:00,
2013-04-18 10:21:00,31.8,29.8,29.52,NE,47,7.0,16.0,92,0.00,,CLR,0.05,VWS V14.01,2013-04-18 15:21:00,
2013-04-18 10:22:00,31.8,29.8,29.52,NE,47,6.0,16.0,92,0.00,,CLR,0.05,VWS V14.01,2013-04-18 15:22:00,
2013-04-18 10:23:00,31.8,29.8,29.52,NE,47,10.0,16.0,92,0.00,,CLR,0.05,VWS V14.01,2013-04-18 15:23:00,
2013-04-18 10:24:00,31.8,29.8,29.52,NE,47,10.0,16.0,92,0.00,,CLR,0.05,VWS V14.01,2013-04-18 15:24:00,
2013-04-18 10:25:00,31.8,29.8,29.52,NE,47,5.0,16.0,92,0.00,,CLR,0.05,VWS V14.01,2013-04-18 15:25:00,
2013-04-18 10:26:00,31.8,29.8,29.52,NE,47,17.0,17.0,92,0.00,,CLR,0.05,VWS V14.01,2013-04-18 15:26:00,
2013-04-18 10:27:00,31.8,29.8,29.52,NE,47,13.0,17.0,92,0.00,,CLR,0.05,VWS V14.01,2013-04-18 15:27:00,
2013-04-18 10:28:00,31.8,29.8,29.52,NE,47,11.0,19.0,92,0.00,,CLR,0.05,VWS V14.01,2013-04-18 15:28:00,
2013-04-18 10:29:00,31.8,29.8,29.52,NE,47,9.0,19.0,92,0.00,,CLR,0.05,VWS V14.01,2013-04-18 15:29:00,
2013-04-18 10:30:00,31.8,29.8,29.49,NE,47,16.0,19.0,92,0.00,,CLR,0.05,VWS V14.01,2013-04-18 15:30:00,
2013-04-18 10:31:00,31.8,29.8,29.49,NE,47,17.0,19.0,92,0.00,,CLR,0.05,VWS V14.01,2013-04-18 15:31:00,
2013-04-18 10:32:00,31.8,29.8,29.49,NE,47,8.0,19.0,92,0.00,,CLR,0.05,VWS V14.01,2013-04-18 15:32:00,
2013-04-18 10:33:00,31.9,29.8,29.49,NE,46,11.0,19.0,92,0.00,,CLR,0.05,VWS V14.01,2013-04-18 15:33:00,
2013-04-18 10:34:00,31.9,29.8,29.49,NE,46,8.0,19.0,92,0.00,,CLR,0.05,VWS V14.01,2013-04-18 15:34:00,
2013-04-18 10:35:00,31.9,29.8,29.49,NE,46,9.0,19.0,92,0.00,,CLR,0.05,VWS V14.01,2013-04-18 15:35:00,
2013-04-18 10:36:00,31.9,29.8,29.49,NE,46,14.0,20.0,92,0.00,,CLR,0.05,VWS V14.01,2013-04-18 15:36:00,
2013-04-18 10:37:00,31.9,29.8,29.49,NE,46,7.0,20.0,92,0.00,,CLR,0.05,VWS V14.01,2013-04-18 15:37:00,
2013-04-18 10:38:00,31.9,29.8,29.49,NE,46,5.0,20.0,92,0.00,,CLR,0.05,VWS V14.01,2013-04-18 15:38:00,
2013-04-18 10:39:00,31.9,29.8,29.49,NE,46,8.0,20.0,92,0.00,,CLR,0.05,VWS V14.01,2013-04-18 15:39:00,
2013-04-18 10:40:00,31.9,29.8,29.49,NE,46,4.0,20.0,92,0.00,,CLR,0.05,VWS V14.01,2013-04-18 15:40:00,
2013-04-18 10:41:00,31.9,29.8,29.49,NE,46,2.0,20.0,92,0.00,,CLR,0.05,VWS V14.01,2013-04-18 15:41:00,
2013-04-18 10:42:00,31.9,29.8,29.49,NE,46,6.0,20.0,92,0.00,,CLR,0.05,VWS V14.01,2013-04-18 15:42:00,
2013-04-18 10:43:00,31.9,29.8,29.49,NE,46,7.0,20.0,92,0.00,,CLR,0.05,VWS V14.01,2013-04-18 15:43:00,
2013-04-18 10:44:00,31.9,30.1,29.49,NE,46,8.0,20.0,93,0.00,,CLR,0.05,VWS V14.01,2013-04-18 15:44:00,
2013-04-18 10:45:00,31.9,30.1,29.50,NE,46,8.0,20.0,93,0.00,,CLR,0.05,VWS V14.01,2013-04-18 15:45:00,
2013-04-18 10:46:00,31.9,30.1,29.50,NE,46,6.0,20.0,93,0.00,,CLR,0.05,VWS V14.01,2013-04-18 15:46:00,
2013-04-18 10:47:00,31.9,30.1,29.50,NE,46,11.0,20.0,93,0.00,,CLR,0.05,VWS V14.01,2013-04-18 15:47:00,
2013-04-18 10:48:00,31.9,30.1,29.50,NE,46,3.0,20.0,93,0.00,,CLR,0.05,VWS V14.01,2013-04-18 15:48:00,
2013-04-18 10:49:00,31.9,30.1,29.50,NE,46,6.0,20.0,93,0.00,,CLR,0.05,VWS V14.01,2013-04-18 15:49:00,
2013-04-18 10:50:00,31.9,30.1,29.50,NE,46,6.0,20.0,93,0.00,,CLR,0.05,VWS V14.01,2013-04-18 15:50:00,
2013-04-18 10:51:00,31.9,30.1,29.50,NE,46,8.0,20.0,93,0.00,,CLR,0.05,VWS V14.01,2013-04-18 15:51:00,
2013-04-18 10:52:00,31.9,30.1,29.50,NE,46,10.0,20.0,93,0.00,,CLR,0.05,VWS V14.01,2013-04-18 15:52:00,
2013-04-18 10:53:00,31.9,30.1,29.50,NE,46,11.0,20.0,93,0.00,,CLR,0.05,VWS V14.01,2013-04-18 15:53:00,
2013-04-18 10:54:00,31.9,30.1,29.50,NE,46,11.0,20.0,93,0.00,,CLR,0.05,VWS V14.01,2013-04-18 15:54:00,
2013-04-18 10:55:00,31.9,30.1,29.50,NE,46,10.0,20.0,93,0.00,,CLR,0.05,VWS V14.01,2013-04-18 15:55:00,
2013-04-18 10:56:00,31.9,30.1,29.50,NE,46,13.0,20.0,93,0.00,,CLR,0.05,VWS V14.01,2013-04-18 15:56:00,
2013-04-18 10:57:00,31.9,30.1,29.50,NE,46,5.0,20.0,93,0.00,,CLR,0.05,VWS V14.01,2013-04-18 15:57:00,
2013-04-18 10:58:00,31.9,30.4,29.50,NE,46,6.0,20.0,94,0.00,,CLR,0.05,VWS V14.01,2013-04-18 15:58:00,
2013-04-18 10:59:00,31.9,30.4,29.50,NE,46,5.0,20.0,94,0.00,,CLR,0.05,VWS V14.01,2013-04-18 15:59:00,
2013-04-18 11:00:00,31.9,30.4,29.48,NE,46,8.0,20.0,94,0.00,,CLR,0.05,VWS V14.01,2013-04-18 16:00:00,
2013-04-18 11:01:00,31.9,30.4,29.48,NE,46,12.0,12.0,94,0.00,,CLR,0.05,VWS V14.01,2013-04-18 16:01:00,
2013-04-18 11:02:00,31.9,30.4,29.48,NE,46,7.0,16.0,94,0.00,,CLR,0.05,VWS V14.01,2013-04-18 16:02:00,
2013-04-18 11:03:00,31.9,30.4,29.48,NE,46,12.0,16.0,94,0.00,,CLR,0.05,VWS V14.01,2013-04-18 16:03:00,
2013-04-18 11:04:00,31.9,30.4,29.48,NE,47,12.0,16.0,94,0.00,,CLR,0.05,VWS V14.01,2013-04-18 16:04:00,
2013-04-18 11:05:00,31.9,30.4,29.48,NE,46,12.0,16.0,94,0.00,,CLR,0.05,VWS V14.01,2013-04-18 16:05:00,
2013-04-18 11:06:00,31.9,30.4,29.48,NE,46,8.0,16.0,94,0.00,,CLR,0.05,VWS V14.01,2013-04-18 16:06:00,
2013-04-18 11:07:00,31.8,30.3,29.48,NE,46,13.0,17.0,94,0.00,,CLR,0.05,VWS V14.01,2013-04-18 16:07:00,
2013-04-18 11:08:00,31.8,30.3,29.48,NE,44,7.0,21.0,94,0.00,,CLR,0.05,VWS V14.01,2013-04-18 16:08:00,
2013-04-18 11:09:00,31.8,30.5,29.48,NE,44,9.0,21.0,95,0.00,,CLR,0.05,VWS V14.01,2013-04-18 16:09:00,
2013-04-18 11:10:00,31.8,30.5,29.48,NE,44,8.0,21.0,95,0.00,,CLR,0.05,VWS V14.01,2013-04-18 16:10:00,
2013-04-18 11:11:00,31.8,30.5,29.48,NE,44,11.0,21.0,95,0.00,,CLR,0.05,VWS V14.01,2013-04-18 16:11:00,
2013-04-18 11:12:00,31.6,30.3,29.48,NE,44,10.0,21.0,95,0.00,,CLR,0.05,VWS V14.01,2013-04-18 16:12:00,
2013-04-18 11:13:00,31.6,30.3,29.48,NE,44,5.0,21.0,95,0.00,,CLR,0.05,VWS V14.01,2013-04-18 16:13:00,
2013-04-18 11:14:00,31.8,30.5,29.48,NE,44,7.0,21.0,95,0.00,,CLR,0.05,VWS V14.01,2013-04-18 16:14:00,
2013-04-18 11:15:00,31.6,30.3,29.50,NE,44,13.0,21.0,95,0.00,,CLR,0.05,VWS V14.01,2013-04-18 16:15:00,
2013-04-18 11:16:00,31.6,30.3,29.50,NE,44,5.0,21.0,95,0.00,,CLR,0.05,VWS V14.01,2013-04-18 16:16:00,
2013-04-18 11:17:00,31.6,30.6,29.50,NE,44,6.0,21.0,96,0.00,,CLR,0.05,VWS V14.01,2013-04-18 16:17:00,
2013-04-18 11:18:00,31.6,30.6,29.50,NE,44,6.0,21.0,96,0.00,,CLR,0.05,VWS V14.01,2013-04-18 16:18:00,
2013-04-18 11:19:00,31.6,30.6,29.50,NE,44,13.0,21.0,96,0.00,,CLR,0.05,VWS V14.01,2013-04-18 16:19:00,
2013-04-18 11:20:00,31.6,30.6,29.50,NE,44,7.0,21.0,96,0.00,,CLR,0.05,VWS V14.01,2013-04-18 16:20:00,
2013-04-18 11:21:00,31.8,30.8,29.50,NE,44,7.0,21.0,96,0.00,,CLR,0.05,VWS V14.01,2013-04-18 16:21:00,
2013-04-18 11:22:00,31.6,30.6,29.50,NE,44,6.0,21.0,96,0.00,,CLR,0.05,VWS V14.01,2013-04-18 16:22:00,
2013-04-18 11:23:00,31.6,30.6,29.50,NE,44,1.0,21.0,96,0.00,,CLR,0.05,VWS V14.01,2013-04-18 16:23:00,
2013-04-18 11:24:00,31.6,30.6,29.50,NE,44,6.0,21.0,96,0.00,,CLR,0.05,VWS V14.01,2013-04-18 16:24:00,
2013-04-18 11:25:00,31.6,30.6,29.50,NE,44,8.0,21.0,96,0.00,,CLR,0.05,VWS V14.01,2013-04-18 16:25:00,
2013-04-18 11:26:00,31.6,30.6,29.50,NE,44,6.0,21.0,96,0.00,,CLR,0.05,VWS V14.01,2013-04-18 16:26:00,
2013-04-18 11:27:00,31.6,30.6,29.50,NE,44,3.0,21.0,96,0.00,,CLR,0.05,VWS V14.01,2013-04-18 16:27:00,
2013-04-18 11:28:00,31.5,30.5,29.50,NE,44,10.0,21.0,96,0.00,,CLR,0.05,VWS V14.01,2013-04-18 16:28:00,
2013-04-18 11:29:00,31.6,30.6,29.50,NE,44,7.0,21.0,96,0.00,,CLR,0.05,VWS V14.01,2013-04-18 16:29:00,
2013-04-18 11:30:00,31.5,30.5,29.48,NE,44,11.0,21.0,96,0.00,,CLR,0.05,VWS V14.01,2013-04-18 16:30:00,
2013-04-18 11:31:00,31.5,30.5,29.48,NE,44,7.0,12.0,96,0.00,,CLR,0.05,VWS V14.01,2013-04-18 16:31:00,
2013-04-18 11:32:00,31.5,30.5,29.48,NE,44,6.0,13.0,96,0.00,,CLR,0.05,VWS V14.01,2013-04-18 16:32:00,
2013-04-18 11:33:00,31.6,30.6,29.48,NE,43,11.0,13.0,96,0.00,,CLR,0.05,VWS V14.01,2013-04-18 16:33:00,
2013-04-18 11:34:00,31.5,30.5,29.48,NE,43,11.0,15.0,96,0.00,,CLR,0.05,VWS V14.01,2013-04-18 16:34:00,
2013-04-18 11:35:00,31.5,30.8,29.48,NE,44,12.0,15.0,97,0.00,,CLR,0.05,VWS V14.01,2013-04-18 16:35:00,
2013-04-18 11:36:00,31.5,30.8,29.48,NE,43,5.0,15.0,97,0.00,,CLR,0.05,VWS V14.01,2013-04-18 16:36:00,
2013-04-18 11:37:00,31.5,30.8,29.48,NE,43,7.0,15.0,97,0.00,,CLR,0.05,VWS V14.01,2013-04-18 16:37:00,
2013-04-18 11:38:00,31.5,30.8,29.48,NE,43,6.0,15.0,97,0.00,,CLR,0.05,VWS V14.01,2013-04-18 16:38:00,
2013-04-18 11:39:00,31.5,30.8,29.48,NE,43,2.0,15.0,97,0.00,,CLR,0.05,VWS V14.01,2013-04-18 16:39:00,
2013-04-18 11:40:00,31.5,30.8,29.48,NE,43,5.0,15.0,97,0.00,,CLR,0.05,VWS V14.01,2013-04-18 16:40:00,
2013-04-18 11:41:00,31.5,30.8,29.48,NE,43,12.0,15.0,97,0.00,,CLR,0.05,VWS V14.01,2013-04-18 16:41:00,
2013-04-18 11:42:00,31.5,30.8,29.48,NE,43,9.0,15.0,97,0.00,,CLR,0.05,VWS V14.01,2013-04-18 16:42:00,
2013-04-18 11:43:00,31.5,30.8,29.48,NE,43,6.0,15.0,97,0.00,,CLR,0.05,VWS V14.01,2013-04-18 16:43:00,
2013-04-18 11:44:00,31.5,30.8,29.48,NE,43,17.0,19.0,97,0.00,,CLR,0.05,VWS V14.01,2013-04-18 16:44:00,
2013-04-18 11:45:00,31.5,30.8,29.46,NE,43,12.0,19.0,97,0.00,,CLR,0.05,VWS V14.01,2013-04-18 16:45:00,
2013-04-18 11:46:00,31.5,30.8,29.46,NE,43,5.0,19.0,97,0.00,,CLR,0.05,VWS V14.01,2013-04-18 16:46:00,
2013-04-18 11:47:00,31.5,30.8,29.46,NE,43,3.0,19.0,97,0.00,,CLR,0.05,VWS V14.01,2013-04-18 16:47:00,
2013-04-18 11:48:00,31.5,30.8,29.46,NE,43,2.0,19.0,97,0.00,,CLR,0.05,VWS V14.01,2013-04-18 16:48:00,
2013-04-18 11:49:00,31.5,30.8,29.46,NE,43,5.0,19.0,97,0.01,,CLR,0.06,VWS V14.01,2013-04-18 16:49:00,
2013-04-18 11:50:00,31.5,30.8,29.46,NE,43,0.0,19.0,97,0.01,,CLR,0.06,VWS V14.01,2013-04-18 16:50:00,
2013-04-18 11:51:00,31.5,30.8,29.46,NE,43,2.0,19.0,97,0.01,,CLR,0.06,VWS V14.01,2013-04-18 16:51:00,
2013-04-18 11:52:00,31.5,30.8,29.46,NE,43,11.0,19.0,97,0.01,,CLR,0.06,VWS V14.01,2013-04-18 16:52:00,
2013-04-18 11:53:00,31.6,30.9,29.46,NE,43,10.0,19.0,97,0.01,,CLR,0.06,VWS V14.01,2013-04-18 16:53:00,
2013-04-18 11:54:00,31.6,30.9,29.46,NE,43,9.0,19.0,97,0.01,,CLR,0.06,VWS V14.01,2013-04-18 16:54:00,
2013-04-18 11:55:00,31.6,30.9,29.46,NE,43,3.0,19.0,97,0.01,,CLR,0.06,VWS V14.01,2013-04-18 16:55:00,
2013-04-18 11:56:00,31.6,30.9,29.46,NE,43,11.0,19.0,97,0.01,,CLR,0.06,VWS V14.01,2013-04-18 16:56:00,
2013-04-18 11:57:00,31.6,30.9,29.46,NE,43,0.0,19.0,97,0.01,,CLR,0.06,VWS V14.01,2013-04-18 16:57:00,
2013-04-18 11:58:00,31.6,30.9,29.46,NE,43,5.0,19.0,97,0.01,,CLR,0.06,VWS V14.01,2013-04-18 16:58:00,
2013-04-18 11:59:00,31.6,30.9,29.48,NE,43,8.0,19.0,97,0.01,,CLR,0.06,VWS V14.01,2013-04-18 16:59:00,
2013-04-18 12:00:00,31.6,30.9,29.48,NE,43,6.0,19.0,97,0.01,,CLR,0.06,VWS V14.01,2013-04-18 17:00:00,
2013-04-18 12:01:00,31.6,30.9,29.48,NE,41,5.0,8.0,97,0.01,,CLR,0.06,VWS V14.01,2013-04-18 17:01:00,
2013-04-18 12:02:00,31.6,30.9,29.48,NNE,30,10.0,10.0,97,0.01,,CLR,0.06,VWS V14.01,2013-04-18 17:02:00,
2013-04-18 12:03:00,31.6,30.9,29.48,NNE,30,10.0,12.0,97,0.01,,CLR,0.06,VWS V14.01,2013-04-18 17:03:00,
2013-04-18 12:04:00,31.6,30.9,29.48,NNE,30,5.0,12.0,97,0.01,,CLR,0.06,VWS V14.01,2013-04-18 17:04:00,
2013-04-18 12:05:00,31.6,30.9,29.48,NNE,30,7.0,12.0,97,0.01,,CLR,0.06,VWS V14.01,2013-04-18 17:05:00,
2013-04-18 12:06:00,31.6,30.9,29.48,NNE,30,11.0,12.0,97,0.01,,CLR,0.06,VWS V14.01,2013-04-18 17:06:00,
2013-04-18 12:07:00,31.6,30.9,29.48,NNE,30,2.0,12.0,97,0.01,,CLR,0.06,VWS V14.01,2013-04-18 17:07:00,
2013-04-18 12:08:00,31.6,30.9,29.48,NNE,30,2.0,12.0,97,0.01,,CLR,0.06,VWS V14.01,2013-04-18 17:08:00,
2013-04-18 12:09:00,31.6,30.9,29.48,NNE,30,10.0,14.0,97,0.01,,CLR,0.06,VWS V14.01,2013-04-18 17:09:00,
2013-04-18 12:10:00,31.6,30.9,29.48,NNE,30,1.0,14.0,97,0.01,,CLR,0.06,VWS V14.01,2013-04-18 17:10:00,
2013-04-18 12:11:00,31.6,30.9,29.48,NNE,30,6.0,14.0,97,0.01,,CLR,0.06,VWS V14.01,2013-04-18 17:11:00,
2013-04-18 12:12:00,31.6,30.9,29.48,NNE,30,2.0,14.0,97,0.01,,CLR,0.06,VWS V14.01,2013-04-18 17:12:00,
2013-04-18 12:13:00,31.6,30.9,29.48,NNE,30,8.0,14.0,97,0.01,,CLR,0.06,VWS V14.01,2013-04-18 17:13:00,
2013-04-18 12:14:00,31.6,30.9,29.48,NNE,30,3.0,14.0,97,0.01,,CLR,0.06,VWS V14.01,2013-04-18 17:14:00,
2013-04-18 12:15:00,31.6,30.9,29.49,NNE,30,10.0,14.0,97,0.01,,CLR,0.06,VWS V14.01,2013-04-18 17:15:00,
2013-04-18 12:16:00,31.6,30.9,29.49,NNE,30,3.0,14.0,97,0.01,,CLR,0.06,VWS V14.01,2013-04-18 17:16:00,
2013-04-18 12:17:00,31.6,30.9,29.49,NNE,30,7.0,14.0,97,0.01,,CLR,0.06,VWS V14.01,2013-04-18 17:17:00,
2013-04-18 12:18:00,31.6,30.9,29.49,NNE,30,10.0,14.0,97,0.01,,CLR,0.06,VWS V14.01,2013-04-18 17:18:00,
2013-04-18 12:19:00,31.6,30.9,29.49,NNE,30,8.0,14.0,97,0.01,,CLR,0.06,VWS V14.01,2013-04-18 17:19:00,
2013-04-18 12:20:00,31.6,30.9,29.49,NNE,30,6.0,14.0,97,0.01,,CLR,0.06,VWS V14.01,2013-04-18 17:20:00,
2013-04-18 12:21:00,31.6,30.9,29.49,NNE,30,10.0,14.0,97,0.01,,CLR,0.06,VWS V14.01,2013-04-18 17:21:00,
2013-04-18 12:22:00,31.6,30.9,29.49,NNE,30,1.0,14.0,97,0.01,,CLR,0.06,VWS V14.01,2013-04-18 17:22:00,
2013-04-18 12:23:00,31.6,30.9,29.49,NNE,30,11.0,14.0,97,0.01,,CLR,0.06,VWS V14.01,2013-04-18 17:23:00,
2013-04-18 12:24:00,31.6,30.9,29.49,NNE,30,10.0,14.0,97,0.01,,CLR,0.06,VWS V14.01,2013-04-18 17:24:00,
2013-04-18 12:25:00,31.6,30.9,29.49,NNE,30,5.0,14.0,97,0.01,,CLR,0.06,VWS V14.01,2013-04-18 17:25:00,
2013-04-18 12:26:00,31.6,30.9,29.49,NNE,30,2.0,14.0,97,0.01,,CLR,0.06,VWS V14.01,2013-04-18 17:26:00,
2013-04-18 12:27:00,31.5,30.8,29.49,NNE,30,8.0,14.0,97,0.01,,CLR,0.06,VWS V14.01,2013-04-18 17:27:00,
2013-04-18 12:28:00,31.6,30.9,29.49,NNE,30,2.0,14.0,97,0.01,,CLR,0.06,VWS V14.01,2013-04-18 17:28:00,
2013-04-18 12:29:00,31.5,30.8,29.49,NNE,30,5.0,14.0,97,0.01,,CLR,0.06,VWS V14.01,2013-04-18 17:29:00,
2013-04-18 12:30:00,31.6,30.9,29.47,NNE,30,6.0,14.0,97,0.01,,CLR,0.06,VWS V14.01,2013-04-18 17:30:00,
2013-04-18 12:31:00,31.5,30.8,29.47,NNE,30,12.0,18.0,97,0.01,,CLR,0.06,VWS V14.01,2013-04-18 17:31:00,
2013-04-18 12:32:00,31.5,30.8,29.47,NNE,30,7.0,18.0,97,0.01,,CLR,0.06,VWS V14.01,2013-04-18 17:32:00,
2013-04-18 12:33:00,31.5,30.8,29.47,NNE,30,7.0,18.0,97,0.01,,CLR,0.06,VWS V14.01,2013-04-18 17:33:00,
2013-04-18 12:34:00,31.6,31.1,29.47,NNE,30,6.0,18.0,98,0.01,,CLR,0.06,VWS V14.01,2013-04-18 17:34:00,
2013-04-18 12:35:00,31.6,30.9,29.47,NNE,29,12.0,18.0,97,0.01,,CLR,0.06,VWS V14.01,2013-04-18 17:35:00,
2013-04-18 12:36:00,31.6,31.1,29.47,NNE,22,22.0,22.0,98,0.01,,CLR,0.06,VWS V14.01,2013-04-18 17:36:00,
2013-04-18 12:37:00,31.5,31.0,29.47,NNE,24,10.0,22.0,98,0.01,,CLR,0.06,VWS V14.01,2013-04-18 17:37:00,
2013-04-18 12:38:00,31.6,31.1,29.47,NNE,26,13.0,22.0,98,0.01,,CLR,0.06,VWS V14.01,2013-04-18 17:38:00,
2013-04-18 12:39:00,31.6,31.1,29.47,NNE,23,7.0,22.0,98,0.01,,CLR,0.06,VWS V14.01,2013-04-18 17:39:00,
2013-04-18 12:40:00,31.6,31.1,29.47,NNE,16,10.0,22.0,98,0.01,,CLR,0.06,VWS V14.01,2013-04-18 17:40:00,
2013-04-18 12:41:00,31.6,31.1,29.47,NNE,20,7.0,22.0,98,0.01,,CLR,0.06,VWS V14.01,2013-04-18 17:41:00,
2013-04-18 12:42:00,31.8,31.3,29.47,NNE,17,1.0,22.0,98,0.01,,CLR,0.06,VWS V14.01,2013-04-18 17:42:00,
2013-04-18 12:43:00,31.8,31.3,29.47,NNE,33,14.0,22.0,98,0.01,,CLR,0.06,VWS V14.01,2013-04-18 17:43:00,
2013-04-18 12:44:00,31.8,31.3,29.47,NE,37,11.0,22.0,98,0.01,,CLR,0.06,VWS V14.01,2013-04-18 17:44:00,
2013-04-18 12:45:00,31.8,31.3,29.44,North,3,9.0,22.0,98,0.01,,CLR,0.06,VWS V14.01,2013-04-18 17:45:00,
2013-04-18 12:46:00,31.8,31.3,29.44,NNE,14,0.0,22.0,98,0.01,,CLR,0.06,VWS V14.01,2013-04-18 17:46:00,
2013-04-18 12:47:00,31.8,31.3,29.44,NE,53,12.0,22.0,98,0.01,,CLR,0.06,VWS V14.01,2013-04-18 17:47:00,
2013-04-18 12:48:00,31.8,31.3,29.44,NNE,22,7.0,22.0,98,0.01,,CLR,0.06,VWS V14.01,2013-04-18 17:48:00,
2013-04-18 12:49:00,31.8,31.3,29.44,NE,44,15.0,22.0,98,0.01,,CLR,0.06,VWS V14.01,2013-04-18 17:49:00,
2013-04-18 12:50:00,31.8,31.3,29.44,NNE,20,7.0,22.0,98,0.01,,CLR,0.06,VWS V14.01,2013-04-18 17:50:00,
2013-04-18 12:51:00,31.8,31.3,29.44,NE,36,12.0,22.0,98,0.01,,CLR,0.06,VWS V14.01,2013-04-18 17:51:00,
2013-04-18 12:52:00,31.8,31.3,29.44,NE,36,12.0,22.0,98,0.01,,CLR,0.06,VWS V14.01,2013-04-18 17:52:00,
2013-04-18 12:53:00,31.8,31.3,29.44,NNE,17,10.0,22.0,98,0.01,,CLR,0.06,VWS V14.01,2013-04-18 17:53:00,
2013-04-18 12:54:00,31.8,31.3,29.44,NNE,16,8.0,22.0,98,0.01,,CLR,0.06,VWS V14.01,2013-04-18 17:54:00,
2013-04-18 12:55:00,31.8,31.3,29.44,NNE,26,10.0,22.0,98,0.01,,CLR,0.06,VWS V14.01,2013-04-18 17:55:00,
2013-04-18 12:56:00,31.8,31.3,29.44,NE,37,18.0,22.0,98,0.01,,CLR,0.06,VWS V14.01,2013-04-18 17:56:00,
2013-04-18 12:57:00,31.8,31.3,29.44,NNE,13,3.0,22.0,98,0.01,,CLR,0.06,VWS V14.01,2013-04-18 17:57:00,
2013-04-18 12:58:00,31.8,31.3,29.44,NW,315,7.0,22.0,98,0.01,,CLR,0.06,VWS V14.01,2013-04-18 17:58:00,
2013-04-18 12:59:00,31.8,31.3,29.44,NNW,336,9.0,22.0,98,0.01,,CLR,0.06,VWS V14.01,2013-04-18 17:59:00,
2013-04-18 13:00:00,31.8,31.3,29.44,NNW,331,7.0,22.0,98,0.01,,CLR,0.06,VWS V14.01,2013-04-18 18:00:00,
2013-04-18 13:01:00,31.8,31.3,29.44,NNW,341,6.0,12.0,98,0.00,,CLR,0.06,VWS V14.01,2013-04-18 18:01:00,
2013-04-18 13:02:00,31.8,31.3,29.44,NNW,338,4.0,12.0,98,0.00,,CLR,0.06,VWS V14.01,2013-04-18 18:02:00,
2013-04-18 13:03:00,31.8,31.3,29.44,NNE,13,7.0,12.0,98,0.00,,CLR,0.06,VWS V14.01,2013-04-18 18:03:00,
2013-04-18 13:04:00,31.8,31.3,29.44,North,3,6.0,12.0,98,0.00,,CLR,0.06,VWS V14.01,2013-04-18 18:04:00,
2013-04-18 13:05:00,31.9,31.4,29.44,NE,41,13.0,13.0,98,0.00,,CLR,0.06,VWS V14.01,2013-04-18 18:05:00,
2013-04-18 13:06:00,31.8,31.3,29.44,NNE,14,6.0,13.0,98,0.00,,CLR,0.06,VWS V14.01,2013-04-18 18:06:00,
2013-04-18 13:07:00,31.9,31.4,29.44,NE,46,7.0,13.0,98,0.00,,CLR,0.06,VWS V14.01,2013-04-18 18:07:00,
2013-04-18 13:08:00,31.8,31.3,29.44,NNE,16,10.0,13.0,98,0.00,,CLR,0.06,VWS V14.01,2013-04-18 18:08:00,
2013-04-18 13:09:00,31.8,31.3,29.44,NW,326,2.0,14.0,98,0.00,,CLR,0.06,VWS V14.01,2013-04-18 18:09:00,
2013-04-18 13:10:00,31.9,31.4,29.44,NNW,338,9.0,14.0,98,0.00,,CLR,0.06,VWS V14.01,2013-04-18 18:10:00,
2013-04-18 13:11:00,31.9,31.4,29.44,North,6,8.0,16.0,98,0.00,,CLR,0.06,VWS V14.01,2013-04-18 18:11:00,
2013-04-18 13:12:00,31.9,31.4,29.44,NNE,27,10.0,16.0,98,0.00,,CLR,0.06,VWS V14.01,2013-04-18 18:12:00,
2013-04-18 13:13:00,31.9,31.4,29.44,NNE,23,10.0,16.0,98,0.00,,CLR,0.06,VWS V14.01,2013-04-18 18:13:00,
2013-04-18 13:14:00,31.9,31.4,29.44,North,7,6.0,16.0,98,0.00,,CLR,0.06,VWS V14.01,2013-04-18 18:14:00,
2013-04-18 13:15:00,31.9,31.4,29.45,North,2,10.0,16.0,98,0.00,,CLR,0.06,VWS V14.01,2013-04-18 18:15:00,
2013-04-18 13:16:00,31.9,31.4,29.45,North,9,11.0,16.0,98,0.00,,CLR,0.06,VWS V14.01,2013-04-18 18:16:00,
2013-04-18 13:17:00,31.9,31.4,29.45,NNE,30,14.0,16.0,98,0.00,,CLR,0.06,VWS V14.01,2013-04-18 18:17:00,
2013-04-18 13:18:00,31.9,31.4,29.45,NE,46,8.0,16.0,98,0.00,,CLR,0.06,VWS V14.01,2013-04-18 18:18:00,
2013-04-18 13:19:00,31.9,31.4,29.45,NNE,30,13.0,16.0,98,0.00,,CLR,0.06,VWS V14.01,2013-04-18 18:19:00,
2013-04-18 13:20:00,31.9,31.4,29.45,North,7,3.0,16.0,98,0.00,,CLR,0.06,VWS V14.01,2013-04-18 18:20:00,
2013-04-18 13:21:00,31.8,31.3,29.45,NNE,26,16.0,16.0,98,0.00,,CLR,0.06,VWS V14.01,2013-04-18 18:21:00,
2013-04-18 13:22:00,31.9,31.4,29.45,NE,50,9.0,16.0,98,0.00,,CLR,0.06,VWS V14.01,2013-04-18 18:22:00,
2013-04-18 13:23:00,31.9,31.4,29.45,NE,44,17.0,17.0,98,0.00,,CLR,0.06,VWS V14.01,2013-04-18 18:23:00,
2013-04-18 13:24:00,31.9,31.4,29.45,NNE,19,7.0,17.0,98,0.00,,CLR,0.06,VWS V14.01,2013-04-18 18:24:00,
2013-04-18 13:25:00,31.9,31.4,29.45,North,355,6.0,17.0,98,0.00,,CLR,0.06,VWS V14.01,2013-04-18 18:25:00,
2013-04-18 13:26:00,31.9,31.4,29.45,NNE,16,13.0,17.0,98,0.00,,CLR,0.06,VWS V14.01,2013-04-18 18:26:00,
2013-04-18 13:27:00,31.9,31.4,29.45,NNE,26,10.0,17.0,98,0.00,,CLR,0.06,VWS V14.01,2013-04-18 18:27:00,
2013-04-18 13:28:00,31.9,31.4,29.45,North,358,13.0,17.0,98,0.00,,CLR,0.06,VWS V14.01,2013-04-18 18:28:00,
2013-04-18 13:29:00,31.9,31.4,29.45,NNE,33,17.0,18.0,98,0.00,,CLR,0.06,VWS V14.01,2013-04-18 18:29:00,
2013-04-18 13:30:00,31.9,31.4,29.44,NNE,29,16.0,19.0,98,0.00,,CLR,0.06,VWS V14.01,2013-04-18 18:30:00,
2013-04-18 13:31:00,31.9,31.4,29.44,NE,43,8.0,16.0,98,0.00,,CLR,0.06,VWS V14.01,2013-04-18 18:31:00,
2013-04-18 13:32:00,31.9,31.4,29.44,NE,46,7.0,16.0,98,0.00,,CLR,0.06,VWS V14.01,2013-04-18 18:32:00,
2013-04-18 13:33:00,31.9,31.4,29.44,NE,34,11.0,16.0,98,0.00,,CLR,0.06,VWS V14.01,2013-04-18 18:33:00,
2013-04-18 13:34:00,31.9,31.4,29.44,NNE,29,8.0,16.0,98,0.00,,CLR,0.06,VWS V14.01,2013-04-18 18:34:00,
2013-04-18 13:35:00,31.9,31.4,29.44,North,10,11.0,16.0,98,0.00,,CLR,0.06,VWS V14.01,2013-04-18 18:35:00,
2013-04-18 13:36:00,31.9,31.4,29.44,NNE,26,8.0,19.0,98,0.00,,CLR,0.06,VWS V14.01,2013-04-18 18:36:00,
2013-04-18 13:37:00,31.9,31.4,29.44,NNE,22,10.0,19.0,98,0.00,,CLR,0.06,VWS V14.01,2013-04-18 18:37:00,
2013-04-18 13:38:00,32.1,31.6,29.44,NNE,29,17.0,19.0,98,0.00,,CLR,0.06,VWS V14.01,2013-04-18 18:38:00,
2013-04-18 13:39:00,31.9,31.4,29.44,NE,53,16.0,19.0,98,0.00,,CLR,0.06,VWS V14.01,2013-04-18 18:39:00,
2013-04-18 13:40:00,31.9,31.4,29.44,NNE,22,0.0,19.0,98,0.00,,CLR,0.06,VWS V14.01,2013-04-18 18:40:00,
2013-04-18 13:41:00,31.9,31.4,29.44,NNE,13,2.0,19.0,98,0.00,,CLR,0.06,VWS V14.01,2013-04-18 18:41:00,
2013-04-18 13:42:00,31.9,31.4,29.44,North,3,8.0,19.0,98,0.00,,CLR,0.06,VWS V14.01,2013-04-18 18:42:00,
2013-04-18 13:43:00,31.9,31.4,29.44,NE,44,12.0,19.0,98,0.00,,CLR,0.06,VWS V14.01,2013-04-18 18:43:00,
2013-04-18 13:44:00,31.9,31.4,29.44,North,353,13.0,19.0,98,0.00,,CLR,0.06,VWS V14.01,2013-04-18 18:44:00,
2013-04-18 13:45:00,31.9,31.4,29.42,North,6,7.0,19.0,98,0.00,,CLR,0.06,VWS V14.01,2013-04-18 18:45:00,
2013-04-18 13:46:00,32.1,31.6,29.42,NNE,17,13.0,19.0,98,0.00,,CLR,0.06,VWS V14.01,2013-04-18 18:46:00,
2013-04-18 13:47:00,31.9,31.4,29.42,NNE,20,15.0,19.0,98,0.00,,CLR,0.06,VWS V14.01,2013-04-18 18:47:00,
2013-04-18 13:48:00,31.9,31.4,29.42,NNE,20,6.0,19.0,98,0.00,,CLR,0.06,VWS V14.01,2013-04-18 18:48:00,
2013-04-18 13:49:00,31.9,31.4,29.42,NNE,31,10.0,19.0,98,0.00,,CLR,0.06,VWS V14.01,2013-04-18 18:49:00,
2013-04-18 13:50:00,32.1,31.6,29.42,NNW,334,8.0,19.0,98,0.00,,CLR,0.06,VWS V14.01,2013-04-18 18:50:00,
2013-04-18 13:51:00,31.9,31.4,29.42,North,358,5.0,19.0,98,0.00,,CLR,0.06,VWS V14.01,2013-04-18 18:51:00,
2013-04-18 13:52:00,31.9,31.4,29.42,NE,37,6.0,19.0,98,0.00,,CLR,0.06,VWS V14.01,2013-04-18 18:52:00,
2013-04-18 13:53:00,32.1,31.6,29.42,North,359,9.0,19.0,98,0.00,,CLR,0.06,VWS V14.01,2013-04-18 18:53:00,
2013-04-18 13:54:00,32.1,31.6,29.42,NE,41,14.0,19.0,98,0.00,,CLR,0.06,VWS V14.01,2013-04-18 18:54:00,
2013-04-18 13:55:00,31.9,31.4,29.42,NE,41,8.0,19.0,98,0.00,,CLR,0.06,VWS V14.01,2013-04-18 18:55:00,
2013-04-18 13:56:00,31.9,31.4,29.42,North,7,12.0,19.0,98,0.00,,CLR,0.06,VWS V14.01,2013-04-18 18:56:00,
2013-04-18 13:57:00,31.9,31.4,29.42,NE,40,14.0,19.0,98,0.00,,CLR,0.06,VWS V14.01,2013-04-18 18:57:00,
2013-04-18 13:58:00,31.9,31.4,29.42,North,5,13.0,19.0,98,0.00,,CLR,0.06,VWS V14.01,2013-04-18 18:58:00,
2013-04-18 13:59:00,32.1,31.6,29.42,North,3,7.0,19.0,98,0.00,,CLR,0.06,VWS V14.01,2013-04-18 18:59:00,
2013-04-18 14:00:00,31.9,31.4,29.42,North,349,3.0,19.0,98,0.00,,CLR,0.06,VWS V14.01,2013-04-18 19:00:00,
2013-04-18 14:01:00,31.9,31.4,29.42,NNE,23,6.0,14.0,98,0.00,,CLR,0.06,VWS V14.01,2013-04-18 19:01:00,
2013-04-18 14:02:00,32.1,31.6,29.42,NNE,29,12.0,14.0,98,0.00,,CLR,0.06,VWS V14.01,2013-04-18 19:02:00,
2013-04-18 14:03:00,31.9,31.4,29.42,NNW,348,1.0,16.0,98,0.00,,CLR,0.06,VWS V14.01,2013-04-18 19:03:00,
2013-04-18 14:04:00,31.9,31.4,29.42,NNE,12,1.0,16.0,98,0.00,,CLR,0.06,VWS V14.01,2013-04-18 19:04:00,
2013-04-18 14:05:00,31.9,31.4,29.42,NNE,24,12.0,16.0,98,0.00,,CLR,0.06,VWS V14.01,2013-04-18 19:05:00,
2013-04-18 14:06:00,31.9,31.4,29.42,North,360,13.0,19.0,98,0.00,,CLR,0.06,VWS V14.01,2013-04-18 19:06:00,
2013-04-18 14:07:00,31.9,31.4,29.42,NNE,13,18.0,19.0,98,0.00,,CLR,0.06,VWS V14.01,2013-04-18 19:07:00,
2013-04-18 14:08:00,31.9,31.4,29.42,North,360,16.0,19.0,98,0.00,,CLR,0.06,VWS V14.01,2013-04-18 19:08:00,
2013-04-18 14:09:00,32.1,31.6,29.42,NNW,343,10.0,19.0,98,0.00,,CLR,0.06,VWS V14.01,2013-04-18 19:09:00,
2013-04-18 14:10:00,31.9,31.4,29.42,NNE,31,16.0,19.0,98,0.00,,CLR,0.06,VWS V14.01,2013-04-18 19:10:00,
2013-04-18 14:11:00,31.9,31.4,29.42,NNE,29,12.0,19.0,98,0.00,,CLR,0.06,VWS V14.01,2013-04-18 19:11:00,
2013-04-18 14:12:00,31.9,31.4,29.42,NNE,22,13.0,19.0,98,0.00,,CLR,0.06,VWS V14.01,2013-04-18 19:12:00,
2013-04-18 14:13:00,32.1,31.6,29.42,NNW,334,8.0,19.0,98,0.00,,CLR,0.06,VWS V14.01,2013-04-18 19:13:00,
2013-04-18 14:14:00,31.9,31.4,29.42,WNW,297,6.0,19.0,98,0.00,,CLR,0.06,VWS V14.01,2013-04-18 19:14:00,
2013-04-18 14:15:00,32.1,31.6,29.40,NNE,19,21.0,21.0,98,0.00,,CLR,0.06,VWS V14.01,2013-04-18 19:15:00,
2013-04-18 14:16:00,31.9,31.4,29.40,NNW,338,16.0,22.0,98,0.00,,CLR,0.06,VWS V14.01,2013-04-18 19:16:00,
2013-04-18 14:17:00,32.1,31.6,29.40,North,358,5.0,22.0,98,0.00,,CLR,0.06,VWS V14.01,2013-04-18 19:17:00,
2013-04-18 14:18:00,31.9,31.4,29.40,NW,321,7.0,22.0,98,0.00,,CLR,0.06,VWS V14.01,2013-04-18 19:18:00,
2013-04-18 14:19:00,32.1,31.6,29.40,NNW,345,12.0,22.0,98,0.00,,CLR,0.06,VWS V14.01,2013-04-18 19:19:00,
2013-04-18 14:20:00,31.9,31.4,29.40,NNE,23,16.0,22.0,98,0.00,,CLR,0.06,VWS V14.01,2013-04-18 19:20:00,
2013-04-18 14:21:00,31.9,31.4,29.40,North,360,6.0,22.0,98,0.00,,CLR,0.06,VWS V14.01,2013-04-18 19:21:00,
2013-04-18 14:22:00,31.9,31.4,29.40,North,5,6.0,22.0,98,0.00,,CLR,0.06,VWS V14.01,2013-04-18 19:22:00,
2013-04-18 14:23:00,31.9,31.4,29.40,North,358,10.0,22.0,98,0.00,,CLR,0.06,VWS V14.01,2013-04-18 19:23:00,
2013-04-18 14:24:00,32.1,31.6,29.40,NNE,19,14.0,22.0,98,0.00,,CLR,0.06,VWS V14.01,2013-04-18 19:24:00,
2013-04-18 14:25:00,31.9,31.4,29.40,North,9,3.0,22.0,98,0.00,,CLR,0.06,VWS V14.01,2013-04-18 19:25:00,
2013-04-18 14:26:00,32.1,31.6,29.40,North,353,10.0,22.0,98,0.00,,CLR,0.06,VWS V14.01,2013-04-18 19:26:00,
2013-04-18 14:27:00,31.9,31.4,29.40,North,350,6.0,22.0,98,0.00,,CLR,0.06,VWS V14.01,2013-04-18 19:27:00,
2013-04-18 14:28:00,31.9,31.4,29.40,NNE,23,18.0,22.0,98,0.00,,CLR,0.06,VWS V14.01,2013-04-18 19:28:00,
2013-04-18 14:29:00,31.9,31.4,29.40,NNE,23,12.0,22.0,98,0.00,,CLR,0.06,VWS V14.01,2013-04-18 19:29:00,
2013-04-18 14:30:00,31.9,31.4,29.42,NNW,332,7.0,22.0,98,0.00,,CLR,0.06,VWS V14.01,2013-04-18 19:30:00,
2013-04-18 14:31:00,31.9,31.4,29.42,NNE,16,5.0,15.0,98,0.00,,CLR,0.06,VWS V14.01,2013-04-18 19:31:00,
2013-04-18 14:32:00,31.9,31.4,29.42,NNW,341,8.0,15.0,98,0.00,,CLR,0.06,VWS V14.01,2013-04-18 19:32:00,
2013-04-18 14:33:00,31.9,31.4,29.42,NW,319,7.0,15.0,98,0.00,,CLR,0.06,VWS V14.01,2013-04-18 19:33:00,
2013-04-18 14:34:00,31.9,31.4,29.42,NNE,29,10.0,15.0,98,0.00,,CLR,0.06,VWS V14.01,2013-04-18 19:34:00,
2013-04-18 14:35:00,31.9,31.4,29.42,NNE,33,10.0,17.0,98,0.00,,CLR,0.06,VWS V14.01,2013-04-18 19:35:00,
2013-04-18 14:36:00,32.1,31.6,29.42,NW,311,0.0,17.0,98,0.00,,CLR,0.06,VWS V14.01,2013-04-18 19:36:00,
2013-04-18 14:37:00,31.9,31.4,29.42,North,360,10.0,17.0,98,0.00,,CLR,0.06,VWS V14.01,2013-04-18 19:37:00,
2013-04-18 14:38:00,32.1,31.6,29.42,NW,325,2.0,17.0,98,0.00,,CLR,0.06,VWS V14.01,2013-04-18 19:38:00,
2013-04-18 14:39:00,31.9,31.4,29.42,NNE,17,13.0,20.0,98,0.00,,CLR,0.06,VWS V14.01,2013-04-18 19:39:00,
2013-04-18 14:40:00,31.9,31.4,29.42,NNE,24,16.0,20.0,98,0.00,,CLR,0.06,VWS V14.01,2013-04-18 19:40:00,
2013-04-18 14:41:00,32.1,31.6,29.42,NNW,332,12.0,20.0,98,0.00,,CLR,0.06,VWS V14.01,2013-04-18 19:41:00,
2013-04-18 14:42:00,32.1,31.6,29.42,NNE,13,17.0,20.0,98,0.00,,CLR,0.06,VWS V14.01,2013-04-18 19:42:00,
2013-04-18 14:43:00,32.1,31.6,29.42,North,358,8.0,20.0,98,0.00,,CLR,0.06,VWS V14.01,2013-04-18 19:43:00,
2013-04-18 14:44:00,31.9,31.4,29.42,NE,38,7.0,20.0,98,0.00,,CLR,0.06,VWS V14.01,2013-04-18 19:44:00,
2013-04-18 14:45:00,31.9,31.4,29.42,North,7,10.0,20.0,98,0.00,,CLR,0.06,VWS V14.01,2013-04-18 19:45:00,
2013-04-18 14:46:00,31.9,31.4,29.42,NNE,14,7.0,20.0,98,0.00,,CLR,0.06,VWS V14.01,2013-04-18 19:46:00,
2013-04-18 14:47:00,32.1,31.6,29.42,NNE,22,13.0,20.0,98,0.00,,CLR,0.06,VWS V14.01,2013-04-18 19:47:00,
2013-04-18 14:48:00,31.9,31.6,29.42,NE,37,18.0,20.0,99,0.00,,CLR,0.06,VWS V14.01,2013-04-18 19:48:00,
2013-04-18 14:49:00,31.9,31.6,29.42,North,356,11.0,20.0,99,0.00,,CLR,0.06,VWS V14.01,2013-04-18 19:49:00,
2013-04-18 14:50:00,31.9,31.6,29.42,North,10,5.0,20.0,99,0.00,,CLR,0.06,VWS V14.01,2013-04-18 19:50:00,
2013-04-18 14:51:00,31.9,31.6,29.42,NNE,30,13.0,20.0,99,0.00,,CLR,0.06,VWS V14.01,2013-04-18 19:51:00,
2013-04-18 14:52:00,32.1,31.9,29.42,North,7,12.0,20.0,99,0.00,,CLR,0.06,VWS V14.01,2013-04-18 19:52:00,
2013-04-18 14:53:00,31.9,31.6,29.42,North,2,6.0,20.0,99,0.00,,CLR,0.06,VWS V14.01,2013-04-18 19:53:00,
2013-04-18 14:54:00,31.9,31.6,29.42,North,353,13.0,20.0,99,0.00,,CLR,0.06,VWS V14.01,2013-04-18 19:54:00,
2013-04-18 14:55:00,32.1,31.9,29.42,NNE,17,2.0,20.0,99,0.00,,CLR,0.06,VWS V14.01,2013-04-18 19:55:00,
2013-04-18 14:56:00,32.1,31.9,29.42,NW,319,1.0,20.0,99,0.00,,CLR,0.06,VWS V14.01,2013-04-18 19:56:00,
2013-04-18 14:57:00,31.9,31.6,29.42,NNE,14,10.0,20.0,99,0.00,,CLR,0.06,VWS V14.01,2013-04-18 19:57:00,
2013-04-18 14:58:00,32.1,31.9,29.42,NE,37,16.0,20.0,99,0.00,,CLR,0.06,VWS V14.01,2013-04-18 19:58:00,
2013-04-18 14:59:00,32.1,31.9,29.42,NNE,26,12.0,20.0,99,0.01,,CLR,0.07,VWS V14.01,2013-04-18 19:59:00,
2013-04-18 15:00:00,31.9,31.6,29.42,NNW,331,10.0,20.0,99,0.01,,CLR,0.07,VWS V14.01,2013-04-18 20:00:00,
2013-04-18 15:01:00,32.1,31.9,29.42,NNE,17,10.0,12.0,99,0.01,,CLR,0.07,VWS V14.01,2013-04-18 20:01:00,
2013-04-18 15:02:00,32.1,31.9,29.42,NNE,30,7.0,12.0,99,0.01,,CLR,0.07,VWS V14.01,2013-04-18 20:02:00,
2013-04-18 15:03:00,31.9,31.6,29.42,NW,325,0.0,12.0,99,0.01,,CLR,0.07,VWS V14.01,2013-04-18 20:03:00,
2013-04-18 15:04:00,32.1,31.9,29.42,NNW,332,2.0,12.0,99,0.01,,CLR,0.07,VWS V14.01,2013-04-18 20:04:00,
2013-04-18 15:05:00,32.1,31.9,29.42,NNE,16,7.0,12.0,99,0.01,,CLR,0.07,VWS V14.01,2013-04-18 20:05:00,
2013-04-18 15:06:00,32.1,31.9,29.42,North,358,5.0,12.0,99,0.01,,CLR,0.07,VWS V14.01,2013-04-18 20:06:00,
2013-04-18 15:07:00,32.1,31.9,29.42,NNE,16,7.0,13.0,99,0.01,,CLR,0.07,VWS V14.01,2013-04-18 20:07:00,
2013-04-18 15:08:00,32.2,32.0,29.42,North,358,5.0,13.0,99,0.01,,CLR,0.07,VWS V14.01,2013-04-18 20:08:00,
2013-04-18 15:09:00,32.1,31.9,29.42,NNW,328,3.0,13.0,99,0.01,,CLR,0.07,VWS V14.01,2013-04-18 20:09:00,
2013-04-18 15:10:00,32.1,31.9,29.42,NNW,329,10.0,13.0,99,0.01,,CLR,0.07,VWS V14.01,2013-04-18 20:10:00,
2013-04-18 15:11:00,32.2,32.0,29.42,North,350,15.0,15.0,99,0.01,,CLR,0.07,VWS V14.01,2013-04-18 20:11:00,
2013-04-18 15:12:00,32.2,32.0,29.42,NNW,328,4.0,15.0,99,0.01,,CLR,0.07,VWS V14.01,2013-04-18 20:12:00,
2013-04-18 15:13:00,32.2,32.0,29.42,North,349,9.0,15.0,99,0.01,,CLR,0.07,VWS V14.01,2013-04-18 20:13:00,
2013-04-18 15:14:00,32.1,31.9,29.42,NNW,336,5.0,19.0,99,0.01,,CLR,0.07,VWS V14.01,2013-04-18 20:14:00,
2013-04-18 15:15:00,32.2,32.0,29.41,North,349,8.0,19.0,99,0.01,,CLR,0.07,VWS V14.01,2013-04-18 20:15:00,
2013-04-18 15:16:00,32.2,32.0,29.41,NNE,12,10.0,19.0,99,0.01,,CLR,0.07,VWS V14.01,2013-04-18 20:16:00,
2013-04-18 15:17:00,32.2,32.0,29.41,North,352,1.0,19.0,99,0.01,,CLR,0.07,VWS V14.01,2013-04-18 20:17:00,
2013-04-18 15:18:00,32.2,32.0,29.41,North,360,7.0,19.0,99,0.01,,CLR,0.07,VWS V14.01,2013-04-18 20:18:00,
2013-04-18 15:19:00,32.2,32.0,29.41,NNW,345,8.0,19.0,99,0.01,,CLR,0.07,VWS V14.01,2013-04-18 20:19:00,
2013-04-18 15:20:00,32.4,32.2,29.41,NW,324,10.0,19.0,99,0.01,,CLR,0.07,VWS V14.01,2013-04-18 20:20:00,
2013-04-18 15:21:00,32.2,32.0,29.41,North,360,8.0,19.0,99,0.01,,CLR,0.07,VWS V14.01,2013-04-18 20:21:00,
2013-04-18 15:22:00,32.2,32.0,29.41,NW,325,7.0,19.0,99,0.01,,CLR,0.07,VWS V14.01,2013-04-18 20:22:00,
2013-04-18 15:23:00,32.4,32.2,29.41,NNW,338,2.0,19.0,99,0.01,,CLR,0.07,VWS V14.01,2013-04-18 20:23:00,
2013-04-18 15:24:00,32.4,32.2,29.41,NNE,23,13.0,19.0,99,0.01,,CLR,0.07,VWS V14.01,2013-04-18 20:24:00,
2013-04-18 15:25:00,32.4,32.2,29.41,NNE,24,7.0,19.0,99,0.01,,CLR,0.07,VWS V14.01,2013-04-18 20:25:00,
2013-04-18 15:26:00,32.4,32.2,29.41,North,9,13.0,19.0,99,0.01,,CLR,0.07,VWS V14.01,2013-04-18 20:26:00,
2013-04-18 15:27:00,32.4,32.2,29.41,NW,324,8.0,21.0,99,0.01,,CLR,0.07,VWS V14.01,2013-04-18 20:27:00,
2013-04-18 15:28:00,32.2,32.0,29.41,North,352,2.0,21.0,99,0.01,,CLR,0.07,VWS V14.01,2013-04-18 20:28:00,
2013-04-18 15:29:00,32.4,32.2,29.41,North,7,11.0,21.0,99,0.01,,CLR,0.07,VWS V14.01,2013-04-18 20:29:00,
2013-04-18 15:30:00,32.2,32.0,29.40,NNW,329,7.0,21.0,99,0.01,,CLR,0.07,VWS V14.01,2013-04-18 20:30:00,
2013-04-18 15:31:00,32.2,32.0,29.40,NE,47,7.0,12.0,99,0.01,,CLR,0.07,VWS V14.01,2013-04-18 20:31:00,
2013-04-18 15:32:00,32.2,32.0,29.40,NNW,345,13.0,20.0,99,0.01,,CLR,0.07,VWS V14.01,2013-04-18 20:32:00,
2013-04-18 15:33:00,32.4,32.2,29.40,NNE,33,11.0,20.0,99,0.01,,CLR,0.07,VWS V14.01,2013-04-18 20:33:00,
2013-04-18 15:34:00,32.4,32.4,29.40,North,356,13.0,20.0,100,0.01,,CLR,0.07,VWS V14.01,2013-04-18 20:34:00,
2013-04-18 15:35:00,32.4,32.4,29.40,NNW,348,8.0,20.0,100,0.01,,CLR,0.07,VWS V14.01,2013-04-18 20:35:00,
2013-04-18 15:36:00,32.4,32.4,29.40,NE,47,10.0,20.0,100,0.01,,CLR,0.07,VWS V14.01,2013-04-18 20:36:00,
2013-04-18 15:37:00,32.4,32.4,29.40,NNW,334,8.0,20.0,100,0.01,,CLR,0.07,VWS V14.01,2013-04-18 20:37:00,
2013-04-18 15:38:00,32.4,32.4,29.40,North,358,13.0,20.0,100,0.01,,CLR,0.07,VWS V14.01,2013-04-18 20:38:00,
2013-04-18 15:39:00,32.4,32.4,29.40,North,349,4.0,20.0,100,0.01,,CLR,0.07,VWS V14.01,2013-04-18 20:39:00,
2013-04-18 15:40:00,32.4,32.4,29.40,NNE,13,12.0,20.0,100,0.01,,CLR,0.07,VWS V14.01,2013-04-18 20:40:00,
2013-04-18 15:41:00,32.4,32.4,29.40,NNW,332,6.0,20.0,100,0.01,,CLR,0.07,VWS V14.01,2013-04-18 20:41:00,
2013-04-18 15:42:00,32.4,32.4,29.40,NE,40,12.0,20.0,100,0.01,,CLR,0.07,VWS V14.01,2013-04-18 20:42:00,
2013-04-18 15:43:00,32.4,32.4,29.40,North,9,14.0,20.0,100,0.01,,CLR,0.07,VWS V14.01,2013-04-18 20:43:00,
2013-04-18 15:44:00,32.5,32.5,29.40,North,356,12.0,20.0,100,0.01,,CLR,0.07,VWS V14.01,2013-04-18 20:44:00,
2013-04-18 15:45:00,32.5,32.5,29.38,NNW,339,1.0,20.0,100,0.01,,CLR,0.07,VWS V14.01,2013-04-18 20:45:00,
2013-04-18 15:46:00,32.5,32.5,29.38,NNW,329,10.0,20.0,100,0.01,,CLR,0.07,VWS V14.01,2013-04-18 20:46:00,
2013-04-18 15:47:00,32.4,32.4,29.38,North,358,11.0,20.0,100,0.01,,CLR,0.07,VWS V14.01,2013-04-18 20:47:00,
2013-04-18 15:48:00,32.5,32.5,29.38,NNW,334,6.0,20.0,100,0.01,,CLR,0.07,VWS V14.01,2013-04-18 20:48:00,
2013-04-18 15:49:00,32.5,32.5,29.38,ENE,61,5.0,20.0,100,0.01,,CLR,0.07,VWS V14.01,2013-04-18 20:49:00,
2013-04-18 15:50:00,32.5,32.5,29.38,NNW,343,14.0,20.0,100,0.01,,CLR,0.07,VWS V14.01,2013-04-18 20:50:00,
2013-04-18 15:51:00,32.5,32.5,29.38,NNE,29,15.0,20.0,100,0.01,,CLR,0.07,VWS V14.01,2013-04-18 20:51:00,
2013-04-18 15:52:00,32.4,32.4,29.38,North,360,8.0,20.0,100,0.01,,CLR,0.07,VWS V14.01,2013-04-18 20:52:00,
2013-04-18 15:53:00,32.5,32.5,29.38,NNW,338,17.0,20.0,100,0.01,,CLR,0.07,VWS V14.01,2013-04-18 20:53:00,
2013-04-18 15:54:00,32.4,32.4,29.38,NW,307,0.0,20.0,100,0.01,,CLR,0.07,VWS V14.01,2013-04-18 20:54:00,
2013-04-18 15:55:00,32.4,32.4,29.38,NNE,27,10.0,20.0,100,0.01,,CLR,0.07,VWS V14.01,2013-04-18 20:55:00,
2013-04-18 15:56:00,32.4,32.4,29.38,North,352,14.0,20.0,100,0.01,,CLR,0.07,VWS V14.01,2013-04-18 20:56:00,
2013-04-18 15:57:00,32.4,32.4,29.38,NNE,17,6.0,20.0,100,0.01,,CLR,0.07,VWS V14.01,2013-04-18 20:57:00,
2013-04-18 15:58:00,32.5,32.5,29.38,NNW,343,6.0,20.0,100,0.01,,CLR,0.07,VWS V14.01,2013-04-18 20:58:00,
2013-04-18 15:59:00,32.4,32.4,29.38,NNE,14,13.0,20.0,100,0.01,,CLR,0.07,VWS V14.01,2013-04-18 20:59:00,
2013-04-18 16:00:00,32.5,32.5,29.39,NNE,17,14.0,20.0,100,0.02,,CLR,0.08,VWS V14.01,2013-04-18 21:00:00,
2013-04-18 16:01:00,32.4,32.4,29.39,ENE,67,7.0,14.0,100,0.01,,CLR,0.08,VWS V14.01,2013-04-18 21:01:00,
2013-04-18 16:02:00,32.5,32.5,29.39,NNE,12,14.0,16.0,100,0.01,,CLR,0.08,VWS V14.01,2013-04-18 21:02:00,
2013-04-18 16:03:00,32.5,32.5,29.39,NNW,348,12.0,18.0,100,0.01,,CLR,0.08,VWS V14.01,2013-04-18 21:03:00,
2013-04-18 16:04:00,32.5,32.5,29.39,NNE,24,13.0,22.0,100,0.01,,CLR,0.08,VWS V14.01,2013-04-18 21:04:00,
2013-04-18 16:05:00,32.4,32.4,29.39,North,353,17.0,22.0,100,0.01,,CLR,0.08,VWS V14.01,2013-04-18 21:05:00,
2013-04-18 16:06:00,32.5,32.5,29.39,North,10,16.0,22.0,100,0.01,,CLR,0.08,VWS V14.01,2013-04-18 21:06:00,
2013-04-18 16:07:00,32.5,32.5,29.39,North,353,8.0,22.0,100,0.01,,CLR,0.08,VWS V14.01,2013-04-18 21:07:00,
2013-04-18 16:08:00,32.5,32.5,29.39,NE,43,7.0,22.0,100,0.01,,CLR,0.08,VWS V14.01,2013-04-18 21:08:00,
2013-04-18 16:09:00,32.5,32.5,29.39,North,350,12.0,22.0,100,0.01,,CLR,0.08,VWS V14.01,2013-04-18 21:09:00,
2013-04-18 16:10:00,32.7,32.7,29.39,NNE,23,16.0,22.0,100,0.01,,CLR,0.08,VWS V14.01,2013-04-18 21:10:00,
2013-04-18 16:11:00,32.5,32.5,29.39,North,355,12.0,22.0,100,0.01,,CLR,0.08,VWS V14.01,2013-04-18 21:11:00,
2013-04-18 16:12:00,32.5,32.5,29.39,NW,312,8.0,22.0,100,0.01,,CLR,0.08,VWS V14.01,2013-04-18 21:12:00,
2013-04-18 16:13:00,32.5,32.5,29.39,NNW,343,9.0,22.0,100,0.01,,CLR,0.08,VWS V14.01,2013-04-18 21:13:00,
2013-04-18 16:14:00,32.4,32.4,29.39,NW,319,3.0,22.0,100,0.01,,CLR,0.08,VWS V14.01,2013-04-18 21:14:00,
2013-04-18 16:15:00,32.5,32.5,29.37,North,10,16.0,22.0,100,0.01,,CLR,0.08,VWS V14.01,2013-04-18 21:15:00,
2013-04-18 16:16:00,32.4,32.4,29.37,North,9,20.0,22.0,100,0.01,,CLR,0.08,VWS V14.01,2013-04-18 21:16:00,
2013-04-18 16:17:00,32.7,32.7,29.37,NE,38,17.0,22.0,100,0.01,,CLR,0.08,VWS V14.01,2013-04-18 21:17:00,
2013-04-18 16:18:00,32.4,32.4,29.37,NNW,339,3.0,22.0,100,0.01,,CLR,0.08,VWS V14.01,2013-04-18 21:18:00,
2013-04-18 16:19:00,32.4,32.4,29.37,NNW,335,13.0,22.0,100,0.01,,CLR,0.08,VWS V14.01,2013-04-18 21:19:00,
2013-04-18 16:20:00,32.4,32.4,29.37,North,358,14.0,22.0,100,0.01,,CLR,0.08,VWS V14.01,2013-04-18 21:20:00,
2013-04-18 16:21:00,32.5,32.5,29.37,NNW,334,1.0,22.0,100,0.01,,CLR,0.08,VWS V14.01,2013-04-18 21:21:00,
2013-04-18 16:22:00,32.5,32.5,29.37,NNW,348,11.0,22.0,100,0.01,,CLR,0.08,VWS V14.01,2013-04-18 21:22:00,
2013-04-18 16:23:00,32.7,32.7,29.37,North,9,16.0,22.0,100,0.01,,CLR,0.08,VWS V14.01,2013-04-18 21:23:00,
2013-04-18 16:24:00,32.8,32.8,29.37,NNW,336,7.0,22.0,100,0.01,,CLR,0.08,VWS V14.01,2013-04-18 21:24:00,
2013-04-18 16:25:00,32.7,32.7,29.37,NNW,329,6.0,22.0,100,0.01,,CLR,0.08,VWS V14.01,2013-04-18 21:25:00,
2013-04-18 16:26:00,32.7,32.7,29.37,NNW,334,7.0,22.0,100,0.01,,CLR,0.08,VWS V14.01,2013-04-18 21:26:00,
2013-04-18 16:27:00,32.4,32.4,29.37,North,6,8.0,22.0,100,0.01,,CLR,0.08,VWS V14.01,2013-04-18 21:27:00,
2013-04-18 16:28:00,32.5,32.5,29.37,North,353,1.0,22.0,100,0.01,,CLR,0.08,VWS V14.01,2013-04-18 21:28:00,
2013-04-18 16:29:00,32.7,32.7,29.37,NW,321,5.0,22.0,100,0.01,,CLR,0.08,VWS V14.01,2013-04-18 21:29:00,
2013-04-18 16:30:00,32.5,32.5,29.38,North,6,8.0,22.0,100,0.01,,CLR,0.08,VWS V14.01,2013-04-18 21:30:00,
2013-04-18 16:31:00,32.7,32.7,29.38,NNW,328,8.0,18.0,100,0.01,,CLR,0.08,VWS V14.01,2013-04-18 21:31:00,
2013-04-18 16:32:00,32.7,32.7,29.38,NW,319,7.0,18.0,100,0.01,,CLR,0.08,VWS V14.01,2013-04-18 21:32:00,
2013-04-18 16:33:00,32.4,32.4,29.38,NW,324,2.0,18.0,100,0.01,,CLR,0.08,VWS V14.01,2013-04-18 21:33:00,
2013-04-18 16:34:00,32.5,32.5,29.38,NNE,23,16.0,18.0,100,0.01,,CLR,0.08,VWS V14.01,2013-04-18 21:34:00,
2013-04-18 16:35:00,32.5,32.5,29.38,NE,47,9.0,18.0,100,0.01,,CLR,0.08,VWS V14.01,2013-04-18 21:35:00,
2013-04-18 16:36:00,32.7,32.7,29.38,North,350,16.0,21.0,100,0.01,,CLR,0.08,VWS V14.01,2013-04-18 21:36:00,
2013-04-18 16:37:00,32.5,32.5,29.38,NNE,12,12.0,21.0,100,0.01,,CLR,0.08,VWS V14.01,2013-04-18 21:37:00,
2013-04-18 16:38:00,32.5,32.5,29.38,NNE,29,12.0,21.0,100,0.01,,CLR,0.08,VWS V14.01,2013-04-18 21:38:00,
2013-04-18 16:39:00,32.7,32.7,29.38,NNW,342,7.0,21.0,100,0.01,,CLR,0.08,VWS V14.01,2013-04-18 21:39:00,
2013-04-18 16:40:00,32.5,32.5,29.38,North,360,5.0,21.0,100,0.01,,CLR,0.08,VWS V14.01,2013-04-18 21:40:00,
2013-04-18 16:41:00,32.7,32.7,29.38,NW,321,10.0,21.0,100,0.01,,CLR,0.08,VWS V14.01,2013-04-18 21:41:00,
2013-04-18 16:42:00,32.5,32.5,29.38,North,5,11.0,21.0,100,0.01,,CLR,0.08,VWS V14.01,2013-04-18 21:42:00,
2013-04-18 16:43:00,32.8,32.8,29.38,NNW,336,8.0,21.0,100,0.01,,CLR,0.08,VWS V14.01,2013-04-18 21:43:00,
2013-04-18 16:44:00,32.7,32.7,29.38,NNW,341,6.0,21.0,100,0.01,,CLR,0.08,VWS V14.01,2013-04-18 21:44:00,
2013-04-18 16:45:00,32.5,32.5,29.36,North,6,13.0,21.0,100,0.01,,CLR,0.08,VWS V14.01,2013-04-18 21:45:00,
2013-04-18 16:46:00,32.8,32.8,29.36,NW,307,8.0,21.0,100,0.01,,CLR,0.08,VWS V14.01,2013-04-18 21:46:00,
2013-04-18 16:47:00,32.7,32.7,29.36,NNW,339,6.0,21.0,100,0.01,,CLR,0.08,VWS V14.01,2013-04-18 21:47:00,
2013-04-18 16:48:00,32.7,32.7,29.36,NNE,23,12.0,21.0,100,0.01,,CLR,0.08,VWS V14.01,2013-04-18 21:48:00,
2013-04-18 16:49:00,32.5,32.5,29.36,North,9,13.0,21.0,100,0.01,,CLR,0.08,VWS V14.01,2013-04-18 21:49:00,
2013-04-18 16:50:00,32.7,32.7,29.36,NNE,13,7.0,21.0,100,0.01,,CLR,0.08,VWS V14.01,2013-04-18 21:50:00,
2013-04-18 16:51:00,32.5,32.5,29.36,NW,326,6.0,21.0,100,0.01,,CLR,0.08,VWS V14.01,2013-04-18 21:51:00,
2013-04-18 16:52:00,32.5,32.5,29.36,NNE,29,18.0,22.0,100,0.01,,CLR,0.08,VWS V14.01,2013-04-18 21:52:00,
2013-04-18 16:53:00,32.7,32.7,29.36,NNW,341,18.0,24.0,100,0.01,,CLR,0.08,VWS V14.01,2013-04-18 21:53:00,
2013-04-18 16:54:00,32.7,32.7,29.36,NE,41,10.0,24.0,100,0.01,,CLR,0.08,VWS V14.01,2013-04-18 21:54:00,
2013-04-18 16:55:00,32.5,32.5,29.36,North,358,12.0,24.0,100,0.01,,CLR,0.08,VWS V14.01,2013-04-18 21:55:00,
2013-04-18 16:56:00,32.7,32.7,29.36,North,359,13.0,24.0,100,0.01,,CLR,0.08,VWS V14.01,2013-04-18 21:56:00,
2013-04-18 16:57:00,32.5,32.5,29.36,NNE,33,8.0,24.0,100,0.02,,CLR,0.09,VWS V14.01,2013-04-18 21:57:00,
2013-04-18 16:58:00,32.5,32.5,29.36,NNE,33,11.0,24.0,100,0.02,,CLR,0.09,VWS V14.01,2013-04-18 21:58:00,
2013-04-18 16:59:00,32.7,32.7,29.36,NNW,343,14.0,24.0,100,0.02,,CLR,0.09,VWS V14.01,2013-04-18 21:59:00,
2013-04-18 17:00:00,32.5,32.5,29.36,NW,317,17.0,24.0,100,0.02,,CLR,0.09,VWS V14.01,2013-04-18 22:00:00,
2013-04-18 17:01:00,32.8,32.8,29.36,NNW,348,7.0,17.0,100,0.01,,CLR,0.09,VWS V14.01,2013-04-18 22:01:00,
2013-04-18 17:02:00,32.5,32.5,29.36,NW,319,10.0,17.0,100,0.01,,CLR,0.09,VWS V14.01,2013-04-18 22:02:00,
2013-04-18 17:03:00,32.5,32.5,29.36,North,358,12.0,17.0,100,0.01,,CLR,0.09,VWS V14.01,2013-04-18 22:03:00,
2013-04-18 17:04:00,32.7,32.7,29.36,North,6,16.0,17.0,100,0.01,,CLR,0.09,VWS V14.01,2013-04-18 22:04:00,
2013-04-18 17:05:00,32.8,32.8,29.36,NNW,338,11.0,19.0,100,0.01,,CLR,0.09,VWS V14.01,2013-04-18 22:05:00,
2013-04-18 17:06:00,32.8,32.8,29.36,NNW,343,7.0,19.0,100,0.01,,CLR,0.09,VWS V14.01,2013-04-18 22:06:00,
2013-04-18 17:07:00,32.7,32.7,29.36,NW,325,19.0,19.0,100,0.01,,CLR,0.09,VWS V14.01,2013-04-18 22:07:00,
2013-04-18 17:08:00,32.7,32.7,29.36,NE,34,12.0,19.0,100,0.01,,CLR,0.09,VWS V14.01,2013-04-18 22:08:00,
2013-04-18 17:09:00,32.7,32.7,29.36,North,3,12.0,19.0,100,0.01,,CLR,0.09,VWS V14.01,2013-04-18 22:09:00,
2013-04-18 17:10:00,32.5,32.5,29.36,NNW,342,8.0,19.0,100,0.01,,CLR,0.09,VWS V14.01,2013-04-18 22:10:00,
2013-04-18 17:11:00,32.8,32.8,29.36,NNW,339,5.0,19.0,100,0.01,,CLR,0.09,VWS V14.01,2013-04-18 22:11:00,
2013-04-18 17:12:00,32.5,32.5,29.36,NE,41,13.0,19.0,100,0.01,,CLR,0.09,VWS V14.01,2013-04-18 22:12:00,
2013-04-18 17:13:00,32.7,32.7,29.36,North,10,11.0,20.0,100,0.01,,CLR,0.09,VWS V14.01,2013-04-18 22:13:00,
2013-04-18 17:14:00,32.7,32.7,29.36,NNW,338,13.0,20.0,100,0.01,,CLR,0.09,VWS V14.01,2013-04-18 22:14:00,
2013-04-18 17:15:00,32.5,32.5,29.36,North,3,11.0,20.0,100,0.01,,CLR,0.09,VWS V14.01,2013-04-18 22:15:00,
2013-04-18 17:16:00,32.5,32.5,29.36,NNW,339,7.0,20.0,100,0.01,,CLR,0.09,VWS V14.01,2013-04-18 22:16:00,
2013-04-18 17:17:00,32.7,32.7,29.36,NNE,16,11.0,20.0,100,0.01,,CLR,0.09,VWS V14.01,2013-04-18 22:17:00,
2013-04-18 17:18:00,32.8,32.8,29.36,North,359,11.0,20.0,100,0.01,,CLR,0.09,VWS V14.01,2013-04-18 22:18:00,
2013-04-18 17:19:00,32.7,32.7,29.36,North,350,11.0,20.0,100,0.01,,CLR,0.09,VWS V14.01,2013-04-18 22:19:00,
2013-04-18 17:20:00,32.7,32.7,29.36,NNE,24,13.0,20.0,100,0.01,,CLR,0.09,VWS V14.01,2013-04-18 22:20:00,
2013-04-18 17:21:00,32.5,32.5,29.36,NNE,31,6.0,20.0,100,0.01,,CLR,0.09,VWS V14.01,2013-04-18 22:21:00,
2013-04-18 17:22:00,32.8,32.8,29.36,North,7,11.0,20.0,100,0.01,,CLR,0.09,VWS V14.01,2013-04-18 22:22:00,
2013-04-18 17:23:00,32.7,32.7,29.36,NNW,334,3.0,20.0,100,0.01,,CLR,0.09,VWS V14.01,2013-04-18 22:23:00,
2013-04-18 17:24:00,32.8,32.8,29.36,North,6,1.0,20.0,100,0.01,,CLR,0.09,VWS V14.01,2013-04-18 22:24:00,
2013-04-18 17:25:00,32.8,32.8,29.36,WNW,297,1.0,20.0,100,0.01,,CLR,0.09,VWS V14.01,2013-04-18 22:25:00,
2013-04-18 17:26:00,32.8,32.8,29.36,NNW,329,9.0,20.0,100,0.01,,CLR,0.09,VWS V14.01,2013-04-18 22:26:00,
2013-04-18 17:27:00,32.5,32.5,29.36,NNW,338,12.0,20.0,100,0.01,,CLR,0.09,VWS V14.01,2013-04-18 22:27:00,
2013-04-18 17:28:00,32.8,32.8,29.36,North,3,11.0,20.0,100,0.01,,CLR,0.09,VWS V14.01,2013-04-18 22:28:00,
2013-04-18 17:29:00,32.7,32.7,29.36,NW,315,9.0,20.0,100,0.01,,CLR,0.09,VWS V14.01,2013-04-18 22:29:00,
2013-04-18 17:30:00,32.7,32.7,29.38,NNW,338,7.0,20.0,100,0.01,,CLR,0.09,VWS V14.01,2013-04-18 22:30:00,
2013-04-18 17:31:00,32.8,32.8,29.38,NNW,343,6.0,11.0,100,0.01,,CLR,0.09,VWS V14.01,2013-04-18 22:31:00,
2013-04-18 17:32:00,32.8,32.8,29.38,NW,315,9.0,11.0,100,0.01,,CLR,0.09,VWS V14.01,2013-04-18 22:32:00,
2013-04-18 17:33:00,32.7,32.7,29.38,NNE,31,5.0,11.0,100,0.01,,CLR,0.09,VWS V14.01,2013-04-18 22:33:00,
2013-04-18 17:34:00,32.5,32.5,29.38,NNW,342,10.0,11.0,100,0.01,,CLR,0.09,VWS V14.01,2013-04-18 22:34:00,
2013-04-18 17:35:00,32.8,32.8,29.38,NNW,328,0.0,11.0,100,0.01,,CLR,0.09,VWS V14.01,2013-04-18 22:35:00,
2013-04-18 17:36:00,32.7,32.7,29.38,North,350,9.0,11.0,100,0.01,,CLR,0.09,VWS V14.01,2013-04-18 22:36:00,
2013-04-18 17:37:00,32.5,32.5,29.38,NW,324,5.0,11.0,100,0.01,,CLR,0.09,VWS V14.01,2013-04-18 22:37:00,
2013-04-18 17:38:00,32.8,32.8,29.38,NW,315,4.0,11.0,100,0.01,,CLR,0.09,VWS V14.01,2013-04-18 22:38:00,
2013-04-18 17:39:00,32.7,32.7,29.38,NNW,329,0.0,11.0,100,0.01,,CLR,0.09,VWS V14.01,2013-04-18 22:39:00,
2013-04-18 17:40:00,32.5,32.5,29.38,NNW,329,0.0,11.0,100,0.01,,CLR,0.09,VWS V14.01,2013-04-18 22:40:00,
2013-04-18 17:41:00,32.5,32.5,29.38,NE,36,0.0,11.0,100,0.01,,CLR,0.09,VWS V14.01,2013-04-18 22:41:00,
2013-04-18 17:42:00,32.7,32.7,29.38,NNW,346,0.0,11.0,100,0.01,,CLR,0.09,VWS V14.01,2013-04-18 22:42:00,
2013-04-18 17:43:00,32.5,32.5,29.38,NNW,331,0.0,11.0,100,0.01,,CLR,0.09,VWS V14.01,2013-04-18 22:43:00,
2013-04-18 17:44:00,32.7,32.7,29.38,North,10,0.0,11.0,100,0.01,,CLR,0.09,VWS V14.01,2013-04-18 22:44:00,
2013-04-18 17:45:00,32.5,32.5,29.38,North,352,0.0,11.0,100,0.01,,CLR,0.09,VWS V14.01,2013-04-18 22:45:00,
2013-04-18 17:46:00,32.5,32.5,29.38,NNE,13,0.0,11.0,100,0.01,,CLR,0.09,VWS V14.01,2013-04-18 22:46:00,
2013-04-18 17:47:00,32.7,32.7,29.38,NW,308,0.0,11.0,100,0.01,,CLR,0.09,VWS V14.01,2013-04-18 22:47:00,
2013-04-18 17:48:00,32.7,32.7,29.38,North,350,0.0,11.0,100,0.01,,CLR,0.09,VWS V14.01,2013-04-18 22:48:00,
2013-04-18 17:49:00,32.7,32.7,29.38,NNW,346,0.0,11.0,100,0.01,,CLR,0.09,VWS V14.01,2013-04-18 22:49:00,
2013-04-18 17:50:00,32.5,32.5,29.38,NW,325,0.0,11.0,100,0.01,,CLR,0.09,VWS V14.01,2013-04-18 22:50:00,
2013-04-18 17:51:00,32.7,32.7,29.38,NNE,14,0.0,11.0,100,0.01,,CLR,0.09,VWS V14.01,2013-04-18 22:51:00,
2013-04-18 17:52:00,32.7,32.7,29.38,NNE,24,0.0,11.0,100,0.01,,CLR,0.09,VWS V14.01,2013-04-18 22:52:00,
2013-04-18 17:53:00,32.7,32.7,29.38,NW,325,0.0,11.0,100,0.01,,CLR,0.09,VWS V14.01,2013-04-18 22:53:00,
2013-04-18 17:54:00,32.5,32.5,29.38,NW,319,0.0,11.0,100,0.01,,CLR,0.09,VWS V14.01,2013-04-18 22:54:00,
2013-04-18 17:55:00,32.7,32.7,29.38,NNW,331,0.0,11.0,100,0.01,,CLR,0.09,VWS V14.01,2013-04-18 22:55:00,
2013-04-18 17:56:00,32.5,32.5,29.38,North,352,0.0,11.0,100,0.01,,CLR,0.09,VWS V14.01,2013-04-18 22:56:00,
2013-04-18 17:57:00,32.5,32.5,29.38,NNW,334,0.0,11.0,100,0.01,,CLR,0.09,VWS V14.01,2013-04-18 22:57:00,
2013-04-18 17:58:00,32.7,32.7,29.38,WNW,298,0.0,11.0,100,0.01,,CLR,0.09,VWS V14.01,2013-04-18 22:58:00,
2013-04-18 17:59:00,32.4,32.4,29.38,NW,315,0.0,11.0,100,0.01,,CLR,0.09,VWS V14.01,2013-04-18 22:59:00,
2013-04-18 18:00:00,32.7,32.7,29.37,NNW,346,0.0,11.0,100,0.01,,CLR,0.09,VWS V14.01,2013-04-18 23:00:00,
2013-04-18 18:01:00,32.7,32.7,29.37,NW,326,0.0,0.0,100,0.00,,CLR,0.09,VWS V14.01,2013-04-18 23:01:00,
2013-04-18 18:02:00,32.5,32.5,29.37,NW,310,0.0,0.0,100,0.00,,CLR,0.09,VWS V14.01,2013-04-18 23:02:00,
2013-04-18 18:03:00,32.7,32.7,29.37,WNW,295,0.0,0.0,100,0.00,,CLR,0.09,VWS V14.01,2013-04-18 23:03:00,
2013-04-18 18:04:00,32.5,32.5,29.37,NNW,338,0.0,0.0,100,0.00,,CLR,0.09,VWS V14.01,2013-04-18 23:04:00,
2013-04-18 18:05:00,32.5,32.5,29.37,NNW,331,0.0,0.0,100,0.00,,CLR,0.09,VWS V14.01,2013-04-18 23:05:00,
2013-04-18 18:06:00,32.5,32.5,29.37,NW,324,0.0,0.0,100,0.00,,CLR,0.09,VWS V14.01,2013-04-18 23:06:00,
2013-04-18 18:07:00,32.7,32.7,29.37,NW,324,0.0,0.0,100,0.00,,CLR,0.09,VWS V14.01,2013-04-18 23:07:00,
2013-04-18 18:08:00,32.5,32.5,29.37,NNW,329,0.0,0.0,100,0.00,,CLR,0.09,VWS V14.01,2013-04-18 23:08:00,
2013-04-18 18:09:00,32.7,32.7,29.37,North,355,0.0,0.0,100,0.00,,CLR,0.09,VWS V14.01,2013-04-18 23:09:00,
2013-04-18 18:10:00,32.4,32.4,29.37,NNW,348,0.0,0.0,100,0.00,,CLR,0.09,VWS V14.01,2013-04-18 23:10:00,
2013-04-18 18:11:00,32.5,32.5,29.37,NW,318,0.0,0.0,100,0.00,,CLR,0.09,VWS V14.01,2013-04-18 23:11:00,
2013-04-18 18:12:00,32.5,32.5,29.37,NW,318,0.0,0.0,100,0.00,,CLR,0.09,VWS V14.01,2013-04-18 23:12:00,
2013-04-18 18:13:00,32.5,32.5,29.37,NE,38,0.0,0.0,100,0.00,,CLR,0.09,VWS V14.01,2013-04-18 23:13:00,
2013-04-18 18:14:00,32.7,32.7,29.37,WNW,302,0.0,0.0,100,0.00,,CLR,0.09,VWS V14.01,2013-04-18 23:14:00,
2013-04-18 18:15:00,32.5,32.5,29.37,NW,307,0.0,0.0,100,0.00,,CLR,0.09,VWS V14.01,2013-04-18 23:15:00,
2013-04-18 18:16:00,32.7,32.7,29.37,North,356,0.0,0.0,100,0.01,,CLR,0.10,VWS V14.01,2013-04-18 23:16:00,
2013-04-18 18:17:00,32.5,32.5,29.37,North,3,0.0,0.0,100,0.01,,CLR,0.10,VWS V14.01,2013-04-18 23:17:00,
2013-04-18 18:18:00,32.5,32.5,29.37,North,349,0.0,0.0,100,0.01,,CLR,0.10,VWS V14.01,2013-04-18 23:18:00,
2013-04-18 18:19:00,32.5,32.5,29.37,NNW,335,0.0,0.0,100,0.01,,CLR,0.10,VWS V14.01,2013-04-18 23:19:00,
2013-04-18 18:20:00,32.7,32.7,29.37,North,349,0.0,0.0,100,0.01,,CLR,0.10,VWS V14.01,2013-04-18 23:20:00,
2013-04-18 18:21:00,32.7,32.7,29.37,NNW,342,0.0,0.0,100,0.01,,CLR,0.10,VWS V14.01,2013-04-18 23:21:00,
2013-04-18 18:22:00,32.7,32.7,29.37,NW,325,0.0,0.0,100,0.01,,CLR,0.10,VWS V14.01,2013-04-18 23:22:00,
2013-04-18 18:23:00,32.7,32.7,29.37,NW,310,0.0,0.0,100,0.01,,CLR,0.10,VWS V14.01,2013-04-18 23:23:00,
2013-04-18 18:24:00,32.5,32.5,29.37,NW,308,0.0,0.0,100,0.01,,CLR,0.10,VWS V14.01,2013-04-18 23:24:00,
2013-04-18 18:25:00,32.7,32.7,29.37,NW,307,0.0,0.0,100,0.01,,CLR,0.10,VWS V14.01,2013-04-18 23:25:00,
2013-04-18 18:26:00,32.7,32.7,29.37,NW,326,0.0,0.0,100,0.01,,CLR,0.10,VWS V14.01,2013-04-18 23:26:00,
2013-04-18 18:27:00,32.4,32.4,29.37,NW,321,0.0,0.0,100,0.01,,CLR,0.10,VWS V14.01,2013-04-18 23:27:00,
2013-04-18 18:28:00,32.7,32.7,29.37,North,358,0.0,0.0,100,0.01,,CLR,0.10,VWS V14.01,2013-04-18 23:28:00,
2013-04-18 18:29:00,32.7,32.7,29.37,North,353,0.0,0.0,100,0.01,,CLR,0.10,VWS V14.01,2013-04-18 23:29:00,
2013-04-18 18:30:00,32.7,32.7,29.37,NNW,332,0.0,0.0,100,0.01,,CLR,0.10,VWS V14.01,2013-04-18 23:30:00,
2013-04-18 18:31:00,32.4,32.4,29.37,NNE,19,0.0,0.0,100,0.01,,CLR,0.10,VWS V14.01,2013-04-18 23:31:00,
2013-04-18 18:32:00,32.7,32.7,29.37,NNW,328,0.0,0.0,100,0.01,,CLR,0.10,VWS V14.01,2013-04-18 23:32:00,
2013-04-18 18:33:00,32.5,32.5,29.37,NW,319,0.0,0.0,100,0.01,,CLR,0.10,VWS V14.01,2013-04-18 23:33:00,
2013-04-18 18:34:00,32.7,32.7,29.37,NW,308,0.0,0.0,100,0.01,,CLR,0.10,VWS V14.01,2013-04-18 23:34:00,
2013-04-18 18:35:00,32.5,32.5,29.37,NNW,348,0.0,0.0,100,0.01,,CLR,0.10,VWS V14.01,2013-04-18 23:35:00,
2013-04-18 18:36:00,32.5,32.5,29.37,North,353,0.0,0.0,100,0.01,,CLR,0.10,VWS V14.01,2013-04-18 23:36:00,
2013-04-18 18:37:00,32.7,32.7,29.37,NW,321,0.0,0.0,100,0.01,,CLR,0.10,VWS V14.01,2013-04-18 23:37:00,
2013-04-18 18:38:00,32.4,32.4,29.37,NNW,335,0.0,0.0,100,0.01,,CLR,0.10,VWS V14.01,2013-04-18 23:38:00,
2013-04-18 18:39:00,32.4,32.4,29.37,North,349,0.0,0.0,100,0.01,,CLR,0.10,VWS V14.01,2013-04-18 23:39:00,
2013-04-18 18:40:00,32.7,32.7,29.37,NW,310,0.0,0.0,100,0.01,,CLR,0.10,VWS V14.01,2013-04-18 23:40:00,
2013-04-18 18:41:00,32.4,32.4,29.37,NNW,329,0.0,0.0,100,0.01,,CLR,0.10,VWS V14.01,2013-04-18 23:41:00,
2013-04-18 18:42:00,32.4,32.4,29.37,NW,312,0.0,0.0,100,0.01,,CLR,0.10,VWS V14.01,2013-04-18 23:42:00,
2013-04-18 18:43:00,32.7,32.7,29.37,NW,315,0.0,0.0,100,0.01,,CLR,0.10,VWS V14.01,2013-04-18 23:43:00,
2013-04-18 18:44:00,32.7,32.7,29.37,NW,311,0.0,0.0,100,0.01,,CLR,0.10,VWS V14.01,2013-04-18 23:44:00,
2013-04-18 18:45:00,32.4,32.4,29.37,NW,317,0.0,0.0,100,0.01,,CLR,0.10,VWS V14.01,2013-04-18 23:45:00,
2013-04-18 18:46:00,32.5,32.5,29.37,WNW,291,0.0,0.0,100,0.01,,CLR,0.10,VWS V14.01,2013-04-18 23:46:00,
2013-04-18 18:47:00,32.7,32.7,29.37,NNW,329,0.0,0.0,100,0.01,,CLR,0.10,VWS V14.01,2013-04-18 23:47:00,
2013-04-18 18:48:00,32.5,32.5,29.37,NNE,13,0.0,0.0,100,0.01,,CLR,0.10,VWS V14.01,2013-04-18 23:48:00,
2013-04-18 18:49:00,32.4,32.4,29.37,NNW,329,0.0,0.0,100,0.01,,CLR,0.10,VWS V14.01,2013-04-18 23:49:00,
2013-04-18 18:50:00,32.5,32.5,29.37,NNW,338,0.0,0.0,100,0.01,,CLR,0.10,VWS V14.01,2013-04-18 23:50:00,
2013-04-18 18:51:00,32.5,32.5,29.37,NW,310,0.0,0.0,100,0.01,,CLR,0.10,VWS V14.01,2013-04-18 23:51:00,
2013-04-18 18:52:00,32.5,32.5,29.37,North,352,0.0,0.0,100,0.01,,CLR,0.10,VWS V14.01,2013-04-18 23:52:00,
2013-04-18 18:53:00,32.5,32.5,29.37,NNW,339,0.0,0.0,100,0.01,,CLR,0.10,VWS V14.01,2013-04-18 23:53:00,
2013-04-18 18:54:00,32.5,32.5,29.37,NW,324,0.0,0.0,100,0.01,,CLR,0.10,VWS V14.01,2013-04-18 23:54:00,
2013-04-18 18:55:00,32.5,32.5,29.37,NW,304,0.0,0.0,100,0.01,,CLR,0.10,VWS V14.01,2013-04-18 23:55:00,
2013-04-18 18:56:00,32.5,32.5,29.37,NNW,348,0.0,0.0,100,0.01,,CLR,0.10,VWS V14.01,2013-04-18 23:56:00,
2013-04-18 18:57:00,32.4,32.4,29.37,NW,308,0.0,0.0,100,0.01,,CLR,0.10,VWS V14.01,2013-04-18 23:57:00,
2013-04-18 18:58:00,32.4,32.4,29.37,North,350,0.0,0.0,100,0.01,,CLR,0.10,VWS V14.01,2013-04-18 23:58:00,
2013-04-18 18:59:00,32.4,32.4,29.37,NNW,331,0.0,0.0,100,0.01,,CLR,0.10,VWS V14.01,2013-04-18 23:59:00,
2013-04-18 19:00:00,32.5,32.5,29.38,NW,304,0.0,0.0,100,0.01,,CLR,0.10,VWS V14.01,2013-04-19 00:00:00,
2013-04-18 19:01:00,32.4,32.4,29.38,NNW,339,0.0,0.0,100,0.01,,CLR,0.10,VWS V14.01,2013-04-19 00:01:00,
2013-04-18 19:02:00,32.4,32.4,29.38,WNW,293,0.0,0.0,100,0.01,,CLR,0.10,VWS V14.01,2013-04-19 00:02:00,
2013-04-18 19:03:00,32.2,32.2,29.38,NW,315,0.0,0.0,100,0.01,,CLR,0.10,VWS V14.01,2013-04-19 00:03:00,
2013-04-18 19:04:00,32.5,32.5,29.38,West,278,0.0,0.0,100,0.01,,CLR,0.10,VWS V14.01,2013-04-19 00:04:00,
2013-04-18 19:05:00,32.5,32.5,29.38,NW,325,0.0,0.0,100,0.01,,CLR,0.10,VWS V14.01,2013-04-19 00:05:00,
2013-04-18 19:06:00,32.5,32.5,29.38,NNW,329,0.0,0.0,100,0.01,,CLR,0.10,VWS V14.01,2013-04-19 00:06:00,
2013-04-18 19:07:00,32.5,32.5,29.38,WNW,302,0.0,0.0,100,0.01,,CLR,0.10,VWS V14.01,2013-04-19 00:07:00,
2013-04-18 19:08:00,32.5,32.5,29.38,NNW,342,0.0,0.0,100,0.01,,CLR,0.10,VWS V14.01,2013-04-19 00:08:00,
2013-04-18 19:09:00,32.2,32.2,29.38,WNW,288,0.0,0.0,100,0.01,,CLR,0.10,VWS V14.01,2013-04-19 00:09:00,
2013-04-18 19:10:00,32.4,32.4,29.38,NNW,335,0.0,0.0,100,0.01,,CLR,0.10,VWS V14.01,2013-04-19 00:10:00,
2013-04-18 19:11:00,32.4,32.4,29.38,NW,318,0.0,0.0,100,0.01,,CLR,0.10,VWS V14.01,2013-04-19 00:11:00,
2013-04-18 19:12:00,32.4,32.4,29.38,NW,314,0.0,0.0,100,0.01,,CLR,0.10,VWS V14.01,2013-04-19 00:12:00,
2013-04-18 19:13:00,32.5,32.5,29.38,NW,307,0.0,0.0,100,0.01,,CLR,0.10,VWS V14.01,2013-04-19 00:13:00,
2013-04-18 19:14:00,32.2,32.2,29.38,NW,325,0.0,0.0,100,0.01,,CLR,0.10,VWS V14.01,2013-04-19 00:14:00,
2013-04-18 19:15:00,32.2,32.2,29.39,North,349,0.0,0.0,100,0.01,,CLR,0.10,VWS V14.01,2013-04-19 00:15:00,
2013-04-18 19:16:00,32.2,32.2,29.39,NW,317,0.0,0.0,100,0.01,,CLR,0.10,VWS V14.01,2013-04-19 00:16:00,
2013-04-18 19:17:00,32.5,32.5,29.39,NW,322,0.0,0.0,100,0.01,,CLR,0.10,VWS V14.01,2013-04-19 00:17:00,
2013-04-18 19:18:00,32.5,32.5,29.39,NW,305,0.0,0.0,100,0.01,,CLR,0.10,VWS V14.01,2013-04-19 00:18:00,
2013-04-18 19:19:00,32.5,32.5,29.39,NW,326,0.0,0.0,100,0.01,,CLR,0.10,VWS V14.01,2013-04-19 00:19:00,
2013-04-18 19:20:00,32.5,32.5,29.39,NNW,346,0.0,0.0,100,0.01,,CLR,0.10,VWS V14.01,2013-04-19 00:20:00,
2013-04-18 19:21:00,32.2,32.2,29.39,NW,305,0.0,0.0,100,0.01,,CLR,0.10,VWS V14.01,2013-04-19 00:21:00,
2013-04-18 19:22:00,32.4,32.4,29.39,NW,321,0.0,0.0,100,0.01,,CLR,0.10,VWS V14.01,2013-04-19 00:22:00,
2013-04-18 19:23:00,32.4,32.4,29.39,WNW,286,0.0,0.0,100,0.01,,CLR,0.10,VWS V14.01,2013-04-19 00:23:00,
2013-04-18 19:24:00,32.2,32.2,29.39,WNW,298,0.0,0.0,100,0.01,,CLR,0.10,VWS V14.01,2013-04-19 00:24:00,
2013-04-18 19:25:00,32.2,32.2,29.39,NW,305,0.0,0.0,100,0.01,,CLR,0.10,VWS V14.01,2013-04-19 00:25:00,
2013-04-18 19:26:00,32.5,32.5,29.39,WNW,302,0.0,0.0,100,0.01,,CLR,0.10,VWS V14.01,2013-04-19 00:26:00,
2013-04-18 19:27:00,32.2,32.2,29.39,NNW,345,0.0,0.0,100,0.01,,CLR,0.10,VWS V14.01,2013-04-19 00:27:00,
2013-04-18 19:28:00,32.4,32.4,29.39,WNW,302,0.0,0.0,100,0.01,,CLR,0.10,VWS V14.01,2013-04-19 00:28:00,
2013-04-18 19:29:00,32.2,32.2,29.39,NNW,348,0.0,0.0,100,0.01,,CLR,0.10,VWS V14.01,2013-04-19 00:29:00,
2013-04-18 19:30:00,32.1,32.1,29.38,NW,325,0.0,0.0,100,0.01,,CLR,0.10,VWS V14.01,2013-04-19 00:30:00,
2013-04-18 19:31:00,32.1,32.1,29.38,West,281,0.0,0.0,100,0.00,,CLR,0.10,VWS V14.01,2013-04-19 00:31:00,
2013-04-18 19:32:00,32.4,32.4,29.38,WNW,288,0.0,0.0,100,0.00,,CLR,0.10,VWS V14.01,2013-04-19 00:32:00,
2013-04-18 19:33:00,32.1,32.1,29.38,NNW,334,0.0,0.0,100,0.00,,CLR,0.10,VWS V14.01,2013-04-19 00:33:00,
2013-04-18 19:34:00,32.2,32.2,29.38,NNW,342,0.0,0.0,100,0.00,,CLR,0.10,VWS V14.01,2013-04-19 00:34:00,
2013-04-18 19:35:00,32.1,32.1,29.38,WNW,295,0.0,0.0,100,0.00,,CLR,0.10,VWS V14.01,2013-04-19 00:35:00,
2013-04-18 19:36:00,32.1,32.1,29.38,West,270,0.0,0.0,100,0.00,,CLR,0.10,VWS V14.01,2013-04-19 00:36:00,
2013-04-18 19:37:00,32.1,32.1,29.38,NW,312,0.0,0.0,100,0.00,,CLR,0.10,VWS V14.01,2013-04-19 00:37:00,
2013-04-18 19:38:00,32.4,32.4,29.38,NNW,345,0.0,0.0,100,0.00,,CLR,0.10,VWS V14.01,2013-04-19 00:38:00,
2013-04-18 19:39:00,32.2,32.2,29.38,NNW,346,0.0,0.0,100,0.00,,CLR,0.10,VWS V14.01,2013-04-19 00:39:00,
2013-04-18 19:40:00,32.2,32.2,29.38,WNW,290,0.0,0.0,100,0.00,,CLR,0.10,VWS V14.01,2013-04-19 00:40:00,
2013-04-18 19:41:00,32.1,32.1,29.38,NNW,339,0.0,0.0,100,0.00,,CLR,0.10,VWS V14.01,2013-04-19 00:41:00,
2013-04-18 19:42:00,32.4,32.4,29.38,NNW,346,0.0,0.0,100,0.00,,CLR,0.10,VWS V14.01,2013-04-19 00:42:00,
2013-04-18 19:43:00,32.1,32.1,29.38,WNW,301,0.0,0.0,100,0.00,,CLR,0.10,VWS V14.01,2013-04-19 00:43:00,
2013-04-18 19:44:00,32.1,32.1,29.38,NW,319,0.0,0.0,100,0.00,,CLR,0.10,VWS V14.01,2013-04-19 00:44:00,
2013-04-18 19:45:00,31.9,31.9,29.38,NW,326,0.0,0.0,100,0.00,,CLR,0.10,VWS V14.01,2013-04-19 00:45:00,
2013-04-18 19:46:00,32.2,32.2,29.38,NNW,341,0.0,0.0,100,0.00,,CLR,0.10,VWS V14.01,2013-04-19 00:46:00,
2013-04-18 19:47:00,32.1,32.1,29.38,WNW,302,0.0,0.0,100,0.00,,CLR,0.10,VWS V14.01,2013-04-19 00:47:00,
2013-04-18 19:48:00,32.2,32.2,29.38,NW,314,0.0,0.0,100,0.00,,CLR,0.10,VWS V14.01,2013-04-19 00:48:00,
2013-04-18 19:49:00,32.1,32.1,29.38,WNW,294,0.0,0.0,100,0.00,,CLR,0.10,VWS V14.01,2013-04-19 00:49:00,
2013-04-18 19:50:00,32.1,32.1,29.38,NW,319,0.0,0.0,100,0.00,,CLR,0.10,VWS V14.01,2013-04-19 00:50:00,
2013-04-18 19:51:00,32.2,32.2,29.38,NNE,33,0.0,0.0,100,0.00,,CLR,0.10,VWS V14.01,2013-04-19 00:51:00,
2013-04-18 19:52:00,32.2,32.2,29.38,NW,310,0.0,0.0,100,0.00,,CLR,0.10,VWS V14.01,2013-04-19 00:52:00,
2013-04-18 19:53:00,31.9,31.9,29.38,NW,312,0.0,0.0,100,0.00,,CLR,0.10,VWS V14.01,2013-04-19 00:53:00,
2013-04-18 19:54:00,31.9,31.9,29.38,NW,322,0.0,0.0,100,0.00,,CLR,0.10,VWS V14.01,2013-04-19 00:54:00,
2013-04-18 19:55:00,31.9,31.9,29.38,NNW,343,0.0,0.0,100,0.00,,CLR,0.10,VWS V14.01,2013-04-19 00:55:00,
2013-04-18 19:56:00,31.9,31.9,29.38,NW,317,0.0,0.0,100,0.00,,CLR,0.10,VWS V14.01,2013-04-19 00:56:00,
2013-04-18 19:57:00,31.9,31.9,29.38,NW,314,0.0,0.0,100,0.00,,CLR,0.10,VWS V14.01,2013-04-19 00:57:00,
2013-04-18 19:58:00,31.9,31.9,29.38,NW,319,0.0,0.0,100,0.00,,CLR,0.10,VWS V14.01,2013-04-19 00:58:00,
2013-04-18 19:59:00,32.2,32.2,29.38,NNW,348,0.0,0.0,100,0.00,,CLR,0.10,VWS V14.01,2013-04-19 00:59:00,
2013-04-18 20:00:00,31.9,31.9,29.39,West,274,0.0,0.0,100,0.00,,CLR,0.10,VWS V14.01,2013-04-19 01:00:00,
2013-04-18 20:01:00,31.8,31.8,29.39,WNW,294,0.0,0.0,100,0.00,,CLR,0.10,VWS V14.01,2013-04-19 01:01:00,
2013-04-18 20:02:00,31.8,31.8,29.39,WNW,302,0.0,0.0,100,0.00,,CLR,0.10,VWS V14.01,2013-04-19 01:02:00,
2013-04-18 20:03:00,31.9,31.9,29.39,NNW,339,0.0,0.0,100,0.00,,CLR,0.10,VWS V14.01,2013-04-19 01:03:00,
2013-04-18 20:04:00,32.1,32.1,29.39,NNW,341,0.0,0.0,100,0.00,,CLR,0.10,VWS V14.01,2013-04-19 01:04:00,
2013-04-18 20:05:00,32.1,32.1,29.39,NW,325,0.0,0.0,100,0.00,,CLR,0.10,VWS V14.01,2013-04-19 01:05:00,
2013-04-18 20:06:00,31.9,31.9,29.39,NNW,329,0.0,0.0,100,0.00,,CLR,0.10,VWS V14.01,2013-04-19 01:06:00,
2013-04-18 20:07:00,31.9,31.9,29.39,NW,312,0.0,0.0,100,0.00,,CLR,0.10,VWS V14.01,2013-04-19 01:07:00,
2013-04-18 20:08:00,31.8,31.8,29.39,WNW,294,0.0,0.0,100,0.00,,CLR,0.10,VWS V14.01,2013-04-19 01:08:00,
2013-04-18 20:09:00,31.8,31.8,29.39,NW,308,0.0,0.0,100,0.00,,CLR,0.10,VWS V14.01,2013-04-19 01:09:00,
2013-04-18 20:10:00,32.1,32.1,29.39,NW,324,0.0,0.0,100,0.00,,CLR,0.10,VWS V14.01,2013-04-19 01:10:00,
2013-04-18 20:11:00,31.9,31.9,29.39,NW,314,0.0,0.0,100,0.00,,CLR,0.10,VWS V14.01,2013-04-19 01:11:00,
2013-04-18 20:12:00,31.8,31.8,29.39,WNW,284,0.0,0.0,100,0.00,,CLR,0.10,VWS V14.01,2013-04-19 01:12:00,
2013-04-18 20:13:00,31.9,31.9,29.39,NW,326,0.0,0.0,100,0.00,,CLR,0.10,VWS V14.01,2013-04-19 01:13:00,
2013-04-18 20:14:00,31.9,31.9,29.39,NW,314,0.0,0.0,100,0.00,,CLR,0.10,VWS V14.01,2013-04-19 01:14:00,
2013-04-18 20:15:00,31.6,31.6,29.39,NW,312,0.0,0.0,100,0.00,,CLR,0.10,VWS V14.01,2013-04-19 01:15:00,
2013-04-18 20:16:00,31.9,31.9,29.39,NW,310,0.0,0.0,100,0.00,,CLR,0.10,VWS V14.01,2013-04-19 01:16:00,
2013-04-18 20:17:00,31.8,31.8,29.39,West,280,0.0,0.0,100,0.00,,CLR,0.10,VWS V14.01,2013-04-19 01:17:00,
2013-04-18 20:18:00,31.8,31.8,29.39,WNW,298,0.0,0.0,100,0.00,,CLR,0.10,VWS V14.01,2013-04-19 01:18:00,
2013-04-18 20:19:00,31.9,31.9,29.39,NW,308,0.0,0.0,100,0.00,,CLR,0.10,VWS V14.01,2013-04-19 01:19:00,
2013-04-18 20:20:00,31.9,31.9,29.39,WNW,298,0.0,0.0,100,0.00,,CLR,0.10,VWS V14.01,2013-04-19 01:20:00,
2013-04-18 20:21:00,31.8,31.8,29.39,NW,310,0.0,0.0,100,0.00,,CLR,0.10,VWS V14.01,2013-04-19 01:21:00,
2013-04-18 20:22:00,31.9,31.9,29.39,NW,312,0.0,0.0,100,0.00,,CLR,0.10,VWS V14.01,2013-04-19 01:22:00,
2013-04-18 20:23:00,31.9,31.9,29.39,NW,317,0.0,0.0,100,0.00,,CLR,0.10,VWS V14.01,2013-04-19 01:23:00,
2013-04-18 20:24:00,31.8,31.8,29.39,WNW,288,0.0,0.0,100,0.00,,CLR,0.10,VWS V14.01,2013-04-19 01:24:00,
2013-04-18 20:25:00,31.6,31.6,29.39,West,281,0.0,0.0,100,0.00,,CLR,0.10,VWS V14.01,2013-04-19 01:25:00,
2013-04-18 20:26:00,31.8,31.8,29.39,NW,305,0.0,0.0,100,0.00,,CLR,0.10,VWS V14.01,2013-04-19 01:26:00,
2013-04-18 20:27:00,31.6,31.6,29.39,NW,312,0.0,0.0,100,0.00,,CLR,0.10,VWS V14.01,2013-04-19 01:27:00,
2013-04-18 20:28:00,31.6,31.6,29.39,NNW,335,0.0,0.0,100,0.00,,CLR,0.10,VWS V14.01,2013-04-19 01:28:00,
2013-04-18 20:29:00,31.9,31.9,29.39,NW,307,0.0,0.0,100,0.00,,CLR,0.10,VWS V14.01,2013-04-19 01:29:00,
2013-04-18 20:30:00,31.8,31.8,29.39,WNW,300,0.0,0.0,100,0.00,,CLR,0.10,VWS V14.01,2013-04-19 01:30:00,
2013-04-18 20:31:00,31.6,31.6,29.39,WNW,283,0.0,0.0,100,0.00,,CLR,0.10,VWS V14.01,2013-04-19 01:31:00,
2013-04-18 20:32:00,31.8,31.8,29.39,West,271,0.0,0.0,100,0.00,,CLR,0.10,VWS V14.01,2013-04-19 01:32:00,
2013-04-18 20:33:00,31.5,31.5,29.39,NW,319,0.0,0.0,100,0.00,,CLR,0.10,VWS V14.01,2013-04-19 01:33:00,
2013-04-18 20:34:00,31.8,31.8,29.39,North,355,0.0,0.0,100,0.00,,CLR,0.10,VWS V14.01,2013-04-19 01:34:00,
2013-04-18 20:35:00,31.6,31.6,29.39,NW,321,0.0,0.0,100,0.00,,CLR,0.10,VWS V14.01,2013-04-19 01:35:00,
2013-04-18 20:36:00,31.6,31.6,29.39,NW,311,0.0,0.0,100,0.00,,CLR,0.10,VWS V14.01,2013-04-19 01:36:00,
2013-04-18 20:37:00,31.8,31.8,29.39,NNW,339,0.0,0.0,100,0.00,,CLR,0.10,VWS V14.01,2013-04-19 01:37:00,
2013-04-18 20:38:00,31.5,31.5,29.39,West,267,0.0,0.0,100,0.00,,CLR,0.10,VWS V14.01,2013-04-19 01:38:00,
2013-04-18 20:39:00,31.5,31.5,29.39,WNW,301,0.0,0.0,100,0.00,,CLR,0.10,VWS V14.01,2013-04-19 01:39:00,
2013-04-18 20:40:00,31.5,31.5,29.39,NW,311,0.0,0.0,100,0.00,,CLR,0.10,VWS V14.01,2013-04-19 01:40:00,
2013-04-18 20:41:00,31.8,31.8,29.39,WNW,300,0.0,0.0,100,0.00,,CLR,0.10,VWS V14.01,2013-04-19 01:41:00,
2013-04-18 20:42:00,31.8,31.8,29.39,NW,314,0.0,0.0,100,0.00,,CLR,0.10,VWS V14.01,2013-04-19 01:42:00,
2013-04-18 20:43:00,31.6,31.6,29.39,NNW,328,0.0,0.0,100,0.00,,CLR,0.10,VWS V14.01,2013-04-19 01:43:00,
2013-04-18 20:44:00,31.6,31.6,29.39,WNW,297,0.0,0.0,100,0.00,,CLR,0.10,VWS V14.01,2013-04-19 01:44:00,
2013-04-18 20:45:00,31.5,31.5,29.40,NW,305,0.0,0.0,100,0.00,,CLR,0.10,VWS V14.01,2013-04-19 01:45:00,
2013-04-18 20:46:00,31.6,31.6,29.40,WNW,301,0.0,0.0,100,0.00,,CLR,0.10,VWS V14.01,2013-04-19 01:46:00,
2013-04-18 20:47:00,31.6,31.6,29.40,WNW,295,0.0,0.0,100,0.00,,CLR,0.10,VWS V14.01,2013-04-19 01:47:00,
2013-04-18 20:48:00,31.6,31.6,29.40,NW,318,0.0,0.0,100,0.00,,CLR,0.10,VWS V14.01,2013-04-19 01:48:00,
2013-04-18 20:49:00,31.5,31.5,29.40,NNW,331,0.0,0.0,100,0.00,,CLR,0.10,VWS V14.01,2013-04-19 01:49:00,
2013-04-18 20:50:00,31.5,31.5,29.40,WNW,294,0.0,0.0,100,0.00,,CLR,0.10,VWS V14.01,2013-04-19 01:50:00,
2013-04-18 20:51:00,31.5,31.5,29.40,West,276,0.0,0.0,100,0.00,,CLR,0.10,VWS V14.01,2013-04-19 01:51:00,
2013-04-18 20:52:00,31.5,31.5,29.40,WNW,300,0.0,0.0,100,0.00,,CLR,0.10,VWS V14.01,2013-04-19 01:52:00,
2013-04-18 20:53:00,31.3,31.3,29.40,NW,304,0.0,0.0,100,0.00,,CLR,0.10,VWS V14.01,2013-04-19 01:53:00,
2013-04-18 20:54:00,31.5,31.5,29.40,NNW,336,0.0,0.0,100,0.00,,CLR,0.10,VWS V14.01,2013-04-19 01:54:00,
2013-04-18 20:55:00,31.5,31.5,29.40,NW,311,0.0,0.0,100,0.00,,CLR,0.10,VWS V14.01,2013-04-19 01:55:00,
2013-04-18 20:56:00,31.5,31.5,29.40,NW,326,0.0,0.0,100,0.00,,CLR,0.10,VWS V14.01,2013-04-19 01:56:00,
2013-04-18 20:57:00,31.5,31.5,29.40,NNW,343,0.0,0.0,100,0.00,,CLR,0.10,VWS V14.01,2013-04-19 01:57:00,
2013-04-18 20:58:00,31.5,31.5,29.40,NW,322,0.0,0.0,100,0.00,,CLR,0.10,VWS V14.01,2013-04-19 01:58:00,
2013-04-18 20:59:00,31.3,31.3,29.40,WNW,302,0.0,0.0,100,0.00,,CLR,0.10,VWS V14.01,2013-04-19 01:59:00,
2013-04-18 21:00:00,31.3,31.3,29.41,NW,321,0.0,0.0,100,0.00,,CLR,0.10,VWS V14.01,2013-04-19 02:00:00,
2013-04-18 21:01:00,31.5,31.5,29.41,NNW,342,0.0,0.0,100,0.00,,CLR,0.10,VWS V14.01,2013-04-19 02:01:00,
2013-04-18 21:02:00,31.2,31.2,29.41,NW,305,0.0,0.0,100,0.00,,CLR,0.10,VWS V14.01,2013-04-19 02:02:00,
2013-04-18 21:03:00,31.5,31.5,29.41,West,270,0.0,0.0,100,0.00,,CLR,0.10,VWS V14.01,2013-04-19 02:03:00,
2013-04-18 21:04:00,31.3,31.3,29.41,NW,314,0.0,0.0,100,0.00,,CLR,0.10,VWS V14.01,2013-04-19 02:04:00,
2013-04-18 21:05:00,31.2,31.2,29.41,NW,325,0.0,0.0,100,0.00,,CLR,0.10,VWS V14.01,2013-04-19 02:05:00,
2013-04-18 21:06:00,31.2,31.2,29.41,West,270,0.0,0.0,100,0.00,,CLR,0.10,VWS V14.01,2013-04-19 02:06:00,
2013-04-18 21:07:00,31.3,31.3,29.41,NW,314,0.0,0.0,100,0.00,,CLR,0.10,VWS V14.01,2013-04-19 02:07:00,
2013-04-18 21:08:00,31.3,31.3,29.41,WNW,294,0.0,0.0,100,0.00,,CLR,0.10,VWS V14.01,2013-04-19 02:08:00,
2013-04-18 21:09:00,31.3,31.3,29.41,NNW,336,0.0,0.0,100,0.00,,CLR,0.10,VWS V14.01,2013-04-19 02:09:00,
2013-04-18 21:10:00,31.5,31.5,29.41,NNW,339,0.0,0.0,100,0.00,,CLR,0.10,VWS V14.01,2013-04-19 02:10:00,
2013-04-18 21:11:00,31.5,31.5,29.41,NNW,328,0.0,0.0,100,0.00,,CLR,0.10,VWS V14.01,2013-04-19 02:11:00,
2013-04-18 21:12:00,31.5,31.5,29.41,NW,310,0.0,0.0,100,0.00,,CLR,0.10,VWS V14.01,2013-04-19 02:12:00,
2013-04-18 21:13:00,31.2,31.2,29.41,NW,324,0.0,0.0,100,0.00,,CLR,0.10,VWS V14.01,2013-04-19 02:13:00,
2013-04-18 21:14:00,31.3,31.3,29.41,WNW,283,0.0,0.0,100,0.00,,CLR,0.10,VWS V14.01,2013-04-19 02:14:00,
2013-04-18 21:15:00,31.2,31.2,29.41,WNW,295,0.0,0.0,100,0.00,,CLR,0.10,VWS V14.01,2013-04-19 02:15:00,
2013-04-18 21:16:00,31.3,31.3,29.41,WNW,287,0.0,0.0,100,0.00,,CLR,0.10,VWS V14.01,2013-04-19 02:16:00,
2013-04-18 21:17:00,31.3,31.3,29.41,WNW,284,0.0,0.0,100,0.00,,CLR,0.10,VWS V14.01,2013-04-19 02:17:00,
2013-04-18 21:18:00,31.5,31.5,29.41,NW,325,0.0,0.0,100,0.00,,CLR,0.10,VWS V14.01,2013-04-19 02:18:00,
2013-04-18 21:19:00,31.3,31.3,29.41,WNW,293,0.0,0.0,100,0.00,,CLR,0.10,VWS V14.01,2013-04-19 02:19:00,
2013-04-18 21:20:00,31.2,31.2,29.41,NW,308,0.0,0.0,100,0.00,,CLR,0.10,VWS V14.01,2013-04-19 02:20:00,
2013-04-18 21:21:00,31.3,31.3,29.41,NW,307,0.0,0.0,100,0.00,,CLR,0.10,VWS V14.01,2013-04-19 02:21:00,
2013-04-18 21:22:00,31.5,31.5,29.41,NNW,342,0.0,0.0,100,0.00,,CLR,0.10,VWS V14.01,2013-04-19 02:22:00,
2013-04-18 21:23:00,31.5,31.5,29.41,NW,322,0.0,0.0,100,0.00,,CLR,0.10,VWS V14.01,2013-04-19 02:23:00,
2013-04-18 21:24:00,31.3,31.3,29.41,NW,319,0.0,0.0,100,0.00,,CLR,0.10,VWS V14.01,2013-04-19 02:24:00,
2013-04-18 21:25:00,31.3,31.3,29.41,NNW,341,0.0,0.0,100,0.00,,CLR,0.10,VWS V14.01,2013-04-19 02:25:00,
2013-04-18 21:26:00,31.2,31.2,29.41,WNW,295,0.0,0.0,100,0.00,,CLR,0.10,VWS V14.01,2013-04-19 02:26:00,
2013-04-18 21:27:00,31.3,31.3,29.41,North,359,0.0,0.0,100,0.00,,CLR,0.10,VWS V14.01,2013-04-19 02:27:00,
2013-04-18 21:28:00,31.5,31.5,29.41,WNW,294,0.0,0.0,100,0.00,,CLR,0.10,VWS V14.01,2013-04-19 02:28:00,
2013-04-18 21:29:00,31.5,31.5,29.41,NW,307,0.0,0.0,100,0.00,,CLR,0.10,VWS V14.01,2013-04-19 02:29:00,
2013-04-18 21:30:00,31.2,31.2,29.40,NNW,332,0.0,0.0,100,0.00,,CLR,0.10,VWS V14.01,2013-04-19 02:30:00,
2013-04-18 21:31:00,31.3,31.3,29.40,NNE,20,0.0,0.0,100,0.00,,CLR,0.10,VWS V14.01,2013-04-19 02:31:00,
2013-04-18 21:32:00,31.5,31.5,29.40,NNW,329,0.0,0.0,100,0.00,,CLR,0.10,VWS V14.01,2013-04-19 02:32:00,
2013-04-18 21:33:00,31.2,31.2,29.40,NW,310,0.0,0.0,100,0.00,,CLR,0.10,VWS V14.01,2013-04-19 02:33:00,
2013-04-18 21:34:00,31.5,31.5,29.40,WNW,295,0.0,0.0,100,0.00,,CLR,0.10,VWS V14.01,2013-04-19 02:34:00,
2013-04-18 21:35:00,31.2,31.2,29.40,NW,317,0.0,0.0,100,0.00,,CLR,0.10,VWS V14.01,2013-04-19 02:35:00,
2013-04-18 21:36:00,31.3,31.3,29.40,WNW,301,0.0,0.0,100,0.00,,CLR,0.10,VWS V14.01,2013-04-19 02:36:00,
2013-04-18 21:37:00,31.2,31.2,29.40,NW,312,0.0,0.0,100,0.00,,CLR,0.10,VWS V14.01,2013-04-19 02:37:00,
2013-04-18 21:38:00,31.2,31.2,29.40,WNW,301,0.0,0.0,100,0.00,,CLR,0.10,VWS V14.01,2013-04-19 02:38:00,
2013-04-18 21:39:00,31.2,31.2,29.40,NW,310,0.0,0.0,100,0.00,,CLR,0.10,VWS V14.01,2013-04-19 02:39:00,
2013-04-18 21:40:00,31.3,31.3,29.40,WNW,284,0.0,0.0,100,0.00,,CLR,0.10,VWS V14.01,2013-04-19 02:40:00,
2013-04-18 21:41:00,31.3,31.3,29.40,WNW,284,0.0,0.0,100,0.00,,CLR,0.10,VWS V14.01,2013-04-19 02:41:00,
2013-04-18 21:42:00,31.5,31.5,29.40,NW,322,0.0,0.0,100,0.00,,CLR,0.10,VWS V14.01,2013-04-19 02:42:00,
2013-04-18 21:43:00,31.5,31.5,29.40,NNW,332,0.0,0.0,100,0.00,,CLR,0.10,VWS V14.01,2013-04-19 02:43:00,
2013-04-18 21:44:00,31.3,31.3,29.40,NW,311,0.0,0.0,100,0.00,,CLR,0.10,VWS V14.01,2013-04-19 02:44:00,
2013-04-18 21:45:00,31.5,31.5,29.40,WNW,295,0.0,0.0,100,0.00,,CLR,0.10,VWS V14.01,2013-04-19 02:45:00,
2013-04-18 21:46:00,31.2,31.2,29.40,NW,304,0.0,0.0,100,0.00,,CLR,0.10,VWS V14.01,2013-04-19 02:46:00,
2013-04-18 21:47:00,31.5,31.5,29.40,NW,312,0.0,0.0,100,0.00,,CLR,0.10,VWS V14.01,2013-04-19 02:47:00,
2013-04-18 21:48:00,31.3,31.3,29.40,WNW,298,0.0,0.0,100,0.00,,CLR,0.10,VWS V14.01,2013-04-19 02:48:00,
2013-04-18 21:49:00,31.5,31.5,29.40,WNW,297,0.0,0.0,100,0.00,,CLR,0.10,VWS V14.01,2013-04-19 02:49:00,
2013-04-18 21:50:00,31.5,31.5,29.40,WNW,301,0.0,0.0,100,0.00,,CLR,0.10,VWS V14.01,2013-04-19 02:50:00,
2013-04-18 21:51:00,31.2,31.2,29.40,NW,308,0.0,0.0,100,0.00,,CLR,0.10,VWS V14.01,2013-04-19 02:51:00,
2013-04-18 21:52:00,31.5,31.5,29.40,NW,321,0.0,0.0,100,0.00,,CLR,0.10,VWS V14.01,2013-04-19 02:52:00,
2013-04-18 21:53:00,31.3,31.3,29.40,NW,312,0.0,0.0,100,0.00,,CLR,0.10,VWS V14.01,2013-04-19 02:53:00,
2013-04-18 21:54:00,31.3,31.3,29.40,West,281,0.0,0.0,100,0.00,,CLR,0.10,VWS V14.01,2013-04-19 02:54:00,
2013-04-18 21:55:00,31.2,31.2,29.40,NW,314,0.0,0.0,100,0.00,,CLR,0.10,VWS V14.01,2013-04-19 02:55:00,
2013-04-18 21:56:00,31.3,31.3,29.40,NNW,331,0.0,0.0,100,0.00,,CLR,0.10,VWS V14.01,2013-04-19 02:56:00,
2013-04-18 21:57:00,31.2,31.2,29.40,NW,321,0.0,0.0,100,0.00,,CLR,0.10,VWS V14.01,2013-04-19 02:57:00,
2013-04-18 21:58:00,31.3,31.3,29.40,NW,315,0.0,0.0,100,0.00,,CLR,0.10,VWS V14.01,2013-04-19 02:58:00,
2013-04-18 21:59:00,31.2,31.2,29.40,WNW,284,0.0,0.0,100,0.00,,CLR,0.10,VWS V14.01,2013-04-19 02:59:00,
2013-04-18 22:00:00,31.2,31.2,29.39,North,2,0.0,0.0,100,0.00,,CLR,0.10,VWS V14.01,2013-04-19 03:00:00,
2013-04-18 22:01:00,31.2,31.2,29.39,North,349,0.0,0.0,100,0.00,,CLR,0.10,VWS V14.01,2013-04-19 03:01:00,
2013-04-18 22:02:00,31.3,31.3,29.39,West,270,0.0,0.0,100,0.00,,CLR,0.10,VWS V14.01,2013-04-19 03:02:00,
2013-04-18 22:03:00,31.3,31.3,29.39,NW,324,0.0,0.0,100,0.00,,CLR,0.10,VWS V14.01,2013-04-19 03:03:00,
2013-04-18 22:04:00,31.2,31.2,29.39,NNW,341,0.0,0.0,100,0.00,,CLR,0.10,VWS V14.01,2013-04-19 03:04:00,
2013-04-18 22:05:00,31.5,31.5,29.39,NW,310,0.0,0.0,100,0.00,,CLR,0.10,VWS V14.01,2013-04-19 03:05:00,
2013-04-18 22:06:00,31.2,31.2,29.39,West,280,0.0,0.0,100,0.00,,CLR,0.10,VWS V14.01,2013-04-19 03:06:00,
2013-04-18 22:07:00,31.3,31.3,29.39,WNW,295,0.0,0.0,100,0.00,,CLR,0.10,VWS V14.01,2013-04-19 03:07:00,
2013-04-18 22:08:00,31.2,31.2,29.39,NNW,335,0.0,0.0,100,0.00,,CLR,0.10,VWS V14.01,2013-04-19 03:08:00,
2013-04-18 22:09:00,31.5,31.5,29.39,North,349,0.0,0.0,100,0.00,,CLR,0.10,VWS V14.01,2013-04-19 03:09:00,
2013-04-18 22:10:00,31.2,31.2,29.39,NW,310,0.0,0.0,100,0.00,,CLR,0.10,VWS V14.01,2013-04-19 03:10:00,
2013-04-18 22:11:00,31.3,31.3,29.39,WNW,293,0.0,0.0,100,0.00,,CLR,0.10,VWS V14.01,2013-04-19 03:11:00,
2013-04-18 22:12:00,31.5,31.5,29.39,WNW,302,0.0,0.0,100,0.00,,CLR,0.10,VWS V14.01,2013-04-19 03:12:00,
2013-04-18 22:13:00,31.2,31.2,29.39,NNW,329,0.0,0.0,100,0.00,,CLR,0.10,VWS V14.01,2013-04-19 03:13:00,
2013-04-18 22:14:00,31.5,31.5,29.39,WNW,302,0.0,0.0,100,0.00,,CLR,0.10,VWS V14.01,2013-04-19 03:14:00,
2013-04-18 22:15:00,31.5,31.5,29.38,NW,325,0.0,0.0,100,0.00,,CLR,0.10,VWS V14.01,2013-04-19 03:15:00,
2013-04-18 22:16:00,31.5,31.5,29.38,NW,304,0.0,0.0,100,0.00,,CLR,0.10,VWS V14.01,2013-04-19 03:16:00,
2013-04-18 22:17:00,31.5,31.5,29.38,NW,315,0.0,0.0,100,0.00,,CLR,0.10,VWS V14.01,2013-04-19 03:17:00,
2013-04-18 22:18:00,31.3,31.3,29.38,NW,315,0.0,0.0,100,0.00,,CLR,0.10,VWS V14.01,2013-04-19 03:18:00,
2013-04-18 22:19:00,31.5,31.5,29.38,NW,325,0.0,0.0,100,0.00,,CLR,0.10,VWS V14.01,2013-04-19 03:19:00,
2013-04-18 22:20:00,31.3,31.3,29.38,NW,311,0.0,0.0,100,0.00,,CLR,0.10,VWS V14.01,2013-04-19 03:20:00,
2013-04-18 22:21:00,31.5,31.5,29.38,NW,314,0.0,0.0,100,0.00,,CLR,0.10,VWS V14.01,2013-04-19 03:21:00,
2013-04-18 22:22:00,31.5,31.5,29.38,NW,317,0.0,0.0,100,0.00,,CLR,0.10,VWS V14.01,2013-04-19 03:22:00,
2013-04-18 22:23:00,31.3,31.3,29.38,WNW,283,0.0,0.0,100,0.00,,CLR,0.10,VWS V14.01,2013-04-19 03:23:00,
2013-04-18 22:24:00,31.3,31.3,29.38,West,270,0.0,0.0,100,0.00,,CLR,0.10,VWS V14.01,2013-04-19 03:24:00,
2013-04-18 22:25:00,31.5,31.5,29.38,WNW,295,0.0,0.0,100,0.00,,CLR,0.10,VWS V14.01,2013-04-19 03:25:00,
2013-04-18 22:26:00,31.3,31.3,29.38,WNW,294,0.0,0.0,100,0.00,,CLR,0.10,VWS V14.01,2013-04-19 03:26:00,
2013-04-18 22:27:00,31.5,31.5,29.38,NW,318,0.0,0.0,100,0.00,,CLR,0.10,VWS V14.01,2013-04-19 03:27:00,
2013-04-18 22:28:00,31.3,31.3,29.38,North,355,0.0,0.0,100,0.00,,CLR,0.10,VWS V14.01,2013-04-19 03:28:00,
2013-04-18 22:29:00,31.5,31.5,29.38,NNW,343,0.0,0.0,100,0.00,,CLR,0.10,VWS V14.01,2013-04-19 03:29:00,
2013-04-18 22:30:00,31.2,31.2,29.38,NW,317,0.0,0.0,100,0.00,,CLR,0.10,VWS V14.01,2013-04-19 03:30:00,
2013-04-18 22:31:00,31.5,31.5,29.38,NNE,12,0.0,0.0,100,0.00,,CLR,0.10,VWS V14.01,2013-04-19 03:31:00,
2013-04-18 22:32:00,31.5,31.5,29.38,NNW,331,0.0,0.0,100,0.00,,CLR,0.10,VWS V14.01,2013-04-19 03:32:00,
2013-04-18 22:33:00,31.5,31.5,29.38,NW,304,0.0,0.0,100,0.00,,CLR,0.10,VWS V14.01,2013-04-19 03:33:00,
2013-04-18 22:34:00,31.5,31.5,29.38,WNW,301,0.0,0.0,100,0.00,,CLR,0.10,VWS V14.01,2013-04-19 03:34:00,
2013-04-18 22:35:00,31.2,31.2,29.38,West,270,0.0,0.0,100,0.00,,CLR,0.10,VWS V14.01,2013-04-19 03:35:00,
2013-04-18 22:36:00,31.2,31.2,29.38,West,280,0.0,0.0,100,0.00,,CLR,0.10,VWS V14.01,2013-04-19 03:36:00,
2013-04-18 22:37:00,31.3,31.3,29.38,NNW,334,0.0,0.0,100,0.00,,CLR,0.10,VWS V14.01,2013-04-19 03:37:00,
2013-04-18 22:38:00,31.5,31.5,29.38,WNW,295,0.0,0.0,100,0.00,,CLR,0.10,VWS V14.01,2013-04-19 03:38:00,
2013-04-18 22:39:00,31.3,31.3,29.38,NW,314,0.0,0.0,100,0.00,,CLR,0.10,VWS V14.01,2013-04-19 03:39:00,
2013-04-18 22:40:00,31.3,31.3,29.38,WNW,284,0.0,0.0,100,0.00,,CLR,0.10,VWS V14.01,2013-04-19 03:40:00,
2013-04-18 22:41:00,31.5,31.5,29.38,West,280,0.0,0.0,100,0.00,,CLR,0.10,VWS V14.01,2013-04-19 03:41:00,
2013-04-18 22:42:00,31.2,31.2,29.38,NW,315,0.0,0.0,100,0.00,,CLR,0.10,VWS V14.01,2013-04-19 03:42:00,
2013-04-18 22:43:00,31.2,31.2,29.38,NW,310,0.0,0.0,100,0.00,,CLR,0.10,VWS V14.01,2013-04-19 03:43:00,
2013-04-18 22:44:00,31.3,31.3,29.38,NW,304,0.0,0.0,100,0.00,,CLR,0.10,VWS V14.01,2013-04-19 03:44:00,
2013-04-18 22:45:00,31.3,31.3,29.37,NW,311,0.0,0.0,100,0.00,,CLR,0.10,VWS V14.01,2013-04-19 03:45:00,
2013-04-18 22:46:00,31.5,31.5,29.37,NW,318,0.0,0.0,100,0.00,,CLR,0.10,VWS V14.01,2013-04-19 03:46:00,
2013-04-18 22:47:00,31.3,31.3,29.37,NW,310,0.0,0.0,100,0.00,,CLR,0.10,VWS V14.01,2013-04-19 03:47:00,
2013-04-18 22:48:00,31.5,31.5,29.37,WNW,291,0.0,0.0,100,0.00,,CLR,0.10,VWS V14.01,2013-04-19 03:48:00,
2013-04-18 22:49:00,31.5,31.5,29.37,NNW,332,0.0,0.0,100,0.00,,CLR,0.10,VWS V14.01,2013-04-19 03:49:00,
2013-04-18 22:50:00,31.3,31.3,29.37,NW,322,0.0,0.0,100,0.00,,CLR,0.10,VWS V14.01,2013-04-19 03:50:00,
2013-04-18 22:51:00,31.2,31.2,29.37,NW,305,0.0,0.0,100,0.00,,CLR,0.10,VWS V14.01,2013-04-19 03:51:00,
2013-04-18 22:52:00,31.5,31.5,29.37,NNE,19,0.0,0.0,100,0.00,,CLR,0.10,VWS V14.01,2013-04-19 03:52:00,
2013-04-18 22:53:00,31.2,31.2,29.37,West,270,0.0,0.0,100,0.00,,CLR,0.10,VWS V14.01,2013-04-19 03:53:00,
2013-04-18 22:54:00,31.3,31.3,29.37,WNW,293,0.0,0.0,100,0.00,,CLR,0.10,VWS V14.01,2013-04-19 03:54:00,
2013-04-18 22:55:00,31.3,31.3,29.37,NW,318,0.0,0.0,100,0.00,,CLR,0.10,VWS V14.01,2013-04-19 03:55:00,
2013-04-18 22:56:00,31.2,31.2,29.37,NNW,339,0.0,0.0,100,0.00,,CLR,0.10,VWS V14.01,2013-04-19 03:56:00,
2013-04-18 22:57:00,31.3,31.3,29.37,NW,312,0.0,0.0,100,0.00,,CLR,0.10,VWS V14.01,2013-04-19 03:57:00,
2013-04-18 22:58:00,31.2,31.2,29.37,WNW,297,0.0,0.0,100,0.00,,CLR,0.10,VWS V14.01,2013-04-19 03:58:00,
2013-04-18 22:59:00,31.2,31.2,29.37,NW,317,0.0,0.0,100,0.00,,CLR,0.10,VWS V14.01,2013-04-19 03:59:00,
2013-04-18 23:00:00,31.3,31.3,29.38,WNW,295,0.0,0.0,100,0.00,,CLR,0.10,VWS V14.01,2013-04-19 04:00:00,
2013-04-18 23:01:00,31.3,31.3,29.38,NW,310,0.0,0.0,100,0.00,,CLR,0.10,VWS V14.01,2013-04-19 04:01:00,
2013-04-18 23:02:00,31.3,31.3,29.38,WNW,290,0.0,0.0,100,0.00,,CLR,0.10,VWS V14.01,2013-04-19 04:02:00,
2013-04-18 23:03:00,31.3,31.3,29.38,NNE,14,0.0,0.0,100,0.00,,CLR,0.10,VWS V14.01,2013-04-19 04:03:00,
2013-04-18 23:04:00,31.2,31.2,29.38,NW,311,0.0,0.0,100,0.00,,CLR,0.10,VWS V14.01,2013-04-19 04:04:00,
2013-04-18 23:05:00,31.3,31.3,29.38,NW,308,0.0,0.0,100,0.00,,CLR,0.10,VWS V14.01,2013-04-19 04:05:00,
2013-04-18 23:06:00,31.0,31.0,29.38,NW,305,0.0,0.0,100,0.00,,CLR,0.10,VWS V14.01,2013-04-19 04:06:00,
2013-04-18 23:07:00,31.3,31.3,29.38,NNW,331,0.0,0.0,100,0.00,,CLR,0.10,VWS V14.01,2013-04-19 04:07:00,
2013-04-18 23:08:00,31.0,31.0,29.38,WNW,294,0.0,0.0,100,0.00,,CLR,0.10,VWS V14.01,2013-04-19 04:08:00,
2013-04-18 23:09:00,31.3,31.3,29.38,WNW,298,0.0,0.0,100,0.00,,CLR,0.10,VWS V14.01,2013-04-19 04:09:00,
2013-04-18 23:10:00,31.2,31.2,29.38,NW,312,0.0,0.0,100,0.00,,CLR,0.10,VWS V14.01,2013-04-19 04:10:00,
2013-04-18 23:11:00,31.0,31.0,29.38,North,355,0.0,0.0,100,0.00,,CLR,0.10,VWS V14.01,2013-04-19 04:11:00,
2013-04-18 23:12:00,31.3,31.3,29.38,NNW,336,0.0,0.0,100,0.00,,CLR,0.10,VWS V14.01,2013-04-19 04:12:00,
2013-04-18 23:13:00,31.0,31.0,29.38,WNW,298,0.0,0.0,100,0.00,,CLR,0.10,VWS V14.01,2013-04-19 04:13:00,
2013-04-18 23:14:00,31.0,31.0,29.38,NW,325,0.0,0.0,100,0.00,,CLR,0.10,VWS V14.01,2013-04-19 04:14:00,
2013-04-18 23:15:00,31.2,31.2,29.37,WNW,302,0.0,0.0,100,0.00,,CLR,0.10,VWS V14.01,2013-04-19 04:15:00,
2013-04-18 23:16:00,31.0,31.0,29.37,NW,322,0.0,0.0,100,0.00,,CLR,0.10,VWS V14.01,2013-04-19 04:16:00,
2013-04-18 23:17:00,31.3,31.3,29.37,NW,324,0.0,0.0,100,0.00,,CLR,0.10,VWS V14.01,2013-04-19 04:17:00,
2013-04-18 23:18:00,31.2,31.2,29.37,NNW,338,0.0,0.0,100,0.00,,CLR,0.10,VWS V14.01,2013-04-19 04:18:00,
2013-04-18 23:19:00,31.2,31.2,29.37,NW,305,0.0,0.0,100,0.00,,CLR,0.10,VWS V14.01,2013-04-19 04:19:00,
2013-04-18 23:20:00,31.3,31.3,29.37,NW,319,0.0,0.0,100,0.00,,CLR,0.10,VWS V14.01,2013-04-19 04:20:00,
2013-04-18 23:21:00,31.0,31.0,29.37,NNW,343,0.0,0.0,100,0.00,,CLR,0.10,VWS V14.01,2013-04-19 04:21:00,
2013-04-18 23:22:00,31.0,31.0,29.37,NNW,328,0.0,0.0,100,0.00,,CLR,0.10,VWS V14.01,2013-04-19 04:22:00,
2013-04-18 23:23:00,31.0,31.0,29.37,WNW,295,0.0,0.0,100,0.00,,CLR,0.10,VWS V14.01,2013-04-19 04:23:00,
2013-04-18 23:24:00,31.2,31.2,29.37,NW,315,0.0,0.0,100,0.00,,CLR,0.10,VWS V14.01,2013-04-19 04:24:00,
2013-04-18 23:25:00,31.2,31.2,29.37,WNW,291,0.0,0.0,100,0.00,,CLR,0.10,VWS V14.01,2013-04-19 04:25:00,
2013-04-18 23:26:00,31.0,31.0,29.37,NW,308,0.0,0.0,100,0.00,,CLR,0.10,VWS V14.01,2013-04-19 04:26:00,
2013-04-18 23:27:00,31.2,31.2,29.37,WNW,283,0.0,0.0,100,0.00,,CLR,0.10,VWS V14.01,2013-04-19 04:27:00,
2013-04-18 23:28:00,31.2,31.2,29.37,WNW,290,0.0,0.0,100,0.00,,CLR,0.10,VWS V14.01,2013-04-19 04:28:00,
2013-04-18 23:29:00,31.2,31.2,29.37,NW,319,0.0,0.0,100,0.00,,CLR,0.10,VWS V14.01,2013-04-19 04:29:00,
2013-04-18 23:30:00,31.3,31.3,29.36,WNW,284,0.0,0.0,100,0.00,,CLR,0.10,VWS V14.01,2013-04-19 04:30:00,
2013-04-18 23:31:00,31.0,31.0,29.36,WNW,300,0.0,0.0,100,0.00,,CLR,0.10,VWS V14.01,2013-04-19 04:31:00,
2013-04-18 23:32:00,31.2,31.2,29.36,NW,312,0.0,0.0,100,0.00,,CLR,0.10,VWS V14.01,2013-04-19 04:32:00,
2013-04-18 23:33:00,31.2,31.2,29.36,WNW,302,0.0,0.0,100,0.00,,CLR,0.10,VWS V14.01,2013-04-19 04:33:00,
2013-04-18 23:34:00,31.0,31.0,29.36,NW,318,0.0,0.0,100,0.00,,CLR,0.10,VWS V14.01,2013-04-19 04:34:00,
2013-04-18 23:43:00,31.0,31.0,29.36,West,276,0.0,0.0,100,0.00,,CLR,0.10,VWS V14.01,2013-04-19 04:43:00,
2013-04-18 23:44:00,31.2,31.2,29.36,WNW,297,0.0,0.0,100,0.00,,CLR,0.10,VWS V14.01,2013-04-19 04:44:00,
2013-04-18 23:45:00,31.0,31.0,29.36,NW,304,0.0,0.0,100,0.00,,CLR,0.10,VWS V14.01,2013-04-19 04:45:00,
2013-04-18 23:46:00,31.2,31.2,29.36,NNW,332,0.0,0.0,100,0.00,,CLR,0.10,VWS V14.01,2013-04-19 04:46:00,
2013-04-18 23:47:00,31.0,31.0,29.36,NW,312,0.0,0.0,100,0.00,,CLR,0.10,VWS V14.01,2013-04-19 04:47:00,
2013-04-18 23:48:00,31.2,31.2,29.36,NW,318,0.0,0.0,100,0.00,,CLR,0.10,VWS V14.01,2013-04-19 04:48:00,
2013-04-18 23:49:00,31.0,31.0,29.36,NW,311,0.0,0.0,100,0.00,,CLR,0.10,VWS V14.01,2013-04-19 04:49:00,
2013-04-18 23:50:00,31.2,31.2,29.36,NW,311,0.0,0.0,100,0.00,,CLR,0.10,VWS V14.01,2013-04-19 04:50:00,
2013-04-18 23:51:00,31.2,31.2,29.36,WNW,300,0.0,0.0,100,0.00,,CLR,0.10,VWS V14.01,2013-04-19 04:51:00,
2013-04-18 23:52:00,31.2,31.2,29.36,NNW,339,0.0,0.0,100,0.00,,CLR,0.10,VWS V14.01,2013-04-19 04:52:00,
2013-04-18 23:53:00,31.2,31.2,29.36,NW,322,0.0,0.0,100,0.00,,CLR,0.10,VWS V14.01,2013-04-19 04:53:00,
2013-04-18 23:54:00,31.0,31.0,29.36,NW,319,0.0,0.0,100,0.00,,CLR,0.10,VWS V14.01,2013-04-19 04:54:00,
2013-04-18 23:55:00,30.9,30.9,29.36,NW,307,0.0,0.0,100,0.00,,CLR,0.10,VWS V14.01,2013-04-19 04:55:00,
2013-04-18 23:56:00,31.0,31.0,29.36,WNW,300,0.0,0.0,100,0.00,,CLR,0.10,VWS V14.01,2013-04-19 04:56:00,
2013-04-18 23:57:00,31.2,31.2,29.36,NW,305,0.0,0.0,100,0.00,,CLR,0.10,VWS V14.01,2013-04-19 04:57:00,
2013-04-18 23:58:00,31.0,31.0,29.36,NW,311,0.0,0.0,100,0.00,,CLR,0.10,VWS V14.01,2013-04-19 04:58:00,
2013-04-18 23:59:00,31.0,31.0,29.36,NW,310,0.0,0.0,100,0.00,,CLR,0.10,VWS V14.01,2013-04-19 04:59:00,